<?xml version="1.0" encoding="UTF-8" standalone="no" ?>
<gpx xmlns="http://www.topografix.com/GPX/1/1" xmlns:xsi="http://www.w3.org/2001/XMLSchema-instance" xsi:schemaLocation="http://www.topografix.com/GPX/1/1 http://www.topografix.com/GPX/1/1/gpx.xsd" version="1.1" creator="VisuGPX - https://www.visugpx.com">
  <metadata>
    <name>2022-04-17 Biaud - Chateau d'Essalois 37km</name>
    <desc><![CDATA[17/04/2022 Attention départ d'un lieu privé]]></desc>
  </metadata>
  <trk>
    <name><![CDATA[2022-04-17 17:49:01]]></name>
    <extensions>
      <line xmlns="http://www.topografix.com/GPX/gpx_style/0/2">
        <color>0000FF</color>
        <width>4</width>
      </line>
    </extensions>
    <trkseg>
      <trkpt lat="45.44569" lon="4.13072">
        <ele>631.24</ele>
        <time>2022-04-16T15:45:58Z</time>
      </trkpt>
      <trkpt lat="45.44569" lon="4.13072">
        <ele>631.24</ele>
        <time>2022-04-16T15:46:01Z</time>
      </trkpt>
      <trkpt lat="45.44565" lon="4.13074">
        <ele>624.03</ele>
        <time>2022-04-17T07:21:31Z</time>
      </trkpt>
      <trkpt lat="45.44566" lon="4.13073">
        <ele>628.36</ele>
        <time>2022-04-17T07:21:55Z</time>
      </trkpt>
      <trkpt lat="45.44569" lon="4.13072">
        <ele>636.53</ele>
        <time>2022-04-17T07:22:18Z</time>
      </trkpt>
      <trkpt lat="45.44569" lon="4.13072">
        <ele>636.05</ele>
        <time>2022-04-17T07:22:35Z</time>
      </trkpt>
      <trkpt lat="45.44569" lon="4.13073">
        <ele>637.01</ele>
        <time>2022-04-17T07:22:58Z</time>
      </trkpt>
      <trkpt lat="45.44569" lon="4.13076">
        <ele>638.45</ele>
        <time>2022-04-17T07:23:26Z</time>
      </trkpt>
      <trkpt lat="45.44569" lon="4.13074">
        <ele>637.01</ele>
        <time>2022-04-17T07:23:51Z</time>
      </trkpt>
      <trkpt lat="45.4457" lon="4.13075">
        <ele>636.05</ele>
        <time>2022-04-17T07:24:16Z</time>
      </trkpt>
      <trkpt lat="45.44568" lon="4.13078">
        <ele>637.01</ele>
        <time>2022-04-17T07:24:42Z</time>
      </trkpt>
      <trkpt lat="45.44569" lon="4.13076">
        <ele>636.53</ele>
        <time>2022-04-17T07:25:13Z</time>
      </trkpt>
      <trkpt lat="45.4457" lon="4.13077">
        <ele>638.45</ele>
        <time>2022-04-17T07:25:44Z</time>
      </trkpt>
      <trkpt lat="45.44574" lon="4.13076">
        <ele>637.01</ele>
        <time>2022-04-17T07:26:10Z</time>
      </trkpt>
      <trkpt lat="45.44575" lon="4.13076">
        <ele>637.01</ele>
        <time>2022-04-17T07:26:28Z</time>
      </trkpt>
      <trkpt lat="45.44573" lon="4.13079">
        <ele>634.61</ele>
        <time>2022-04-17T07:26:43Z</time>
      </trkpt>
      <trkpt lat="45.44571" lon="4.1308">
        <ele>635.09</ele>
        <time>2022-04-17T07:27:01Z</time>
      </trkpt>
      <trkpt lat="45.44569" lon="4.13086">
        <ele>636.53</ele>
        <time>2022-04-17T07:27:33Z</time>
      </trkpt>
      <trkpt lat="45.44568" lon="4.13088">
        <ele>637.49</ele>
        <time>2022-04-17T07:28:05Z</time>
      </trkpt>
      <trkpt lat="45.44567" lon="4.13087">
        <ele>637.49</ele>
        <time>2022-04-17T07:28:31Z</time>
      </trkpt>
      <trkpt lat="45.44568" lon="4.13087">
        <ele>637.49</ele>
        <time>2022-04-17T07:28:52Z</time>
      </trkpt>
      <trkpt lat="45.44569" lon="4.13089">
        <ele>638.45</ele>
        <time>2022-04-17T07:29:19Z</time>
      </trkpt>
      <trkpt lat="45.44567" lon="4.1309">
        <ele>639.89</ele>
        <time>2022-04-17T07:29:44Z</time>
      </trkpt>
      <trkpt lat="45.44566" lon="4.13091">
        <ele>640.86</ele>
        <time>2022-04-17T07:30:09Z</time>
      </trkpt>
      <trkpt lat="45.44566" lon="4.13094">
        <ele>639.89</ele>
        <time>2022-04-17T07:30:40Z</time>
      </trkpt>
      <trkpt lat="45.44565" lon="4.13094">
        <ele>640.86</ele>
        <time>2022-04-17T07:30:59Z</time>
      </trkpt>
      <trkpt lat="45.44566" lon="4.13091">
        <ele>640.38</ele>
        <time>2022-04-17T07:31:27Z</time>
      </trkpt>
      <trkpt lat="45.44569" lon="4.13086">
        <ele>637.01</ele>
        <time>2022-04-17T07:31:56Z</time>
      </trkpt>
      <trkpt lat="45.44569" lon="4.1308">
        <ele>636.05</ele>
        <time>2022-04-17T07:32:13Z</time>
      </trkpt>
      <trkpt lat="45.44567" lon="4.13085">
        <ele>634.61</ele>
        <time>2022-04-17T07:32:32Z</time>
      </trkpt>
      <trkpt lat="45.44559" lon="4.13095">
        <ele>632.2</ele>
        <time>2022-04-17T07:32:41Z</time>
      </trkpt>
      <trkpt lat="45.44568" lon="4.13112">
        <ele>631.72</ele>
        <time>2022-04-17T07:32:55Z</time>
      </trkpt>
      <trkpt lat="45.44585" lon="4.13125">
        <ele>632.68</ele>
        <time>2022-04-17T07:33:11Z</time>
      </trkpt>
      <trkpt lat="45.44595" lon="4.13159">
        <ele>630.76</ele>
        <time>2022-04-17T07:33:30Z</time>
      </trkpt>
      <trkpt lat="45.44611" lon="4.13182">
        <ele>632.2</ele>
        <time>2022-04-17T07:33:47Z</time>
      </trkpt>
      <trkpt lat="45.4463" lon="4.13214">
        <ele>632.68</ele>
        <time>2022-04-17T07:34:09Z</time>
      </trkpt>
      <trkpt lat="45.44634" lon="4.13242">
        <ele>634.13</ele>
        <time>2022-04-17T07:34:26Z</time>
      </trkpt>
      <trkpt lat="45.44637" lon="4.13287">
        <ele>634.13</ele>
        <time>2022-04-17T07:34:47Z</time>
      </trkpt>
      <trkpt lat="45.44644" lon="4.13317">
        <ele>634.61</ele>
        <time>2022-04-17T07:35:04Z</time>
      </trkpt>
      <trkpt lat="45.44668" lon="4.13339">
        <ele>637.49</ele>
        <time>2022-04-17T07:35:26Z</time>
      </trkpt>
      <trkpt lat="45.44695" lon="4.13354">
        <ele>637.49</ele>
        <time>2022-04-17T07:35:47Z</time>
      </trkpt>
      <trkpt lat="45.44719" lon="4.1337">
        <ele>636.05</ele>
        <time>2022-04-17T07:36:07Z</time>
      </trkpt>
      <trkpt lat="45.44744" lon="4.13389">
        <ele>634.61</ele>
        <time>2022-04-17T07:36:27Z</time>
      </trkpt>
      <trkpt lat="45.44765" lon="4.13409">
        <ele>634.61</ele>
        <time>2022-04-17T07:36:47Z</time>
      </trkpt>
      <trkpt lat="45.44787" lon="4.13441">
        <ele>634.61</ele>
        <time>2022-04-17T07:37:09Z</time>
      </trkpt>
      <trkpt lat="45.44806" lon="4.1345">
        <ele>636.53</ele>
        <time>2022-04-17T07:37:26Z</time>
      </trkpt>
      <trkpt lat="45.44824" lon="4.13463">
        <ele>638.45</ele>
        <time>2022-04-17T07:37:44Z</time>
      </trkpt>
      <trkpt lat="45.44844" lon="4.13479">
        <ele>638.93</ele>
        <time>2022-04-17T07:38:00Z</time>
      </trkpt>
      <trkpt lat="45.4487" lon="4.13494">
        <ele>639.41</ele>
        <time>2022-04-17T07:38:20Z</time>
      </trkpt>
      <trkpt lat="45.44889" lon="4.13489">
        <ele>640.38</ele>
        <time>2022-04-17T07:38:39Z</time>
      </trkpt>
      <trkpt lat="45.44905" lon="4.13488">
        <ele>640.86</ele>
        <time>2022-04-17T07:38:55Z</time>
      </trkpt>
      <trkpt lat="45.4493" lon="4.13486">
        <ele>640.86</ele>
        <time>2022-04-17T07:39:15Z</time>
      </trkpt>
      <trkpt lat="45.44956" lon="4.13486">
        <ele>641.34</ele>
        <time>2022-04-17T07:39:34Z</time>
      </trkpt>
      <trkpt lat="45.44984" lon="4.13492">
        <ele>640.86</ele>
        <time>2022-04-17T07:39:55Z</time>
      </trkpt>
      <trkpt lat="45.45008" lon="4.13515">
        <ele>638.93</ele>
        <time>2022-04-17T07:40:16Z</time>
      </trkpt>
      <trkpt lat="45.45033" lon="4.13537">
        <ele>637.01</ele>
        <time>2022-04-17T07:40:37Z</time>
      </trkpt>
      <trkpt lat="45.45058" lon="4.13559">
        <ele>635.57</ele>
        <time>2022-04-17T07:40:58Z</time>
      </trkpt>
      <trkpt lat="45.45081" lon="4.13555">
        <ele>637.01</ele>
        <time>2022-04-17T07:41:16Z</time>
      </trkpt>
      <trkpt lat="45.45105" lon="4.13535">
        <ele>636.53</ele>
        <time>2022-04-17T07:41:36Z</time>
      </trkpt>
      <trkpt lat="45.45114" lon="4.13529">
        <ele>635.57</ele>
        <time>2022-04-17T07:41:52Z</time>
      </trkpt>
      <trkpt lat="45.45113" lon="4.1353">
        <ele>634.61</ele>
        <time>2022-04-17T07:42:29Z</time>
      </trkpt>
      <trkpt lat="45.45114" lon="4.13529">
        <ele>634.61</ele>
        <time>2022-04-17T07:43:06Z</time>
      </trkpt>
      <trkpt lat="45.45128" lon="4.13524">
        <ele>633.65</ele>
        <time>2022-04-17T07:43:25Z</time>
      </trkpt>
      <trkpt lat="45.45143" lon="4.13523">
        <ele>631.72</ele>
        <time>2022-04-17T07:43:42Z</time>
      </trkpt>
      <trkpt lat="45.45153" lon="4.13518">
        <ele>629.8</ele>
        <time>2022-04-17T07:43:55Z</time>
      </trkpt>
      <trkpt lat="45.45171" lon="4.13509">
        <ele>628.84</ele>
        <time>2022-04-17T07:44:11Z</time>
      </trkpt>
      <trkpt lat="45.45187" lon="4.13498">
        <ele>631.24</ele>
        <time>2022-04-17T07:44:28Z</time>
      </trkpt>
      <trkpt lat="45.45199" lon="4.13491">
        <ele>632.68</ele>
        <time>2022-04-17T07:44:41Z</time>
      </trkpt>
      <trkpt lat="45.45229" lon="4.13477">
        <ele>633.17</ele>
        <time>2022-04-17T07:44:58Z</time>
      </trkpt>
      <trkpt lat="45.45248" lon="4.13474">
        <ele>633.65</ele>
        <time>2022-04-17T07:45:15Z</time>
      </trkpt>
      <trkpt lat="45.45272" lon="4.13474">
        <ele>634.13</ele>
        <time>2022-04-17T07:45:31Z</time>
      </trkpt>
      <trkpt lat="45.45295" lon="4.13468">
        <ele>631.24</ele>
        <time>2022-04-17T07:45:44Z</time>
      </trkpt>
      <trkpt lat="45.45319" lon="4.13458">
        <ele>629.8</ele>
        <time>2022-04-17T07:46:00Z</time>
      </trkpt>
      <trkpt lat="45.45336" lon="4.13452">
        <ele>628.84</ele>
        <time>2022-04-17T07:46:14Z</time>
      </trkpt>
      <trkpt lat="45.45347" lon="4.13451">
        <ele>624.03</ele>
        <time>2022-04-17T07:46:26Z</time>
      </trkpt>
      <trkpt lat="45.45365" lon="4.13451">
        <ele>622.11</ele>
        <time>2022-04-17T07:46:39Z</time>
      </trkpt>
      <trkpt lat="45.45387" lon="4.13455">
        <ele>621.15</ele>
        <time>2022-04-17T07:46:54Z</time>
      </trkpt>
      <trkpt lat="45.45412" lon="4.13462">
        <ele>620.67</ele>
        <time>2022-04-17T07:47:08Z</time>
      </trkpt>
      <trkpt lat="45.45427" lon="4.13465">
        <ele>619.71</ele>
        <time>2022-04-17T07:47:20Z</time>
      </trkpt>
      <trkpt lat="45.45448" lon="4.13473">
        <ele>616.34</ele>
        <time>2022-04-17T07:47:34Z</time>
      </trkpt>
      <trkpt lat="45.45461" lon="4.13482">
        <ele>613.46</ele>
        <time>2022-04-17T07:47:43Z</time>
      </trkpt>
      <trkpt lat="45.4547" lon="4.13487">
        <ele>612.02</ele>
        <time>2022-04-17T07:47:51Z</time>
      </trkpt>
      <trkpt lat="45.45477" lon="4.13491">
        <ele>610.57</ele>
        <time>2022-04-17T07:47:56Z</time>
      </trkpt>
      <trkpt lat="45.45485" lon="4.13501">
        <ele>609.13</ele>
        <time>2022-04-17T07:48:03Z</time>
      </trkpt>
      <trkpt lat="45.45492" lon="4.1351">
        <ele>607.21</ele>
        <time>2022-04-17T07:48:10Z</time>
      </trkpt>
      <trkpt lat="45.45507" lon="4.13526">
        <ele>604.33</ele>
        <time>2022-04-17T07:48:23Z</time>
      </trkpt>
      <trkpt lat="45.45524" lon="4.13542">
        <ele>604.81</ele>
        <time>2022-04-17T07:48:38Z</time>
      </trkpt>
      <trkpt lat="45.45536" lon="4.13556">
        <ele>603.85</ele>
        <time>2022-04-17T07:48:50Z</time>
      </trkpt>
      <trkpt lat="45.45547" lon="4.13563">
        <ele>602.88</ele>
        <time>2022-04-17T07:49:04Z</time>
      </trkpt>
      <trkpt lat="45.45558" lon="4.13568">
        <ele>599.52</ele>
        <time>2022-04-17T07:49:19Z</time>
      </trkpt>
      <trkpt lat="45.45574" lon="4.13578">
        <ele>594.23</ele>
        <time>2022-04-17T07:49:35Z</time>
      </trkpt>
      <trkpt lat="45.45577" lon="4.13581">
        <ele>593.27</ele>
        <time>2022-04-17T07:49:39Z</time>
      </trkpt>
      <trkpt lat="45.45603" lon="4.13595">
        <ele>595.19</ele>
        <time>2022-04-17T07:49:55Z</time>
      </trkpt>
      <trkpt lat="45.45615" lon="4.13602">
        <ele>597.6</ele>
        <time>2022-04-17T07:50:04Z</time>
      </trkpt>
      <trkpt lat="45.45633" lon="4.13612">
        <ele>599.52</ele>
        <time>2022-04-17T07:50:19Z</time>
      </trkpt>
      <trkpt lat="45.45635" lon="4.13613">
        <ele>600</ele>
        <time>2022-04-17T07:50:21Z</time>
      </trkpt>
      <trkpt lat="45.45654" lon="4.13625">
        <ele>599.52</ele>
        <time>2022-04-17T07:50:36Z</time>
      </trkpt>
      <trkpt lat="45.45655" lon="4.13626">
        <ele>599.52</ele>
        <time>2022-04-17T07:50:37Z</time>
      </trkpt>
      <trkpt lat="45.45679" lon="4.13647">
        <ele>594.23</ele>
        <time>2022-04-17T07:50:52Z</time>
      </trkpt>
      <trkpt lat="45.45705" lon="4.13672">
        <ele>590.87</ele>
        <time>2022-04-17T07:51:10Z</time>
      </trkpt>
      <trkpt lat="45.45716" lon="4.13681">
        <ele>587.02</ele>
        <time>2022-04-17T07:51:22Z</time>
      </trkpt>
      <trkpt lat="45.45719" lon="4.13681">
        <ele>586.54</ele>
        <time>2022-04-17T07:51:26Z</time>
      </trkpt>
      <trkpt lat="45.45739" lon="4.13703">
        <ele>582.7</ele>
        <time>2022-04-17T07:51:44Z</time>
      </trkpt>
      <trkpt lat="45.45744" lon="4.13718">
        <ele>582.7</ele>
        <time>2022-04-17T07:51:55Z</time>
      </trkpt>
      <trkpt lat="45.45748" lon="4.13731">
        <ele>582.22</ele>
        <time>2022-04-17T07:52:10Z</time>
      </trkpt>
      <trkpt lat="45.45752" lon="4.13733">
        <ele>581.25</ele>
        <time>2022-04-17T07:52:31Z</time>
      </trkpt>
      <trkpt lat="45.4575" lon="4.13732">
        <ele>580.29</ele>
        <time>2022-04-17T07:52:59Z</time>
      </trkpt>
      <trkpt lat="45.45747" lon="4.13726">
        <ele>578.85</ele>
        <time>2022-04-17T07:53:31Z</time>
      </trkpt>
      <trkpt lat="45.4574" lon="4.13733">
        <ele>575.49</ele>
        <time>2022-04-17T07:54:02Z</time>
      </trkpt>
      <trkpt lat="45.45745" lon="4.13738">
        <ele>575.01</ele>
        <time>2022-04-17T07:54:14Z</time>
      </trkpt>
      <trkpt lat="45.45749" lon="4.13747">
        <ele>574.53</ele>
        <time>2022-04-17T07:54:20Z</time>
      </trkpt>
      <trkpt lat="45.45757" lon="4.1377">
        <ele>576.93</ele>
        <time>2022-04-17T07:54:36Z</time>
      </trkpt>
      <trkpt lat="45.45762" lon="4.13786">
        <ele>578.37</ele>
        <time>2022-04-17T07:54:44Z</time>
      </trkpt>
      <trkpt lat="45.45765" lon="4.13796">
        <ele>578.37</ele>
        <time>2022-04-17T07:54:48Z</time>
      </trkpt>
      <trkpt lat="45.45777" lon="4.13828">
        <ele>580.77</ele>
        <time>2022-04-17T07:55:03Z</time>
      </trkpt>
      <trkpt lat="45.45784" lon="4.13857">
        <ele>581.73</ele>
        <time>2022-04-17T07:55:16Z</time>
      </trkpt>
      <trkpt lat="45.45791" lon="4.1389">
        <ele>581.25</ele>
        <time>2022-04-17T07:55:30Z</time>
      </trkpt>
      <trkpt lat="45.45793" lon="4.13899">
        <ele>580.29</ele>
        <time>2022-04-17T07:55:34Z</time>
      </trkpt>
      <trkpt lat="45.45797" lon="4.13921">
        <ele>580.29</ele>
        <time>2022-04-17T07:55:45Z</time>
      </trkpt>
      <trkpt lat="45.45798" lon="4.13937">
        <ele>580.77</ele>
        <time>2022-04-17T07:55:52Z</time>
      </trkpt>
      <trkpt lat="45.45788" lon="4.1397">
        <ele>584.62</ele>
        <time>2022-04-17T07:56:07Z</time>
      </trkpt>
      <trkpt lat="45.45783" lon="4.14006">
        <ele>582.22</ele>
        <time>2022-04-17T07:56:23Z</time>
      </trkpt>
      <trkpt lat="45.45797" lon="4.14035">
        <ele>582.7</ele>
        <time>2022-04-17T07:56:39Z</time>
      </trkpt>
      <trkpt lat="45.45808" lon="4.14071">
        <ele>580.29</ele>
        <time>2022-04-17T07:56:56Z</time>
      </trkpt>
      <trkpt lat="45.45816" lon="4.14101">
        <ele>582.7</ele>
        <time>2022-04-17T07:57:11Z</time>
      </trkpt>
      <trkpt lat="45.45828" lon="4.14144">
        <ele>583.66</ele>
        <time>2022-04-17T07:57:30Z</time>
      </trkpt>
      <trkpt lat="45.45829" lon="4.14181">
        <ele>582.7</ele>
        <time>2022-04-17T07:57:46Z</time>
      </trkpt>
      <trkpt lat="45.45831" lon="4.14216">
        <ele>583.66</ele>
        <time>2022-04-17T07:58:02Z</time>
      </trkpt>
      <trkpt lat="45.4582" lon="4.14249">
        <ele>583.18</ele>
        <time>2022-04-17T07:58:16Z</time>
      </trkpt>
      <trkpt lat="45.45814" lon="4.14289">
        <ele>584.14</ele>
        <time>2022-04-17T07:58:34Z</time>
      </trkpt>
      <trkpt lat="45.45807" lon="4.14338">
        <ele>585.1</ele>
        <time>2022-04-17T07:58:54Z</time>
      </trkpt>
      <trkpt lat="45.45801" lon="4.14388">
        <ele>587.02</ele>
        <time>2022-04-17T07:59:16Z</time>
      </trkpt>
      <trkpt lat="45.45797" lon="4.14416">
        <ele>588.95</ele>
        <time>2022-04-17T07:59:31Z</time>
      </trkpt>
      <trkpt lat="45.45795" lon="4.14424">
        <ele>589.43</ele>
        <time>2022-04-17T07:59:35Z</time>
      </trkpt>
      <trkpt lat="45.45784" lon="4.14456">
        <ele>594.71</ele>
        <time>2022-04-17T07:59:49Z</time>
      </trkpt>
      <trkpt lat="45.45775" lon="4.14485">
        <ele>597.12</ele>
        <time>2022-04-17T08:00:04Z</time>
      </trkpt>
      <trkpt lat="45.4579" lon="4.14509">
        <ele>599.52</ele>
        <time>2022-04-17T08:00:19Z</time>
      </trkpt>
      <trkpt lat="45.45791" lon="4.14511">
        <ele>599.52</ele>
        <time>2022-04-17T08:00:20Z</time>
      </trkpt>
      <trkpt lat="45.45803" lon="4.14511">
        <ele>602.4</ele>
        <time>2022-04-17T08:00:30Z</time>
      </trkpt>
      <trkpt lat="45.4581" lon="4.14504">
        <ele>603.85</ele>
        <time>2022-04-17T08:00:36Z</time>
      </trkpt>
      <trkpt lat="45.45813" lon="4.14504">
        <ele>604.33</ele>
        <time>2022-04-17T08:00:38Z</time>
      </trkpt>
      <trkpt lat="45.45807" lon="4.14536">
        <ele>604.33</ele>
        <time>2022-04-17T08:00:54Z</time>
      </trkpt>
      <trkpt lat="45.4579" lon="4.14567">
        <ele>603.36</ele>
        <time>2022-04-17T08:01:10Z</time>
      </trkpt>
      <trkpt lat="45.45771" lon="4.14601">
        <ele>603.36</ele>
        <time>2022-04-17T08:01:29Z</time>
      </trkpt>
      <trkpt lat="45.45757" lon="4.14632">
        <ele>602.88</ele>
        <time>2022-04-17T08:01:44Z</time>
      </trkpt>
      <trkpt lat="45.45738" lon="4.14673">
        <ele>603.36</ele>
        <time>2022-04-17T08:02:05Z</time>
      </trkpt>
      <trkpt lat="45.45723" lon="4.14718">
        <ele>602.88</ele>
        <time>2022-04-17T08:02:28Z</time>
      </trkpt>
      <trkpt lat="45.45715" lon="4.14756">
        <ele>601.92</ele>
        <time>2022-04-17T08:02:46Z</time>
      </trkpt>
      <trkpt lat="45.45711" lon="4.14795">
        <ele>599.52</ele>
        <time>2022-04-17T08:03:03Z</time>
      </trkpt>
      <trkpt lat="45.45708" lon="4.14831">
        <ele>595.67</ele>
        <time>2022-04-17T08:03:20Z</time>
      </trkpt>
      <trkpt lat="45.45705" lon="4.14865">
        <ele>592.31</ele>
        <time>2022-04-17T08:03:35Z</time>
      </trkpt>
      <trkpt lat="45.45714" lon="4.14898">
        <ele>597.12</ele>
        <time>2022-04-17T08:03:50Z</time>
      </trkpt>
      <trkpt lat="45.45721" lon="4.1493">
        <ele>599.04</ele>
        <time>2022-04-17T08:04:06Z</time>
      </trkpt>
      <trkpt lat="45.45732" lon="4.1497">
        <ele>599.04</ele>
        <time>2022-04-17T08:04:25Z</time>
      </trkpt>
      <trkpt lat="45.45744" lon="4.15003">
        <ele>598.08</ele>
        <time>2022-04-17T08:04:41Z</time>
      </trkpt>
      <trkpt lat="45.45765" lon="4.15047">
        <ele>599.52</ele>
        <time>2022-04-17T08:05:03Z</time>
      </trkpt>
      <trkpt lat="45.45784" lon="4.15077">
        <ele>598.08</ele>
        <time>2022-04-17T08:05:22Z</time>
      </trkpt>
      <trkpt lat="45.45805" lon="4.15103">
        <ele>598.08</ele>
        <time>2022-04-17T08:05:41Z</time>
      </trkpt>
      <trkpt lat="45.45832" lon="4.15129">
        <ele>597.6</ele>
        <time>2022-04-17T08:06:01Z</time>
      </trkpt>
      <trkpt lat="45.45863" lon="4.15151">
        <ele>597.6</ele>
        <time>2022-04-17T08:06:21Z</time>
      </trkpt>
      <trkpt lat="45.45894" lon="4.15167">
        <ele>597.6</ele>
        <time>2022-04-17T08:06:40Z</time>
      </trkpt>
      <trkpt lat="45.45924" lon="4.15179">
        <ele>600</ele>
        <time>2022-04-17T08:06:58Z</time>
      </trkpt>
      <trkpt lat="45.45966" lon="4.15203">
        <ele>598.56</ele>
        <time>2022-04-17T08:07:24Z</time>
      </trkpt>
      <trkpt lat="45.4598" lon="4.15212">
        <ele>598.56</ele>
        <time>2022-04-17T08:07:39Z</time>
      </trkpt>
      <trkpt lat="45.46014" lon="4.15224">
        <ele>598.56</ele>
        <time>2022-04-17T08:08:01Z</time>
      </trkpt>
      <trkpt lat="45.46037" lon="4.1525">
        <ele>598.56</ele>
        <time>2022-04-17T08:08:22Z</time>
      </trkpt>
      <trkpt lat="45.46044" lon="4.15285">
        <ele>597.6</ele>
        <time>2022-04-17T08:08:39Z</time>
      </trkpt>
      <trkpt lat="45.46055" lon="4.15319">
        <ele>598.08</ele>
        <time>2022-04-17T08:08:57Z</time>
      </trkpt>
      <trkpt lat="45.4608" lon="4.15338">
        <ele>599.04</ele>
        <time>2022-04-17T08:09:16Z</time>
      </trkpt>
      <trkpt lat="45.46104" lon="4.15356">
        <ele>600.96</ele>
        <time>2022-04-17T08:09:34Z</time>
      </trkpt>
      <trkpt lat="45.46134" lon="4.15383">
        <ele>600.96</ele>
        <time>2022-04-17T08:09:56Z</time>
      </trkpt>
      <trkpt lat="45.46164" lon="4.15417">
        <ele>600.96</ele>
        <time>2022-04-17T08:10:20Z</time>
      </trkpt>
      <trkpt lat="45.46183" lon="4.15449">
        <ele>601.92</ele>
        <time>2022-04-17T08:10:40Z</time>
      </trkpt>
      <trkpt lat="45.46197" lon="4.15478">
        <ele>601.92</ele>
        <time>2022-04-17T08:10:57Z</time>
      </trkpt>
      <trkpt lat="45.46216" lon="4.15518">
        <ele>598.08</ele>
        <time>2022-04-17T08:11:18Z</time>
      </trkpt>
      <trkpt lat="45.46239" lon="4.1554">
        <ele>597.12</ele>
        <time>2022-04-17T08:11:35Z</time>
      </trkpt>
      <trkpt lat="45.46263" lon="4.15558">
        <ele>594.23</ele>
        <time>2022-04-17T08:11:54Z</time>
      </trkpt>
      <trkpt lat="45.4629" lon="4.15574">
        <ele>593.27</ele>
        <time>2022-04-17T08:12:14Z</time>
      </trkpt>
      <trkpt lat="45.46319" lon="4.15592">
        <ele>590.87</ele>
        <time>2022-04-17T08:12:35Z</time>
      </trkpt>
      <trkpt lat="45.46346" lon="4.15612">
        <ele>589.91</ele>
        <time>2022-04-17T08:12:56Z</time>
      </trkpt>
      <trkpt lat="45.46375" lon="4.15628">
        <ele>589.91</ele>
        <time>2022-04-17T08:13:16Z</time>
      </trkpt>
      <trkpt lat="45.46403" lon="4.15645">
        <ele>588.46</ele>
        <time>2022-04-17T08:13:36Z</time>
      </trkpt>
      <trkpt lat="45.46435" lon="4.15658">
        <ele>586.54</ele>
        <time>2022-04-17T08:13:58Z</time>
      </trkpt>
      <trkpt lat="45.46467" lon="4.15666">
        <ele>587.98</ele>
        <time>2022-04-17T08:14:19Z</time>
      </trkpt>
      <trkpt lat="45.46498" lon="4.1567">
        <ele>587.02</ele>
        <time>2022-04-17T08:14:39Z</time>
      </trkpt>
      <trkpt lat="45.46524" lon="4.15684">
        <ele>586.54</ele>
        <time>2022-04-17T08:14:58Z</time>
      </trkpt>
      <trkpt lat="45.46547" lon="4.15702">
        <ele>585.58</ele>
        <time>2022-04-17T08:15:16Z</time>
      </trkpt>
      <trkpt lat="45.4657" lon="4.15723">
        <ele>583.66</ele>
        <time>2022-04-17T08:15:35Z</time>
      </trkpt>
      <trkpt lat="45.46596" lon="4.1575">
        <ele>584.62</ele>
        <time>2022-04-17T08:15:56Z</time>
      </trkpt>
      <trkpt lat="45.46624" lon="4.15769">
        <ele>584.14</ele>
        <time>2022-04-17T08:16:15Z</time>
      </trkpt>
      <trkpt lat="45.46642" lon="4.15795">
        <ele>584.62</ele>
        <time>2022-04-17T08:16:32Z</time>
      </trkpt>
      <trkpt lat="45.46642" lon="4.15797">
        <ele>584.62</ele>
        <time>2022-04-17T08:16:33Z</time>
      </trkpt>
      <trkpt lat="45.46644" lon="4.15814">
        <ele>581.25</ele>
        <time>2022-04-17T08:16:45Z</time>
      </trkpt>
      <trkpt lat="45.4665" lon="4.15842">
        <ele>577.89</ele>
        <time>2022-04-17T08:16:58Z</time>
      </trkpt>
      <trkpt lat="45.46655" lon="4.15868">
        <ele>573.56</ele>
        <time>2022-04-17T08:17:12Z</time>
      </trkpt>
      <trkpt lat="45.46656" lon="4.1587">
        <ele>574.04</ele>
        <time>2022-04-17T08:17:13Z</time>
      </trkpt>
      <trkpt lat="45.46678" lon="4.15908">
        <ele>575.01</ele>
        <time>2022-04-17T08:17:28Z</time>
      </trkpt>
      <trkpt lat="45.46697" lon="4.15936">
        <ele>574.53</ele>
        <time>2022-04-17T08:17:42Z</time>
      </trkpt>
      <trkpt lat="45.46719" lon="4.15968">
        <ele>573.08</ele>
        <time>2022-04-17T08:18:01Z</time>
      </trkpt>
      <trkpt lat="45.46752" lon="4.15993">
        <ele>572.12</ele>
        <time>2022-04-17T08:18:23Z</time>
      </trkpt>
      <trkpt lat="45.46779" lon="4.16015">
        <ele>570.2</ele>
        <time>2022-04-17T08:18:41Z</time>
      </trkpt>
      <trkpt lat="45.46808" lon="4.16037">
        <ele>567.32</ele>
        <time>2022-04-17T08:19:01Z</time>
      </trkpt>
      <trkpt lat="45.46822" lon="4.16045">
        <ele>565.39</ele>
        <time>2022-04-17T08:19:13Z</time>
      </trkpt>
      <trkpt lat="45.46844" lon="4.1606">
        <ele>563.47</ele>
        <time>2022-04-17T08:19:29Z</time>
      </trkpt>
      <trkpt lat="45.46867" lon="4.16063">
        <ele>562.51</ele>
        <time>2022-04-17T08:19:44Z</time>
      </trkpt>
      <trkpt lat="45.46891" lon="4.16061">
        <ele>562.03</ele>
        <time>2022-04-17T08:19:59Z</time>
      </trkpt>
      <trkpt lat="45.46911" lon="4.16065">
        <ele>558.18</ele>
        <time>2022-04-17T08:20:12Z</time>
      </trkpt>
      <trkpt lat="45.46928" lon="4.16065">
        <ele>555.78</ele>
        <time>2022-04-17T08:20:24Z</time>
      </trkpt>
      <trkpt lat="45.46937" lon="4.16089">
        <ele>554.34</ele>
        <time>2022-04-17T08:20:36Z</time>
      </trkpt>
      <trkpt lat="45.46937" lon="4.16122">
        <ele>550.97</ele>
        <time>2022-04-17T08:20:51Z</time>
      </trkpt>
      <trkpt lat="45.4694" lon="4.16159">
        <ele>548.09</ele>
        <time>2022-04-17T08:21:07Z</time>
      </trkpt>
      <trkpt lat="45.46933" lon="4.16191">
        <ele>547.13</ele>
        <time>2022-04-17T08:21:22Z</time>
      </trkpt>
      <trkpt lat="45.46907" lon="4.16214">
        <ele>550.01</ele>
        <time>2022-04-17T08:21:41Z</time>
      </trkpt>
      <trkpt lat="45.46884" lon="4.16234">
        <ele>551.93</ele>
        <time>2022-04-17T08:21:59Z</time>
      </trkpt>
      <trkpt lat="45.46878" lon="4.16237">
        <ele>552.9</ele>
        <time>2022-04-17T08:22:03Z</time>
      </trkpt>
      <trkpt lat="45.46875" lon="4.1624">
        <ele>553.86</ele>
        <time>2022-04-17T08:22:06Z</time>
      </trkpt>
      <trkpt lat="45.46875" lon="4.16249">
        <ele>554.34</ele>
        <time>2022-04-17T08:22:11Z</time>
      </trkpt>
      <trkpt lat="45.46887" lon="4.16286">
        <ele>553.38</ele>
        <time>2022-04-17T08:22:29Z</time>
      </trkpt>
      <trkpt lat="45.46895" lon="4.16324">
        <ele>551.93</ele>
        <time>2022-04-17T08:22:47Z</time>
      </trkpt>
      <trkpt lat="45.46906" lon="4.16356">
        <ele>550.49</ele>
        <time>2022-04-17T08:23:03Z</time>
      </trkpt>
      <trkpt lat="45.46924" lon="4.16389">
        <ele>550.01</ele>
        <time>2022-04-17T08:23:22Z</time>
      </trkpt>
      <trkpt lat="45.46939" lon="4.1642">
        <ele>548.09</ele>
        <time>2022-04-17T08:23:39Z</time>
      </trkpt>
      <trkpt lat="45.46951" lon="4.16446">
        <ele>547.61</ele>
        <time>2022-04-17T08:23:53Z</time>
      </trkpt>
      <trkpt lat="45.46955" lon="4.16477">
        <ele>548.57</ele>
        <time>2022-04-17T08:24:08Z</time>
      </trkpt>
      <trkpt lat="45.4696" lon="4.16512">
        <ele>550.01</ele>
        <time>2022-04-17T08:24:25Z</time>
      </trkpt>
      <trkpt lat="45.46965" lon="4.16548">
        <ele>550.01</ele>
        <time>2022-04-17T08:24:42Z</time>
      </trkpt>
      <trkpt lat="45.46974" lon="4.16581">
        <ele>548.09</ele>
        <time>2022-04-17T08:25:00Z</time>
      </trkpt>
      <trkpt lat="45.46983" lon="4.16608">
        <ele>546.17</ele>
        <time>2022-04-17T08:25:14Z</time>
      </trkpt>
      <trkpt lat="45.46982" lon="4.16625">
        <ele>543.28</ele>
        <time>2022-04-17T08:25:24Z</time>
      </trkpt>
      <trkpt lat="45.46998" lon="4.16639">
        <ele>544.72</ele>
        <time>2022-04-17T08:25:39Z</time>
      </trkpt>
      <trkpt lat="45.47001" lon="4.16644">
        <ele>544.72</ele>
        <time>2022-04-17T08:25:43Z</time>
      </trkpt>
      <trkpt lat="45.47001" lon="4.1666">
        <ele>541.84</ele>
        <time>2022-04-17T08:25:56Z</time>
      </trkpt>
      <trkpt lat="45.47002" lon="4.16661">
        <ele>541.84</ele>
        <time>2022-04-17T08:25:57Z</time>
      </trkpt>
      <trkpt lat="45.4701" lon="4.16688">
        <ele>540.88</ele>
        <time>2022-04-17T08:26:10Z</time>
      </trkpt>
      <trkpt lat="45.47021" lon="4.16709">
        <ele>543.76</ele>
        <time>2022-04-17T08:26:22Z</time>
      </trkpt>
      <trkpt lat="45.47046" lon="4.16722">
        <ele>541.36</ele>
        <time>2022-04-17T08:26:35Z</time>
      </trkpt>
      <trkpt lat="45.47061" lon="4.16726">
        <ele>544.24</ele>
        <time>2022-04-17T08:26:46Z</time>
      </trkpt>
      <trkpt lat="45.47071" lon="4.16725">
        <ele>543.76</ele>
        <time>2022-04-17T08:26:53Z</time>
      </trkpt>
      <trkpt lat="45.47081" lon="4.16726">
        <ele>541.84</ele>
        <time>2022-04-17T08:27:01Z</time>
      </trkpt>
      <trkpt lat="45.47087" lon="4.16727">
        <ele>540.88</ele>
        <time>2022-04-17T08:27:05Z</time>
      </trkpt>
      <trkpt lat="45.47096" lon="4.16731">
        <ele>539.44</ele>
        <time>2022-04-17T08:27:11Z</time>
      </trkpt>
      <trkpt lat="45.47098" lon="4.16751">
        <ele>534.63</ele>
        <time>2022-04-17T08:27:23Z</time>
      </trkpt>
      <trkpt lat="45.47103" lon="4.16776">
        <ele>531.27</ele>
        <time>2022-04-17T08:27:36Z</time>
      </trkpt>
      <trkpt lat="45.47107" lon="4.16791">
        <ele>530.3</ele>
        <time>2022-04-17T08:27:41Z</time>
      </trkpt>
      <trkpt lat="45.47107" lon="4.16795">
        <ele>530.79</ele>
        <time>2022-04-17T08:27:43Z</time>
      </trkpt>
      <trkpt lat="45.47107" lon="4.16803">
        <ele>531.27</ele>
        <time>2022-04-17T08:27:48Z</time>
      </trkpt>
      <trkpt lat="45.47105" lon="4.16846">
        <ele>519.25</ele>
        <time>2022-04-17T08:28:02Z</time>
      </trkpt>
      <trkpt lat="45.47102" lon="4.16848">
        <ele>517.81</ele>
        <time>2022-04-17T08:28:04Z</time>
      </trkpt>
      <trkpt lat="45.47098" lon="4.16851">
        <ele>515.88</ele>
        <time>2022-04-17T08:28:07Z</time>
      </trkpt>
      <trkpt lat="45.47085" lon="4.16884">
        <ele>512.52</ele>
        <time>2022-04-17T08:28:22Z</time>
      </trkpt>
      <trkpt lat="45.47075" lon="4.16915">
        <ele>510.6</ele>
        <time>2022-04-17T08:28:36Z</time>
      </trkpt>
      <trkpt lat="45.47058" lon="4.16937">
        <ele>509.64</ele>
        <time>2022-04-17T08:28:50Z</time>
      </trkpt>
      <trkpt lat="45.47056" lon="4.16961">
        <ele>513</ele>
        <time>2022-04-17T08:29:03Z</time>
      </trkpt>
      <trkpt lat="45.47056" lon="4.1697">
        <ele>513.96</ele>
        <time>2022-04-17T08:29:11Z</time>
      </trkpt>
      <trkpt lat="45.47058" lon="4.1699">
        <ele>515.4</ele>
        <time>2022-04-17T08:29:23Z</time>
      </trkpt>
      <trkpt lat="45.47055" lon="4.1701">
        <ele>514.44</ele>
        <time>2022-04-17T08:29:34Z</time>
      </trkpt>
      <trkpt lat="45.47055" lon="4.17016">
        <ele>513</ele>
        <time>2022-04-17T08:29:37Z</time>
      </trkpt>
      <trkpt lat="45.47049" lon="4.17048">
        <ele>512.04</ele>
        <time>2022-04-17T08:29:51Z</time>
      </trkpt>
      <trkpt lat="45.47049" lon="4.17057">
        <ele>512.52</ele>
        <time>2022-04-17T08:29:54Z</time>
      </trkpt>
      <trkpt lat="45.47051" lon="4.17078">
        <ele>518.77</ele>
        <time>2022-04-17T08:30:03Z</time>
      </trkpt>
      <trkpt lat="45.47046" lon="4.17081">
        <ele>519.25</ele>
        <time>2022-04-17T08:30:07Z</time>
      </trkpt>
      <trkpt lat="45.47044" lon="4.17095">
        <ele>518.77</ele>
        <time>2022-04-17T08:30:13Z</time>
      </trkpt>
      <trkpt lat="45.47042" lon="4.17101">
        <ele>519.25</ele>
        <time>2022-04-17T08:30:17Z</time>
      </trkpt>
      <trkpt lat="45.47039" lon="4.17122">
        <ele>517.81</ele>
        <time>2022-04-17T08:30:27Z</time>
      </trkpt>
      <trkpt lat="45.47038" lon="4.17143">
        <ele>515.88</ele>
        <time>2022-04-17T08:30:35Z</time>
      </trkpt>
      <trkpt lat="45.47034" lon="4.17166">
        <ele>509.64</ele>
        <time>2022-04-17T08:30:47Z</time>
      </trkpt>
      <trkpt lat="45.47033" lon="4.17176">
        <ele>506.75</ele>
        <time>2022-04-17T08:30:51Z</time>
      </trkpt>
      <trkpt lat="45.47028" lon="4.17219">
        <ele>511.08</ele>
        <time>2022-04-17T08:31:04Z</time>
      </trkpt>
      <trkpt lat="45.47015" lon="4.17254">
        <ele>513.96</ele>
        <time>2022-04-17T08:31:18Z</time>
      </trkpt>
      <trkpt lat="45.47002" lon="4.17284">
        <ele>515.4</ele>
        <time>2022-04-17T08:31:32Z</time>
      </trkpt>
      <trkpt lat="45.47001" lon="4.17317">
        <ele>513.48</ele>
        <time>2022-04-17T08:31:47Z</time>
      </trkpt>
      <trkpt lat="45.47003" lon="4.1736">
        <ele>512.04</ele>
        <time>2022-04-17T08:32:05Z</time>
      </trkpt>
      <trkpt lat="45.47009" lon="4.17394">
        <ele>509.64</ele>
        <time>2022-04-17T08:32:19Z</time>
      </trkpt>
      <trkpt lat="45.47011" lon="4.17409">
        <ele>508.67</ele>
        <time>2022-04-17T08:32:25Z</time>
      </trkpt>
      <trkpt lat="45.47011" lon="4.17412">
        <ele>508.67</ele>
        <time>2022-04-17T08:32:26Z</time>
      </trkpt>
      <trkpt lat="45.47011" lon="4.17414">
        <ele>508.19</ele>
        <time>2022-04-17T08:32:27Z</time>
      </trkpt>
      <trkpt lat="45.47014" lon="4.17449">
        <ele>506.27</ele>
        <time>2022-04-17T08:32:41Z</time>
      </trkpt>
      <trkpt lat="45.47012" lon="4.17481">
        <ele>504.83</ele>
        <time>2022-04-17T08:32:57Z</time>
      </trkpt>
      <trkpt lat="45.47" lon="4.17518">
        <ele>504.83</ele>
        <time>2022-04-17T08:33:13Z</time>
      </trkpt>
      <trkpt lat="45.46998" lon="4.17558">
        <ele>505.31</ele>
        <time>2022-04-17T08:33:31Z</time>
      </trkpt>
      <trkpt lat="45.47002" lon="4.17593">
        <ele>506.27</ele>
        <time>2022-04-17T08:33:47Z</time>
      </trkpt>
      <trkpt lat="45.47009" lon="4.17626">
        <ele>507.23</ele>
        <time>2022-04-17T08:34:02Z</time>
      </trkpt>
      <trkpt lat="45.47007" lon="4.1766">
        <ele>506.75</ele>
        <time>2022-04-17T08:34:17Z</time>
      </trkpt>
      <trkpt lat="45.47005" lon="4.17697">
        <ele>503.39</ele>
        <time>2022-04-17T08:34:33Z</time>
      </trkpt>
      <trkpt lat="45.46983" lon="4.17711">
        <ele>501.46</ele>
        <time>2022-04-17T08:34:48Z</time>
      </trkpt>
      <trkpt lat="45.46959" lon="4.17715">
        <ele>501.46</ele>
        <time>2022-04-17T08:35:04Z</time>
      </trkpt>
      <trkpt lat="45.46931" lon="4.17724">
        <ele>500.98</ele>
        <time>2022-04-17T08:35:21Z</time>
      </trkpt>
      <trkpt lat="45.46901" lon="4.17721">
        <ele>499.54</ele>
        <time>2022-04-17T08:35:40Z</time>
      </trkpt>
      <trkpt lat="45.46883" lon="4.17723">
        <ele>499.54</ele>
        <time>2022-04-17T08:35:54Z</time>
      </trkpt>
      <trkpt lat="45.46852" lon="4.17739">
        <ele>496.18</ele>
        <time>2022-04-17T08:36:12Z</time>
      </trkpt>
      <trkpt lat="45.46831" lon="4.17745">
        <ele>493.77</ele>
        <time>2022-04-17T08:36:25Z</time>
      </trkpt>
      <trkpt lat="45.46812" lon="4.17753">
        <ele>489.45</ele>
        <time>2022-04-17T08:36:39Z</time>
      </trkpt>
      <trkpt lat="45.46789" lon="4.17765">
        <ele>487.05</ele>
        <time>2022-04-17T08:36:54Z</time>
      </trkpt>
      <trkpt lat="45.46766" lon="4.17775">
        <ele>485.6</ele>
        <time>2022-04-17T08:37:08Z</time>
      </trkpt>
      <trkpt lat="45.46742" lon="4.17774">
        <ele>486.08</ele>
        <time>2022-04-17T08:37:23Z</time>
      </trkpt>
      <trkpt lat="45.4671" lon="4.17765">
        <ele>485.6</ele>
        <time>2022-04-17T08:37:42Z</time>
      </trkpt>
      <trkpt lat="45.4669" lon="4.17767">
        <ele>483.68</ele>
        <time>2022-04-17T08:37:55Z</time>
      </trkpt>
      <trkpt lat="45.46664" lon="4.17775">
        <ele>480.32</ele>
        <time>2022-04-17T08:38:11Z</time>
      </trkpt>
      <trkpt lat="45.46634" lon="4.17777">
        <ele>479.84</ele>
        <time>2022-04-17T08:38:29Z</time>
      </trkpt>
      <trkpt lat="45.4661" lon="4.17777">
        <ele>478.87</ele>
        <time>2022-04-17T08:38:44Z</time>
      </trkpt>
      <trkpt lat="45.46585" lon="4.1777">
        <ele>478.39</ele>
        <time>2022-04-17T08:39:02Z</time>
      </trkpt>
      <trkpt lat="45.46566" lon="4.17769">
        <ele>475.99</ele>
        <time>2022-04-17T08:39:14Z</time>
      </trkpt>
      <trkpt lat="45.46547" lon="4.17754">
        <ele>474.07</ele>
        <time>2022-04-17T08:39:28Z</time>
      </trkpt>
      <trkpt lat="45.46521" lon="4.17737">
        <ele>473.59</ele>
        <time>2022-04-17T08:39:44Z</time>
      </trkpt>
      <trkpt lat="45.46511" lon="4.1773">
        <ele>473.59</ele>
        <time>2022-04-17T08:39:50Z</time>
      </trkpt>
      <trkpt lat="45.4651" lon="4.17729">
        <ele>473.11</ele>
        <time>2022-04-17T08:39:51Z</time>
      </trkpt>
      <trkpt lat="45.46508" lon="4.17728">
        <ele>473.59</ele>
        <time>2022-04-17T08:39:52Z</time>
      </trkpt>
      <trkpt lat="45.46506" lon="4.17727">
        <ele>473.59</ele>
        <time>2022-04-17T08:39:53Z</time>
      </trkpt>
      <trkpt lat="45.46505" lon="4.17726">
        <ele>473.59</ele>
        <time>2022-04-17T08:39:54Z</time>
      </trkpt>
      <trkpt lat="45.46491" lon="4.17712">
        <ele>474.07</ele>
        <time>2022-04-17T08:40:04Z</time>
      </trkpt>
      <trkpt lat="45.4649" lon="4.17709">
        <ele>473.59</ele>
        <time>2022-04-17T08:40:05Z</time>
      </trkpt>
      <trkpt lat="45.4649" lon="4.17707">
        <ele>473.11</ele>
        <time>2022-04-17T08:40:06Z</time>
      </trkpt>
      <trkpt lat="45.4649" lon="4.17704">
        <ele>472.63</ele>
        <time>2022-04-17T08:40:07Z</time>
      </trkpt>
      <trkpt lat="45.4649" lon="4.17702">
        <ele>472.14</ele>
        <time>2022-04-17T08:40:08Z</time>
      </trkpt>
      <trkpt lat="45.4649" lon="4.177">
        <ele>471.66</ele>
        <time>2022-04-17T08:40:09Z</time>
      </trkpt>
      <trkpt lat="45.46504" lon="4.1767">
        <ele>466.86</ele>
        <time>2022-04-17T08:40:25Z</time>
      </trkpt>
      <trkpt lat="45.46512" lon="4.17657">
        <ele>465.9</ele>
        <time>2022-04-17T08:40:34Z</time>
      </trkpt>
      <trkpt lat="45.46514" lon="4.17654">
        <ele>466.38</ele>
        <time>2022-04-17T08:40:36Z</time>
      </trkpt>
      <trkpt lat="45.46515" lon="4.17652">
        <ele>466.38</ele>
        <time>2022-04-17T08:40:37Z</time>
      </trkpt>
      <trkpt lat="45.46515" lon="4.1765">
        <ele>466.38</ele>
        <time>2022-04-17T08:40:38Z</time>
      </trkpt>
      <trkpt lat="45.46518" lon="4.17639">
        <ele>466.38</ele>
        <time>2022-04-17T08:40:44Z</time>
      </trkpt>
      <trkpt lat="45.46517" lon="4.17637">
        <ele>466.38</ele>
        <time>2022-04-17T08:40:45Z</time>
      </trkpt>
      <trkpt lat="45.46517" lon="4.17635">
        <ele>466.38</ele>
        <time>2022-04-17T08:40:46Z</time>
      </trkpt>
      <trkpt lat="45.46517" lon="4.17632">
        <ele>466.38</ele>
        <time>2022-04-17T08:40:48Z</time>
      </trkpt>
      <trkpt lat="45.46517" lon="4.1763">
        <ele>466.38</ele>
        <time>2022-04-17T08:40:49Z</time>
      </trkpt>
      <trkpt lat="45.46517" lon="4.17622">
        <ele>465.9</ele>
        <time>2022-04-17T08:40:54Z</time>
      </trkpt>
      <trkpt lat="45.46516" lon="4.1762">
        <ele>465.42</ele>
        <time>2022-04-17T08:40:55Z</time>
      </trkpt>
      <trkpt lat="45.46515" lon="4.17619">
        <ele>464.93</ele>
        <time>2022-04-17T08:40:56Z</time>
      </trkpt>
      <trkpt lat="45.46514" lon="4.17618">
        <ele>464.45</ele>
        <time>2022-04-17T08:40:57Z</time>
      </trkpt>
      <trkpt lat="45.46513" lon="4.17616">
        <ele>464.45</ele>
        <time>2022-04-17T08:40:58Z</time>
      </trkpt>
      <trkpt lat="45.46512" lon="4.17614">
        <ele>463.97</ele>
        <time>2022-04-17T08:40:59Z</time>
      </trkpt>
      <trkpt lat="45.46511" lon="4.17612">
        <ele>463.49</ele>
        <time>2022-04-17T08:41:00Z</time>
      </trkpt>
      <trkpt lat="45.4651" lon="4.17609">
        <ele>463.01</ele>
        <time>2022-04-17T08:41:01Z</time>
      </trkpt>
      <trkpt lat="45.46509" lon="4.17607">
        <ele>462.53</ele>
        <time>2022-04-17T08:41:02Z</time>
      </trkpt>
      <trkpt lat="45.46508" lon="4.17605">
        <ele>462.53</ele>
        <time>2022-04-17T08:41:03Z</time>
      </trkpt>
      <trkpt lat="45.46507" lon="4.17603">
        <ele>462.05</ele>
        <time>2022-04-17T08:41:04Z</time>
      </trkpt>
      <trkpt lat="45.46507" lon="4.176">
        <ele>462.05</ele>
        <time>2022-04-17T08:41:05Z</time>
      </trkpt>
      <trkpt lat="45.46499" lon="4.17573">
        <ele>458.69</ele>
        <time>2022-04-17T08:41:18Z</time>
      </trkpt>
      <trkpt lat="45.46499" lon="4.17571">
        <ele>458.69</ele>
        <time>2022-04-17T08:41:19Z</time>
      </trkpt>
      <trkpt lat="45.465" lon="4.17566">
        <ele>458.21</ele>
        <time>2022-04-17T08:41:21Z</time>
      </trkpt>
      <trkpt lat="45.46499" lon="4.17565">
        <ele>458.21</ele>
        <time>2022-04-17T08:41:22Z</time>
      </trkpt>
      <trkpt lat="45.46499" lon="4.17561">
        <ele>457.24</ele>
        <time>2022-04-17T08:41:24Z</time>
      </trkpt>
      <trkpt lat="45.46499" lon="4.17559">
        <ele>457.24</ele>
        <time>2022-04-17T08:41:25Z</time>
      </trkpt>
      <trkpt lat="45.465" lon="4.17558">
        <ele>456.76</ele>
        <time>2022-04-17T08:41:26Z</time>
      </trkpt>
      <trkpt lat="45.46501" lon="4.17556">
        <ele>456.28</ele>
        <time>2022-04-17T08:41:27Z</time>
      </trkpt>
      <trkpt lat="45.46506" lon="4.17538">
        <ele>451.96</ele>
        <time>2022-04-17T08:41:39Z</time>
      </trkpt>
      <trkpt lat="45.4651" lon="4.17533">
        <ele>449.55</ele>
        <time>2022-04-17T08:41:58Z</time>
      </trkpt>
      <trkpt lat="45.46513" lon="4.17526">
        <ele>448.59</ele>
        <time>2022-04-17T08:42:11Z</time>
      </trkpt>
      <trkpt lat="45.46513" lon="4.17523">
        <ele>453.4</ele>
        <time>2022-04-17T08:42:32Z</time>
      </trkpt>
      <trkpt lat="45.46515" lon="4.1752">
        <ele>455.32</ele>
        <time>2022-04-17T08:43:03Z</time>
      </trkpt>
      <trkpt lat="45.46514" lon="4.17525">
        <ele>459.17</ele>
        <time>2022-04-17T08:43:18Z</time>
      </trkpt>
      <trkpt lat="45.46512" lon="4.17521">
        <ele>459.65</ele>
        <time>2022-04-17T08:43:22Z</time>
      </trkpt>
      <trkpt lat="45.46512" lon="4.17516">
        <ele>460.61</ele>
        <time>2022-04-17T08:43:25Z</time>
      </trkpt>
      <trkpt lat="45.46513" lon="4.17505">
        <ele>462.53</ele>
        <time>2022-04-17T08:43:32Z</time>
      </trkpt>
      <trkpt lat="45.46514" lon="4.17503">
        <ele>463.01</ele>
        <time>2022-04-17T08:43:33Z</time>
      </trkpt>
      <trkpt lat="45.46515" lon="4.175">
        <ele>463.49</ele>
        <time>2022-04-17T08:43:35Z</time>
      </trkpt>
      <trkpt lat="45.46516" lon="4.17498">
        <ele>463.97</ele>
        <time>2022-04-17T08:43:36Z</time>
      </trkpt>
      <trkpt lat="45.46517" lon="4.17497">
        <ele>463.97</ele>
        <time>2022-04-17T08:43:37Z</time>
      </trkpt>
      <trkpt lat="45.46526" lon="4.17481">
        <ele>467.82</ele>
        <time>2022-04-17T08:43:49Z</time>
      </trkpt>
      <trkpt lat="45.46527" lon="4.17479">
        <ele>468.3</ele>
        <time>2022-04-17T08:43:50Z</time>
      </trkpt>
      <trkpt lat="45.46527" lon="4.17477">
        <ele>468.78</ele>
        <time>2022-04-17T08:43:51Z</time>
      </trkpt>
      <trkpt lat="45.46531" lon="4.17473">
        <ele>468.78</ele>
        <time>2022-04-17T08:43:54Z</time>
      </trkpt>
      <trkpt lat="45.4654" lon="4.17439">
        <ele>472.63</ele>
        <time>2022-04-17T08:44:11Z</time>
      </trkpt>
      <trkpt lat="45.4654" lon="4.17434">
        <ele>473.59</ele>
        <time>2022-04-17T08:44:14Z</time>
      </trkpt>
      <trkpt lat="45.46527" lon="4.17413">
        <ele>478.87</ele>
        <time>2022-04-17T08:44:30Z</time>
      </trkpt>
      <trkpt lat="45.46501" lon="4.17402">
        <ele>476.47</ele>
        <time>2022-04-17T08:44:48Z</time>
      </trkpt>
      <trkpt lat="45.46482" lon="4.17417">
        <ele>477.91</ele>
        <time>2022-04-17T08:45:03Z</time>
      </trkpt>
      <trkpt lat="45.46472" lon="4.17438">
        <ele>477.91</ele>
        <time>2022-04-17T08:45:16Z</time>
      </trkpt>
      <trkpt lat="45.46465" lon="4.17449">
        <ele>476.95</ele>
        <time>2022-04-17T08:45:23Z</time>
      </trkpt>
      <trkpt lat="45.46463" lon="4.17455">
        <ele>477.91</ele>
        <time>2022-04-17T08:45:26Z</time>
      </trkpt>
      <trkpt lat="45.46462" lon="4.17456">
        <ele>477.43</ele>
        <time>2022-04-17T08:45:27Z</time>
      </trkpt>
      <trkpt lat="45.46461" lon="4.17458">
        <ele>477.43</ele>
        <time>2022-04-17T08:45:28Z</time>
      </trkpt>
      <trkpt lat="45.4646" lon="4.17459">
        <ele>476.95</ele>
        <time>2022-04-17T08:45:29Z</time>
      </trkpt>
      <trkpt lat="45.46459" lon="4.17461">
        <ele>476.95</ele>
        <time>2022-04-17T08:45:30Z</time>
      </trkpt>
      <trkpt lat="45.46453" lon="4.17487">
        <ele>477.43</ele>
        <time>2022-04-17T08:45:44Z</time>
      </trkpt>
      <trkpt lat="45.46452" lon="4.17491">
        <ele>477.43</ele>
        <time>2022-04-17T08:45:46Z</time>
      </trkpt>
      <trkpt lat="45.46452" lon="4.17493">
        <ele>477.91</ele>
        <time>2022-04-17T08:45:47Z</time>
      </trkpt>
      <trkpt lat="45.46452" lon="4.17496">
        <ele>478.39</ele>
        <time>2022-04-17T08:45:48Z</time>
      </trkpt>
      <trkpt lat="45.46452" lon="4.17497">
        <ele>478.39</ele>
        <time>2022-04-17T08:45:49Z</time>
      </trkpt>
      <trkpt lat="45.46451" lon="4.17499">
        <ele>478.87</ele>
        <time>2022-04-17T08:45:50Z</time>
      </trkpt>
      <trkpt lat="45.4645" lon="4.17499">
        <ele>478.87</ele>
        <time>2022-04-17T08:45:51Z</time>
      </trkpt>
      <trkpt lat="45.46449" lon="4.175">
        <ele>479.35</ele>
        <time>2022-04-17T08:45:52Z</time>
      </trkpt>
      <trkpt lat="45.4643" lon="4.1752">
        <ele>485.6</ele>
        <time>2022-04-17T08:46:07Z</time>
      </trkpt>
      <trkpt lat="45.46425" lon="4.17523">
        <ele>487.05</ele>
        <time>2022-04-17T08:46:10Z</time>
      </trkpt>
      <trkpt lat="45.46424" lon="4.17524">
        <ele>487.53</ele>
        <time>2022-04-17T08:46:11Z</time>
      </trkpt>
      <trkpt lat="45.46422" lon="4.17524">
        <ele>487.53</ele>
        <time>2022-04-17T08:46:12Z</time>
      </trkpt>
      <trkpt lat="45.46394" lon="4.17515">
        <ele>487.53</ele>
        <time>2022-04-17T08:46:30Z</time>
      </trkpt>
      <trkpt lat="45.46371" lon="4.1751">
        <ele>491.37</ele>
        <time>2022-04-17T08:46:45Z</time>
      </trkpt>
      <trkpt lat="45.46367" lon="4.17511">
        <ele>492.33</ele>
        <time>2022-04-17T08:46:47Z</time>
      </trkpt>
      <trkpt lat="45.46365" lon="4.17511">
        <ele>492.33</ele>
        <time>2022-04-17T08:46:48Z</time>
      </trkpt>
      <trkpt lat="45.46363" lon="4.1751">
        <ele>492.81</ele>
        <time>2022-04-17T08:46:49Z</time>
      </trkpt>
      <trkpt lat="45.46351" lon="4.17503">
        <ele>493.29</ele>
        <time>2022-04-17T08:46:58Z</time>
      </trkpt>
      <trkpt lat="45.4635" lon="4.17502">
        <ele>493.29</ele>
        <time>2022-04-17T08:46:59Z</time>
      </trkpt>
      <trkpt lat="45.46349" lon="4.17501">
        <ele>493.29</ele>
        <time>2022-04-17T08:47:00Z</time>
      </trkpt>
      <trkpt lat="45.46347" lon="4.175">
        <ele>493.77</ele>
        <time>2022-04-17T08:47:01Z</time>
      </trkpt>
      <trkpt lat="45.46346" lon="4.175">
        <ele>493.77</ele>
        <time>2022-04-17T08:47:02Z</time>
      </trkpt>
      <trkpt lat="45.46345" lon="4.17499">
        <ele>494.26</ele>
        <time>2022-04-17T08:47:03Z</time>
      </trkpt>
      <trkpt lat="45.46343" lon="4.17499">
        <ele>494.74</ele>
        <time>2022-04-17T08:47:04Z</time>
      </trkpt>
      <trkpt lat="45.4632" lon="4.17488">
        <ele>497.62</ele>
        <time>2022-04-17T08:47:20Z</time>
      </trkpt>
      <trkpt lat="45.46294" lon="4.17484">
        <ele>503.39</ele>
        <time>2022-04-17T08:47:38Z</time>
      </trkpt>
      <trkpt lat="45.46274" lon="4.17481">
        <ele>506.75</ele>
        <time>2022-04-17T08:47:52Z</time>
      </trkpt>
      <trkpt lat="45.46253" lon="4.17469">
        <ele>509.16</ele>
        <time>2022-04-17T08:48:07Z</time>
      </trkpt>
      <trkpt lat="45.4623" lon="4.1746">
        <ele>511.08</ele>
        <time>2022-04-17T08:48:23Z</time>
      </trkpt>
      <trkpt lat="45.46207" lon="4.17452">
        <ele>513.48</ele>
        <time>2022-04-17T08:48:39Z</time>
      </trkpt>
      <trkpt lat="45.46183" lon="4.17444">
        <ele>517.81</ele>
        <time>2022-04-17T08:48:55Z</time>
      </trkpt>
      <trkpt lat="45.4616" lon="4.17443">
        <ele>523.09</ele>
        <time>2022-04-17T08:49:11Z</time>
      </trkpt>
      <trkpt lat="45.46158" lon="4.17445">
        <ele>524.06</ele>
        <time>2022-04-17T08:49:13Z</time>
      </trkpt>
      <trkpt lat="45.46157" lon="4.17446">
        <ele>524.06</ele>
        <time>2022-04-17T08:49:14Z</time>
      </trkpt>
      <trkpt lat="45.46157" lon="4.17447">
        <ele>524.54</ele>
        <time>2022-04-17T08:49:15Z</time>
      </trkpt>
      <trkpt lat="45.46141" lon="4.17468">
        <ele>524.54</ele>
        <time>2022-04-17T08:49:31Z</time>
      </trkpt>
      <trkpt lat="45.46123" lon="4.17482">
        <ele>523.58</ele>
        <time>2022-04-17T08:49:47Z</time>
      </trkpt>
      <trkpt lat="45.46119" lon="4.17483">
        <ele>522.61</ele>
        <time>2022-04-17T08:49:50Z</time>
      </trkpt>
      <trkpt lat="45.46102" lon="4.17493">
        <ele>521.17</ele>
        <time>2022-04-17T08:50:04Z</time>
      </trkpt>
      <trkpt lat="45.46095" lon="4.17498">
        <ele>521.17</ele>
        <time>2022-04-17T08:50:10Z</time>
      </trkpt>
      <trkpt lat="45.46075" lon="4.17514">
        <ele>523.09</ele>
        <time>2022-04-17T08:50:25Z</time>
      </trkpt>
      <trkpt lat="45.46069" lon="4.17518">
        <ele>522.61</ele>
        <time>2022-04-17T08:50:30Z</time>
      </trkpt>
      <trkpt lat="45.4605" lon="4.17523">
        <ele>518.29</ele>
        <time>2022-04-17T08:50:44Z</time>
      </trkpt>
      <trkpt lat="45.46035" lon="4.17537">
        <ele>516.85</ele>
        <time>2022-04-17T08:50:57Z</time>
      </trkpt>
      <trkpt lat="45.46033" lon="4.17538">
        <ele>516.85</ele>
        <time>2022-04-17T08:50:58Z</time>
      </trkpt>
      <trkpt lat="45.46018" lon="4.17558">
        <ele>513.96</ele>
        <time>2022-04-17T08:51:12Z</time>
      </trkpt>
      <trkpt lat="45.45996" lon="4.17581">
        <ele>511.08</ele>
        <time>2022-04-17T08:51:28Z</time>
      </trkpt>
      <trkpt lat="45.45976" lon="4.17596">
        <ele>508.19</ele>
        <time>2022-04-17T08:51:41Z</time>
      </trkpt>
      <trkpt lat="45.45951" lon="4.17613">
        <ele>503.87</ele>
        <time>2022-04-17T08:51:57Z</time>
      </trkpt>
      <trkpt lat="45.45931" lon="4.17646">
        <ele>500.02</ele>
        <time>2022-04-17T08:52:14Z</time>
      </trkpt>
      <trkpt lat="45.45918" lon="4.17686">
        <ele>493.29</ele>
        <time>2022-04-17T08:52:34Z</time>
      </trkpt>
      <trkpt lat="45.45901" lon="4.17714">
        <ele>488.97</ele>
        <time>2022-04-17T08:52:53Z</time>
      </trkpt>
      <trkpt lat="45.45876" lon="4.17707">
        <ele>483.68</ele>
        <time>2022-04-17T08:53:10Z</time>
      </trkpt>
      <trkpt lat="45.45856" lon="4.17685">
        <ele>479.84</ele>
        <time>2022-04-17T08:53:26Z</time>
      </trkpt>
      <trkpt lat="45.45833" lon="4.17675">
        <ele>477.43</ele>
        <time>2022-04-17T08:53:41Z</time>
      </trkpt>
      <trkpt lat="45.45807" lon="4.17664">
        <ele>473.11</ele>
        <time>2022-04-17T08:53:57Z</time>
      </trkpt>
      <trkpt lat="45.45776" lon="4.17669">
        <ele>475.51</ele>
        <time>2022-04-17T08:54:14Z</time>
      </trkpt>
      <trkpt lat="45.45768" lon="4.17674">
        <ele>475.03</ele>
        <time>2022-04-17T08:54:19Z</time>
      </trkpt>
      <trkpt lat="45.45766" lon="4.17675">
        <ele>475.03</ele>
        <time>2022-04-17T08:54:20Z</time>
      </trkpt>
      <trkpt lat="45.45765" lon="4.17676">
        <ele>475.03</ele>
        <time>2022-04-17T08:54:21Z</time>
      </trkpt>
      <trkpt lat="45.45756" lon="4.17681">
        <ele>475.51</ele>
        <time>2022-04-17T08:54:26Z</time>
      </trkpt>
      <trkpt lat="45.45754" lon="4.17681">
        <ele>475.99</ele>
        <time>2022-04-17T08:54:27Z</time>
      </trkpt>
      <trkpt lat="45.45739" lon="4.17689">
        <ele>475.99</ele>
        <time>2022-04-17T08:54:37Z</time>
      </trkpt>
      <trkpt lat="45.45738" lon="4.17689">
        <ele>475.99</ele>
        <time>2022-04-17T08:54:38Z</time>
      </trkpt>
      <trkpt lat="45.45737" lon="4.17689">
        <ele>475.99</ele>
        <time>2022-04-17T08:54:39Z</time>
      </trkpt>
      <trkpt lat="45.45735" lon="4.17689">
        <ele>475.99</ele>
        <time>2022-04-17T08:54:40Z</time>
      </trkpt>
      <trkpt lat="45.45734" lon="4.17689">
        <ele>475.99</ele>
        <time>2022-04-17T08:54:41Z</time>
      </trkpt>
      <trkpt lat="45.45732" lon="4.17689">
        <ele>475.99</ele>
        <time>2022-04-17T08:54:42Z</time>
      </trkpt>
      <trkpt lat="45.45709" lon="4.17689">
        <ele>477.43</ele>
        <time>2022-04-17T08:54:57Z</time>
      </trkpt>
      <trkpt lat="45.45694" lon="4.17689">
        <ele>480.32</ele>
        <time>2022-04-17T08:55:11Z</time>
      </trkpt>
      <trkpt lat="45.45678" lon="4.1769">
        <ele>479.84</ele>
        <time>2022-04-17T08:55:23Z</time>
      </trkpt>
      <trkpt lat="45.45673" lon="4.17691">
        <ele>479.35</ele>
        <time>2022-04-17T08:55:28Z</time>
      </trkpt>
      <trkpt lat="45.45645" lon="4.17695">
        <ele>482.72</ele>
        <time>2022-04-17T08:55:44Z</time>
      </trkpt>
      <trkpt lat="45.45618" lon="4.17698">
        <ele>487.05</ele>
        <time>2022-04-17T08:56:01Z</time>
      </trkpt>
      <trkpt lat="45.45594" lon="4.17698">
        <ele>492.81</ele>
        <time>2022-04-17T08:56:18Z</time>
      </trkpt>
      <trkpt lat="45.45568" lon="4.17702">
        <ele>496.66</ele>
        <time>2022-04-17T08:56:35Z</time>
      </trkpt>
      <trkpt lat="45.45545" lon="4.17704">
        <ele>499.54</ele>
        <time>2022-04-17T08:56:51Z</time>
      </trkpt>
      <trkpt lat="45.45523" lon="4.17708">
        <ele>499.54</ele>
        <time>2022-04-17T08:57:07Z</time>
      </trkpt>
      <trkpt lat="45.4552" lon="4.17713">
        <ele>498.58</ele>
        <time>2022-04-17T08:57:12Z</time>
      </trkpt>
      <trkpt lat="45.4552" lon="4.17716">
        <ele>499.06</ele>
        <time>2022-04-17T08:57:13Z</time>
      </trkpt>
      <trkpt lat="45.4552" lon="4.17718">
        <ele>499.06</ele>
        <time>2022-04-17T08:57:14Z</time>
      </trkpt>
      <trkpt lat="45.45521" lon="4.17719">
        <ele>499.54</ele>
        <time>2022-04-17T08:57:15Z</time>
      </trkpt>
      <trkpt lat="45.45522" lon="4.1772">
        <ele>500.02</ele>
        <time>2022-04-17T08:57:16Z</time>
      </trkpt>
      <trkpt lat="45.45523" lon="4.17721">
        <ele>500.02</ele>
        <time>2022-04-17T08:57:17Z</time>
      </trkpt>
      <trkpt lat="45.45524" lon="4.17721">
        <ele>500.02</ele>
        <time>2022-04-17T08:57:18Z</time>
      </trkpt>
      <trkpt lat="45.4554" lon="4.17733">
        <ele>501.95</ele>
        <time>2022-04-17T08:57:33Z</time>
      </trkpt>
      <trkpt lat="45.45557" lon="4.17749">
        <ele>503.39</ele>
        <time>2022-04-17T08:57:47Z</time>
      </trkpt>
      <trkpt lat="45.45576" lon="4.17764">
        <ele>505.31</ele>
        <time>2022-04-17T08:57:59Z</time>
      </trkpt>
      <trkpt lat="45.45593" lon="4.17783">
        <ele>507.23</ele>
        <time>2022-04-17T08:58:15Z</time>
      </trkpt>
      <trkpt lat="45.45606" lon="4.17809">
        <ele>508.67</ele>
        <time>2022-04-17T08:58:30Z</time>
      </trkpt>
      <trkpt lat="45.45612" lon="4.17841">
        <ele>509.64</ele>
        <time>2022-04-17T08:58:45Z</time>
      </trkpt>
      <trkpt lat="45.4562" lon="4.17875">
        <ele>511.56</ele>
        <time>2022-04-17T08:59:02Z</time>
      </trkpt>
      <trkpt lat="45.45633" lon="4.17916">
        <ele>515.88</ele>
        <time>2022-04-17T08:59:22Z</time>
      </trkpt>
      <trkpt lat="45.45634" lon="4.17918">
        <ele>516.37</ele>
        <time>2022-04-17T08:59:23Z</time>
      </trkpt>
      <trkpt lat="45.45634" lon="4.1792">
        <ele>516.37</ele>
        <time>2022-04-17T08:59:24Z</time>
      </trkpt>
      <trkpt lat="45.45635" lon="4.17921">
        <ele>516.85</ele>
        <time>2022-04-17T08:59:25Z</time>
      </trkpt>
      <trkpt lat="45.45635" lon="4.17923">
        <ele>517.33</ele>
        <time>2022-04-17T08:59:26Z</time>
      </trkpt>
      <trkpt lat="45.45636" lon="4.17925">
        <ele>517.33</ele>
        <time>2022-04-17T08:59:27Z</time>
      </trkpt>
      <trkpt lat="45.45637" lon="4.17927">
        <ele>517.81</ele>
        <time>2022-04-17T08:59:28Z</time>
      </trkpt>
      <trkpt lat="45.45645" lon="4.1794">
        <ele>520.69</ele>
        <time>2022-04-17T08:59:36Z</time>
      </trkpt>
      <trkpt lat="45.45646" lon="4.17944">
        <ele>521.17</ele>
        <time>2022-04-17T08:59:38Z</time>
      </trkpt>
      <trkpt lat="45.45646" lon="4.17955">
        <ele>521.17</ele>
        <time>2022-04-17T08:59:43Z</time>
      </trkpt>
      <trkpt lat="45.45647" lon="4.17957">
        <ele>521.17</ele>
        <time>2022-04-17T08:59:44Z</time>
      </trkpt>
      <trkpt lat="45.4565" lon="4.17959">
        <ele>522.13</ele>
        <time>2022-04-17T08:59:45Z</time>
      </trkpt>
      <trkpt lat="45.45651" lon="4.17962">
        <ele>522.13</ele>
        <time>2022-04-17T08:59:46Z</time>
      </trkpt>
      <trkpt lat="45.45652" lon="4.17965">
        <ele>522.61</ele>
        <time>2022-04-17T08:59:47Z</time>
      </trkpt>
      <trkpt lat="45.45652" lon="4.17968">
        <ele>522.61</ele>
        <time>2022-04-17T08:59:48Z</time>
      </trkpt>
      <trkpt lat="45.45652" lon="4.17971">
        <ele>522.61</ele>
        <time>2022-04-17T08:59:49Z</time>
      </trkpt>
      <trkpt lat="45.45664" lon="4.17998">
        <ele>528.38</ele>
        <time>2022-04-17T09:00:02Z</time>
      </trkpt>
      <trkpt lat="45.45659" lon="4.18031">
        <ele>532.23</ele>
        <time>2022-04-17T09:00:18Z</time>
      </trkpt>
      <trkpt lat="45.45657" lon="4.18041">
        <ele>532.23</ele>
        <time>2022-04-17T09:00:23Z</time>
      </trkpt>
      <trkpt lat="45.45652" lon="4.18069">
        <ele>532.23</ele>
        <time>2022-04-17T09:00:37Z</time>
      </trkpt>
      <trkpt lat="45.45636" lon="4.18082">
        <ele>537.03</ele>
        <time>2022-04-17T09:00:50Z</time>
      </trkpt>
      <trkpt lat="45.45634" lon="4.1808">
        <ele>537.51</ele>
        <time>2022-04-17T09:00:52Z</time>
      </trkpt>
      <trkpt lat="45.4561" lon="4.18063">
        <ele>544.24</ele>
        <time>2022-04-17T09:01:09Z</time>
      </trkpt>
      <trkpt lat="45.45589" lon="4.18035">
        <ele>551.45</ele>
        <time>2022-04-17T09:01:27Z</time>
      </trkpt>
      <trkpt lat="45.45564" lon="4.18013">
        <ele>558.18</ele>
        <time>2022-04-17T09:01:47Z</time>
      </trkpt>
      <trkpt lat="45.45547" lon="4.17996">
        <ele>563.47</ele>
        <time>2022-04-17T09:02:00Z</time>
      </trkpt>
      <trkpt lat="45.45546" lon="4.17963">
        <ele>566.83</ele>
        <time>2022-04-17T09:02:16Z</time>
      </trkpt>
      <trkpt lat="45.45553" lon="4.17934">
        <ele>568.76</ele>
        <time>2022-04-17T09:02:31Z</time>
      </trkpt>
      <trkpt lat="45.45541" lon="4.17908">
        <ele>569.24</ele>
        <time>2022-04-17T09:02:45Z</time>
      </trkpt>
      <trkpt lat="45.45517" lon="4.17911">
        <ele>573.56</ele>
        <time>2022-04-17T09:03:01Z</time>
      </trkpt>
      <trkpt lat="45.45515" lon="4.17911">
        <ele>574.04</ele>
        <time>2022-04-17T09:03:03Z</time>
      </trkpt>
      <trkpt lat="45.45488" lon="4.1791">
        <ele>578.37</ele>
        <time>2022-04-17T09:03:20Z</time>
      </trkpt>
      <trkpt lat="45.45463" lon="4.17901">
        <ele>577.89</ele>
        <time>2022-04-17T09:03:38Z</time>
      </trkpt>
      <trkpt lat="45.45431" lon="4.17892">
        <ele>579.81</ele>
        <time>2022-04-17T09:03:59Z</time>
      </trkpt>
      <trkpt lat="45.45406" lon="4.17892">
        <ele>582.22</ele>
        <time>2022-04-17T09:04:17Z</time>
      </trkpt>
      <trkpt lat="45.45385" lon="4.17892">
        <ele>584.62</ele>
        <time>2022-04-17T09:04:31Z</time>
      </trkpt>
      <trkpt lat="45.4536" lon="4.17881">
        <ele>586.54</ele>
        <time>2022-04-17T09:04:48Z</time>
      </trkpt>
      <trkpt lat="45.45334" lon="4.17872">
        <ele>588.95</ele>
        <time>2022-04-17T09:05:05Z</time>
      </trkpt>
      <trkpt lat="45.45308" lon="4.17867">
        <ele>590.87</ele>
        <time>2022-04-17T09:05:22Z</time>
      </trkpt>
      <trkpt lat="45.45278" lon="4.17857">
        <ele>595.19</ele>
        <time>2022-04-17T09:05:42Z</time>
      </trkpt>
      <trkpt lat="45.45255" lon="4.1785">
        <ele>596.64</ele>
        <time>2022-04-17T09:05:59Z</time>
      </trkpt>
      <trkpt lat="45.45233" lon="4.1784">
        <ele>598.08</ele>
        <time>2022-04-17T09:06:15Z</time>
      </trkpt>
      <trkpt lat="45.45205" lon="4.17839">
        <ele>603.36</ele>
        <time>2022-04-17T09:06:33Z</time>
      </trkpt>
      <trkpt lat="45.45182" lon="4.17844">
        <ele>610.09</ele>
        <time>2022-04-17T09:06:47Z</time>
      </trkpt>
      <trkpt lat="45.45156" lon="4.17847">
        <ele>614.9</ele>
        <time>2022-04-17T09:07:06Z</time>
      </trkpt>
      <trkpt lat="45.45129" lon="4.17841">
        <ele>616.82</ele>
        <time>2022-04-17T09:07:25Z</time>
      </trkpt>
      <trkpt lat="45.45101" lon="4.17834">
        <ele>615.86</ele>
        <time>2022-04-17T09:07:44Z</time>
      </trkpt>
      <trkpt lat="45.45077" lon="4.17845">
        <ele>615.86</ele>
        <time>2022-04-17T09:08:02Z</time>
      </trkpt>
      <trkpt lat="45.45075" lon="4.17854">
        <ele>615.86</ele>
        <time>2022-04-17T09:08:08Z</time>
      </trkpt>
      <trkpt lat="45.45065" lon="4.17877">
        <ele>612.98</ele>
        <time>2022-04-17T09:08:24Z</time>
      </trkpt>
      <trkpt lat="45.45049" lon="4.17906">
        <ele>612.02</ele>
        <time>2022-04-17T09:08:41Z</time>
      </trkpt>
      <trkpt lat="45.45032" lon="4.17938">
        <ele>609.61</ele>
        <time>2022-04-17T09:09:01Z</time>
      </trkpt>
      <trkpt lat="45.45013" lon="4.17975">
        <ele>607.21</ele>
        <time>2022-04-17T09:09:22Z</time>
      </trkpt>
      <trkpt lat="45.45005" lon="4.17992">
        <ele>605.29</ele>
        <time>2022-04-17T09:09:33Z</time>
      </trkpt>
      <trkpt lat="45.44998" lon="4.17999">
        <ele>602.88</ele>
        <time>2022-04-17T09:09:41Z</time>
      </trkpt>
      <trkpt lat="45.44991" lon="4.18008">
        <ele>600</ele>
        <time>2022-04-17T09:09:48Z</time>
      </trkpt>
      <trkpt lat="45.44983" lon="4.18023">
        <ele>596.64</ele>
        <time>2022-04-17T09:09:56Z</time>
      </trkpt>
      <trkpt lat="45.44979" lon="4.18051">
        <ele>593.75</ele>
        <time>2022-04-17T09:10:10Z</time>
      </trkpt>
      <trkpt lat="45.44988" lon="4.18083">
        <ele>598.56</ele>
        <time>2022-04-17T09:10:26Z</time>
      </trkpt>
      <trkpt lat="45.44997" lon="4.18096">
        <ele>600</ele>
        <time>2022-04-17T09:10:35Z</time>
      </trkpt>
      <trkpt lat="45.45012" lon="4.18114">
        <ele>606.73</ele>
        <time>2022-04-17T09:10:48Z</time>
      </trkpt>
      <trkpt lat="45.45016" lon="4.18117">
        <ele>607.21</ele>
        <time>2022-04-17T09:10:51Z</time>
      </trkpt>
      <trkpt lat="45.45028" lon="4.1813">
        <ele>608.65</ele>
        <time>2022-04-17T09:11:01Z</time>
      </trkpt>
      <trkpt lat="45.45039" lon="4.18141">
        <ele>609.13</ele>
        <time>2022-04-17T09:11:11Z</time>
      </trkpt>
      <trkpt lat="45.45054" lon="4.18156">
        <ele>610.09</ele>
        <time>2022-04-17T09:11:23Z</time>
      </trkpt>
      <trkpt lat="45.45066" lon="4.18172">
        <ele>609.61</ele>
        <time>2022-04-17T09:11:34Z</time>
      </trkpt>
      <trkpt lat="45.45081" lon="4.18185">
        <ele>611.06</ele>
        <time>2022-04-17T09:11:46Z</time>
      </trkpt>
      <trkpt lat="45.45102" lon="4.18185">
        <ele>612.98</ele>
        <time>2022-04-17T09:11:59Z</time>
      </trkpt>
      <trkpt lat="45.45119" lon="4.18186">
        <ele>612.98</ele>
        <time>2022-04-17T09:12:11Z</time>
      </trkpt>
      <trkpt lat="45.45137" lon="4.18188">
        <ele>614.9</ele>
        <time>2022-04-17T09:12:23Z</time>
      </trkpt>
      <trkpt lat="45.45153" lon="4.1819">
        <ele>616.82</ele>
        <time>2022-04-17T09:12:36Z</time>
      </trkpt>
      <trkpt lat="45.45168" lon="4.18203">
        <ele>617.3</ele>
        <time>2022-04-17T09:12:48Z</time>
      </trkpt>
      <trkpt lat="45.45174" lon="4.18209">
        <ele>617.78</ele>
        <time>2022-04-17T09:12:53Z</time>
      </trkpt>
      <trkpt lat="45.45184" lon="4.18223">
        <ele>617.78</ele>
        <time>2022-04-17T09:13:03Z</time>
      </trkpt>
      <trkpt lat="45.4519" lon="4.18243">
        <ele>617.78</ele>
        <time>2022-04-17T09:13:13Z</time>
      </trkpt>
      <trkpt lat="45.45197" lon="4.18263">
        <ele>619.71</ele>
        <time>2022-04-17T09:13:24Z</time>
      </trkpt>
      <trkpt lat="45.45198" lon="4.18271">
        <ele>619.71</ele>
        <time>2022-04-17T09:13:28Z</time>
      </trkpt>
      <trkpt lat="45.45185" lon="4.18303">
        <ele>621.63</ele>
        <time>2022-04-17T09:13:46Z</time>
      </trkpt>
      <trkpt lat="45.4517" lon="4.18329">
        <ele>621.15</ele>
        <time>2022-04-17T09:14:02Z</time>
      </trkpt>
      <trkpt lat="45.45164" lon="4.18335">
        <ele>621.63</ele>
        <time>2022-04-17T09:14:07Z</time>
      </trkpt>
      <trkpt lat="45.45162" lon="4.18337">
        <ele>621.63</ele>
        <time>2022-04-17T09:14:08Z</time>
      </trkpt>
      <trkpt lat="45.45148" lon="4.18357">
        <ele>622.11</ele>
        <time>2022-04-17T09:14:24Z</time>
      </trkpt>
      <trkpt lat="45.45136" lon="4.18379">
        <ele>621.63</ele>
        <time>2022-04-17T09:14:38Z</time>
      </trkpt>
      <trkpt lat="45.45135" lon="4.1838">
        <ele>622.11</ele>
        <time>2022-04-17T09:14:39Z</time>
      </trkpt>
      <trkpt lat="45.45111" lon="4.18388">
        <ele>623.55</ele>
        <time>2022-04-17T09:14:53Z</time>
      </trkpt>
      <trkpt lat="45.45086" lon="4.1839">
        <ele>624.51</ele>
        <time>2022-04-17T09:15:06Z</time>
      </trkpt>
      <trkpt lat="45.45055" lon="4.18384">
        <ele>626.92</ele>
        <time>2022-04-17T09:15:22Z</time>
      </trkpt>
      <trkpt lat="45.45024" lon="4.18372">
        <ele>631.24</ele>
        <time>2022-04-17T09:15:42Z</time>
      </trkpt>
      <trkpt lat="45.44998" lon="4.18373">
        <ele>632.68</ele>
        <time>2022-04-17T09:15:58Z</time>
      </trkpt>
      <trkpt lat="45.44976" lon="4.18377">
        <ele>634.13</ele>
        <time>2022-04-17T09:16:13Z</time>
      </trkpt>
      <trkpt lat="45.44953" lon="4.18379">
        <ele>634.13</ele>
        <time>2022-04-17T09:16:30Z</time>
      </trkpt>
      <trkpt lat="45.44942" lon="4.18378">
        <ele>632.68</ele>
        <time>2022-04-17T09:16:39Z</time>
      </trkpt>
      <trkpt lat="45.44939" lon="4.18376">
        <ele>632.68</ele>
        <time>2022-04-17T09:16:42Z</time>
      </trkpt>
      <trkpt lat="45.44938" lon="4.18377">
        <ele>632.2</ele>
        <time>2022-04-17T09:16:43Z</time>
      </trkpt>
      <trkpt lat="45.44936" lon="4.18377">
        <ele>632.2</ele>
        <time>2022-04-17T09:16:44Z</time>
      </trkpt>
      <trkpt lat="45.44935" lon="4.18377">
        <ele>632.2</ele>
        <time>2022-04-17T09:16:45Z</time>
      </trkpt>
      <trkpt lat="45.44915" lon="4.18383">
        <ele>631.24</ele>
        <time>2022-04-17T09:16:58Z</time>
      </trkpt>
      <trkpt lat="45.4489" lon="4.18404">
        <ele>630.76</ele>
        <time>2022-04-17T09:17:14Z</time>
      </trkpt>
      <trkpt lat="45.44866" lon="4.18405">
        <ele>627.4</ele>
        <time>2022-04-17T09:17:29Z</time>
      </trkpt>
      <trkpt lat="45.44839" lon="4.18401">
        <ele>626.92</ele>
        <time>2022-04-17T09:17:45Z</time>
      </trkpt>
      <trkpt lat="45.44812" lon="4.18409">
        <ele>633.17</ele>
        <time>2022-04-17T09:18:03Z</time>
      </trkpt>
      <trkpt lat="45.44793" lon="4.18423">
        <ele>633.17</ele>
        <time>2022-04-17T09:18:17Z</time>
      </trkpt>
      <trkpt lat="45.44768" lon="4.1843">
        <ele>633.65</ele>
        <time>2022-04-17T09:18:32Z</time>
      </trkpt>
      <trkpt lat="45.44736" lon="4.18437">
        <ele>637.01</ele>
        <time>2022-04-17T09:18:50Z</time>
      </trkpt>
      <trkpt lat="45.44709" lon="4.18443">
        <ele>637.01</ele>
        <time>2022-04-17T09:19:10Z</time>
      </trkpt>
      <trkpt lat="45.44679" lon="4.18454">
        <ele>638.45</ele>
        <time>2022-04-17T09:19:27Z</time>
      </trkpt>
      <trkpt lat="45.44646" lon="4.18465">
        <ele>639.41</ele>
        <time>2022-04-17T09:19:48Z</time>
      </trkpt>
      <trkpt lat="45.44616" lon="4.18476">
        <ele>641.34</ele>
        <time>2022-04-17T09:20:09Z</time>
      </trkpt>
      <trkpt lat="45.44589" lon="4.1848">
        <ele>644.7</ele>
        <time>2022-04-17T09:20:27Z</time>
      </trkpt>
      <trkpt lat="45.4456" lon="4.1849">
        <ele>645.66</ele>
        <time>2022-04-17T09:20:46Z</time>
      </trkpt>
      <trkpt lat="45.44532" lon="4.18501">
        <ele>649.51</ele>
        <time>2022-04-17T09:21:05Z</time>
      </trkpt>
      <trkpt lat="45.44504" lon="4.18512">
        <ele>654.31</ele>
        <time>2022-04-17T09:21:23Z</time>
      </trkpt>
      <trkpt lat="45.44482" lon="4.18531">
        <ele>656.72</ele>
        <time>2022-04-17T09:21:41Z</time>
      </trkpt>
      <trkpt lat="45.44452" lon="4.18533">
        <ele>660.08</ele>
        <time>2022-04-17T09:21:59Z</time>
      </trkpt>
      <trkpt lat="45.44419" lon="4.18528">
        <ele>662.97</ele>
        <time>2022-04-17T09:22:21Z</time>
      </trkpt>
      <trkpt lat="45.44387" lon="4.18507">
        <ele>666.33</ele>
        <time>2022-04-17T09:22:44Z</time>
      </trkpt>
      <trkpt lat="45.44359" lon="4.18489">
        <ele>667.77</ele>
        <time>2022-04-17T09:23:03Z</time>
      </trkpt>
      <trkpt lat="45.44336" lon="4.18474">
        <ele>667.29</ele>
        <time>2022-04-17T09:23:20Z</time>
      </trkpt>
      <trkpt lat="45.44306" lon="4.18465">
        <ele>665.85</ele>
        <time>2022-04-17T09:23:41Z</time>
      </trkpt>
      <trkpt lat="45.4428" lon="4.18456">
        <ele>664.41</ele>
        <time>2022-04-17T09:23:58Z</time>
      </trkpt>
      <trkpt lat="45.44247" lon="4.18444">
        <ele>663.45</ele>
        <time>2022-04-17T09:24:20Z</time>
      </trkpt>
      <trkpt lat="45.44214" lon="4.18435">
        <ele>663.45</ele>
        <time>2022-04-17T09:24:41Z</time>
      </trkpt>
      <trkpt lat="45.44179" lon="4.18424">
        <ele>663.93</ele>
        <time>2022-04-17T09:25:05Z</time>
      </trkpt>
      <trkpt lat="45.44146" lon="4.18415">
        <ele>665.37</ele>
        <time>2022-04-17T09:25:28Z</time>
      </trkpt>
      <trkpt lat="45.4413" lon="4.1841">
        <ele>664.89</ele>
        <time>2022-04-17T09:25:46Z</time>
      </trkpt>
      <trkpt lat="45.44107" lon="4.18403">
        <ele>665.37</ele>
        <time>2022-04-17T09:26:03Z</time>
      </trkpt>
      <trkpt lat="45.44075" lon="4.18395">
        <ele>666.33</ele>
        <time>2022-04-17T09:26:26Z</time>
      </trkpt>
      <trkpt lat="45.44066" lon="4.18409">
        <ele>667.77</ele>
        <time>2022-04-17T09:26:37Z</time>
      </trkpt>
      <trkpt lat="45.44065" lon="4.18409">
        <ele>667.77</ele>
        <time>2022-04-17T09:26:38Z</time>
      </trkpt>
      <trkpt lat="45.44064" lon="4.1841">
        <ele>667.77</ele>
        <time>2022-04-17T09:26:39Z</time>
      </trkpt>
      <trkpt lat="45.44063" lon="4.1841">
        <ele>667.29</ele>
        <time>2022-04-17T09:26:40Z</time>
      </trkpt>
      <trkpt lat="45.44061" lon="4.1841">
        <ele>667.29</ele>
        <time>2022-04-17T09:26:41Z</time>
      </trkpt>
      <trkpt lat="45.44036" lon="4.18409">
        <ele>664.41</ele>
        <time>2022-04-17T09:26:59Z</time>
      </trkpt>
      <trkpt lat="45.4401" lon="4.18419">
        <ele>663.93</ele>
        <time>2022-04-17T09:27:18Z</time>
      </trkpt>
      <trkpt lat="45.43987" lon="4.18432">
        <ele>661.52</ele>
        <time>2022-04-17T09:27:36Z</time>
      </trkpt>
      <trkpt lat="45.4397" lon="4.18444">
        <ele>658.64</ele>
        <time>2022-04-17T09:27:52Z</time>
      </trkpt>
      <trkpt lat="45.43949" lon="4.18461">
        <ele>657.2</ele>
        <time>2022-04-17T09:28:09Z</time>
      </trkpt>
      <trkpt lat="45.43926" lon="4.1848">
        <ele>656.72</ele>
        <time>2022-04-17T09:28:28Z</time>
      </trkpt>
      <trkpt lat="45.43922" lon="4.18486">
        <ele>657.68</ele>
        <time>2022-04-17T09:28:47Z</time>
      </trkpt>
      <trkpt lat="45.43922" lon="4.18486">
        <ele>657.2</ele>
        <time>2022-04-17T09:29:09Z</time>
      </trkpt>
      <trkpt lat="45.43919" lon="4.1849">
        <ele>656.72</ele>
        <time>2022-04-17T09:29:21Z</time>
      </trkpt>
      <trkpt lat="45.43918" lon="4.18491">
        <ele>656.72</ele>
        <time>2022-04-17T09:29:22Z</time>
      </trkpt>
      <trkpt lat="45.43901" lon="4.18512">
        <ele>659.12</ele>
        <time>2022-04-17T09:29:39Z</time>
      </trkpt>
      <trkpt lat="45.43884" lon="4.18526">
        <ele>660.08</ele>
        <time>2022-04-17T09:29:54Z</time>
      </trkpt>
      <trkpt lat="45.43855" lon="4.1854">
        <ele>661.52</ele>
        <time>2022-04-17T09:30:15Z</time>
      </trkpt>
      <trkpt lat="45.43834" lon="4.18551">
        <ele>662.49</ele>
        <time>2022-04-17T09:30:31Z</time>
      </trkpt>
      <trkpt lat="45.43809" lon="4.18564">
        <ele>665.85</ele>
        <time>2022-04-17T09:30:49Z</time>
      </trkpt>
      <trkpt lat="45.43789" lon="4.18575">
        <ele>669.22</ele>
        <time>2022-04-17T09:31:04Z</time>
      </trkpt>
      <trkpt lat="45.43767" lon="4.18589">
        <ele>672.1</ele>
        <time>2022-04-17T09:31:22Z</time>
      </trkpt>
      <trkpt lat="45.43749" lon="4.18605">
        <ele>674.5</ele>
        <time>2022-04-17T09:31:38Z</time>
      </trkpt>
      <trkpt lat="45.43734" lon="4.18625">
        <ele>674.02</ele>
        <time>2022-04-17T09:31:53Z</time>
      </trkpt>
      <trkpt lat="45.43719" lon="4.18647">
        <ele>672.1</ele>
        <time>2022-04-17T09:32:09Z</time>
      </trkpt>
      <trkpt lat="45.43701" lon="4.18668">
        <ele>671.62</ele>
        <time>2022-04-17T09:32:25Z</time>
      </trkpt>
      <trkpt lat="45.4368" lon="4.18689">
        <ele>669.7</ele>
        <time>2022-04-17T09:32:42Z</time>
      </trkpt>
      <trkpt lat="45.43661" lon="4.18706">
        <ele>669.7</ele>
        <time>2022-04-17T09:32:57Z</time>
      </trkpt>
      <trkpt lat="45.43637" lon="4.18726">
        <ele>669.7</ele>
        <time>2022-04-17T09:33:15Z</time>
      </trkpt>
      <trkpt lat="45.43613" lon="4.18756">
        <ele>669.7</ele>
        <time>2022-04-17T09:33:35Z</time>
      </trkpt>
      <trkpt lat="45.43588" lon="4.1878">
        <ele>670.18</ele>
        <time>2022-04-17T09:33:50Z</time>
      </trkpt>
      <trkpt lat="45.4357" lon="4.18795">
        <ele>668.73</ele>
        <time>2022-04-17T09:34:04Z</time>
      </trkpt>
      <trkpt lat="45.43552" lon="4.18811">
        <ele>663.45</ele>
        <time>2022-04-17T09:34:18Z</time>
      </trkpt>
      <trkpt lat="45.43551" lon="4.18812">
        <ele>662.97</ele>
        <time>2022-04-17T09:34:19Z</time>
      </trkpt>
      <trkpt lat="45.43548" lon="4.18817">
        <ele>662.49</ele>
        <time>2022-04-17T09:34:22Z</time>
      </trkpt>
      <trkpt lat="45.43548" lon="4.18818">
        <ele>662.97</ele>
        <time>2022-04-17T09:34:23Z</time>
      </trkpt>
      <trkpt lat="45.43546" lon="4.1882">
        <ele>662.97</ele>
        <time>2022-04-17T09:34:24Z</time>
      </trkpt>
      <trkpt lat="45.43545" lon="4.1882">
        <ele>662.97</ele>
        <time>2022-04-17T09:34:25Z</time>
      </trkpt>
      <trkpt lat="45.43544" lon="4.18821">
        <ele>662.97</ele>
        <time>2022-04-17T09:34:26Z</time>
      </trkpt>
      <trkpt lat="45.43521" lon="4.18823">
        <ele>663.93</ele>
        <time>2022-04-17T09:34:40Z</time>
      </trkpt>
      <trkpt lat="45.43519" lon="4.18824">
        <ele>663.93</ele>
        <time>2022-04-17T09:34:41Z</time>
      </trkpt>
      <trkpt lat="45.43518" lon="4.18823">
        <ele>663.93</ele>
        <time>2022-04-17T09:34:42Z</time>
      </trkpt>
      <trkpt lat="45.43516" lon="4.18823">
        <ele>663.93</ele>
        <time>2022-04-17T09:34:43Z</time>
      </trkpt>
      <trkpt lat="45.43515" lon="4.18823">
        <ele>663.93</ele>
        <time>2022-04-17T09:34:44Z</time>
      </trkpt>
      <trkpt lat="45.43513" lon="4.18822">
        <ele>663.93</ele>
        <time>2022-04-17T09:34:45Z</time>
      </trkpt>
      <trkpt lat="45.43491" lon="4.18815">
        <ele>663.93</ele>
        <time>2022-04-17T09:34:59Z</time>
      </trkpt>
      <trkpt lat="45.43485" lon="4.18813">
        <ele>664.41</ele>
        <time>2022-04-17T09:35:03Z</time>
      </trkpt>
      <trkpt lat="45.4348" lon="4.18811">
        <ele>664.41</ele>
        <time>2022-04-17T09:35:07Z</time>
      </trkpt>
      <trkpt lat="45.43464" lon="4.18807">
        <ele>663.93</ele>
        <time>2022-04-17T09:35:20Z</time>
      </trkpt>
      <trkpt lat="45.4346" lon="4.18808">
        <ele>662.97</ele>
        <time>2022-04-17T09:35:23Z</time>
      </trkpt>
      <trkpt lat="45.43459" lon="4.1881">
        <ele>662.97</ele>
        <time>2022-04-17T09:35:24Z</time>
      </trkpt>
      <trkpt lat="45.43457" lon="4.1882">
        <ele>662.01</ele>
        <time>2022-04-17T09:35:31Z</time>
      </trkpt>
      <trkpt lat="45.43451" lon="4.18841">
        <ele>656.72</ele>
        <time>2022-04-17T09:35:45Z</time>
      </trkpt>
      <trkpt lat="45.4345" lon="4.18854">
        <ele>651.43</ele>
        <time>2022-04-17T09:35:54Z</time>
      </trkpt>
      <trkpt lat="45.43454" lon="4.18862">
        <ele>650.47</ele>
        <time>2022-04-17T09:35:58Z</time>
      </trkpt>
      <trkpt lat="45.43469" lon="4.18896">
        <ele>654.8</ele>
        <time>2022-04-17T09:36:13Z</time>
      </trkpt>
      <trkpt lat="45.43485" lon="4.18915">
        <ele>660.08</ele>
        <time>2022-04-17T09:36:27Z</time>
      </trkpt>
      <trkpt lat="45.43488" lon="4.18924">
        <ele>661.52</ele>
        <time>2022-04-17T09:36:32Z</time>
      </trkpt>
      <trkpt lat="45.4349" lon="4.18932">
        <ele>663.45</ele>
        <time>2022-04-17T09:36:36Z</time>
      </trkpt>
      <trkpt lat="45.43493" lon="4.18943">
        <ele>666.33</ele>
        <time>2022-04-17T09:36:44Z</time>
      </trkpt>
      <trkpt lat="45.43494" lon="4.18976">
        <ele>664.89</ele>
        <time>2022-04-17T09:36:59Z</time>
      </trkpt>
      <trkpt lat="45.43494" lon="4.18978">
        <ele>665.37</ele>
        <time>2022-04-17T09:37:00Z</time>
      </trkpt>
      <trkpt lat="45.43503" lon="4.18987">
        <ele>665.37</ele>
        <time>2022-04-17T09:37:07Z</time>
      </trkpt>
      <trkpt lat="45.43516" lon="4.18991">
        <ele>667.29</ele>
        <time>2022-04-17T09:37:17Z</time>
      </trkpt>
      <trkpt lat="45.43521" lon="4.18994">
        <ele>668.25</ele>
        <time>2022-04-17T09:37:22Z</time>
      </trkpt>
      <trkpt lat="45.4352" lon="4.19003">
        <ele>667.77</ele>
        <time>2022-04-17T09:37:28Z</time>
      </trkpt>
      <trkpt lat="45.43534" lon="4.19017">
        <ele>668.73</ele>
        <time>2022-04-17T09:37:38Z</time>
      </trkpt>
      <trkpt lat="45.43538" lon="4.19023">
        <ele>668.73</ele>
        <time>2022-04-17T09:37:42Z</time>
      </trkpt>
      <trkpt lat="45.43554" lon="4.19035">
        <ele>666.33</ele>
        <time>2022-04-17T09:37:51Z</time>
      </trkpt>
      <trkpt lat="45.43551" lon="4.19063">
        <ele>662.01</ele>
        <time>2022-04-17T09:38:05Z</time>
      </trkpt>
      <trkpt lat="45.4355" lon="4.19065">
        <ele>662.49</ele>
        <time>2022-04-17T09:38:06Z</time>
      </trkpt>
      <trkpt lat="45.43549" lon="4.19089">
        <ele>661.52</ele>
        <time>2022-04-17T09:38:17Z</time>
      </trkpt>
      <trkpt lat="45.43537" lon="4.19117">
        <ele>662.49</ele>
        <time>2022-04-17T09:38:30Z</time>
      </trkpt>
      <trkpt lat="45.43533" lon="4.19149">
        <ele>661.52</ele>
        <time>2022-04-17T09:38:45Z</time>
      </trkpt>
      <trkpt lat="45.43529" lon="4.19174">
        <ele>664.89</ele>
        <time>2022-04-17T09:38:56Z</time>
      </trkpt>
      <trkpt lat="45.43533" lon="4.192">
        <ele>671.14</ele>
        <time>2022-04-17T09:39:10Z</time>
      </trkpt>
      <trkpt lat="45.43534" lon="4.19202">
        <ele>671.62</ele>
        <time>2022-04-17T09:39:11Z</time>
      </trkpt>
      <trkpt lat="45.43537" lon="4.19208">
        <ele>673.06</ele>
        <time>2022-04-17T09:39:15Z</time>
      </trkpt>
      <trkpt lat="45.4354" lon="4.19218">
        <ele>674.02</ele>
        <time>2022-04-17T09:39:21Z</time>
      </trkpt>
      <trkpt lat="45.43542" lon="4.19223">
        <ele>674.5</ele>
        <time>2022-04-17T09:39:24Z</time>
      </trkpt>
      <trkpt lat="45.43563" lon="4.19233">
        <ele>677.39</ele>
        <time>2022-04-17T09:39:38Z</time>
      </trkpt>
      <trkpt lat="45.43573" lon="4.19231">
        <ele>678.83</ele>
        <time>2022-04-17T09:39:45Z</time>
      </trkpt>
      <trkpt lat="45.43575" lon="4.19232">
        <ele>678.83</ele>
        <time>2022-04-17T09:39:47Z</time>
      </trkpt>
      <trkpt lat="45.43577" lon="4.1924">
        <ele>678.35</ele>
        <time>2022-04-17T09:39:51Z</time>
      </trkpt>
      <trkpt lat="45.43581" lon="4.1925">
        <ele>678.35</ele>
        <time>2022-04-17T09:39:57Z</time>
      </trkpt>
      <trkpt lat="45.43587" lon="4.19255">
        <ele>679.31</ele>
        <time>2022-04-17T09:40:02Z</time>
      </trkpt>
      <trkpt lat="45.43588" lon="4.19261">
        <ele>679.79</ele>
        <time>2022-04-17T09:40:05Z</time>
      </trkpt>
      <trkpt lat="45.43592" lon="4.19271">
        <ele>680.75</ele>
        <time>2022-04-17T09:40:10Z</time>
      </trkpt>
      <trkpt lat="45.43596" lon="4.19283">
        <ele>681.71</ele>
        <time>2022-04-17T09:40:16Z</time>
      </trkpt>
      <trkpt lat="45.43612" lon="4.19306">
        <ele>682.67</ele>
        <time>2022-04-17T09:40:29Z</time>
      </trkpt>
      <trkpt lat="45.43617" lon="4.19326">
        <ele>681.71</ele>
        <time>2022-04-17T09:40:41Z</time>
      </trkpt>
      <trkpt lat="45.43618" lon="4.19335">
        <ele>683.63</ele>
        <time>2022-04-17T09:40:46Z</time>
      </trkpt>
      <trkpt lat="45.43617" lon="4.19352">
        <ele>686.04</ele>
        <time>2022-04-17T09:40:57Z</time>
      </trkpt>
      <trkpt lat="45.43616" lon="4.19378">
        <ele>687.48</ele>
        <time>2022-04-17T09:41:10Z</time>
      </trkpt>
      <trkpt lat="45.43615" lon="4.19408">
        <ele>690.84</ele>
        <time>2022-04-17T09:41:22Z</time>
      </trkpt>
      <trkpt lat="45.43615" lon="4.1944">
        <ele>695.65</ele>
        <time>2022-04-17T09:41:37Z</time>
      </trkpt>
      <trkpt lat="45.43613" lon="4.19471">
        <ele>701.42</ele>
        <time>2022-04-17T09:41:51Z</time>
      </trkpt>
      <trkpt lat="45.43615" lon="4.19479">
        <ele>703.34</ele>
        <time>2022-04-17T09:41:54Z</time>
      </trkpt>
      <trkpt lat="45.43615" lon="4.19506">
        <ele>708.15</ele>
        <time>2022-04-17T09:42:05Z</time>
      </trkpt>
      <trkpt lat="45.43611" lon="4.19531">
        <ele>711.51</ele>
        <time>2022-04-17T09:42:19Z</time>
      </trkpt>
      <trkpt lat="45.43601" lon="4.19541">
        <ele>711.03</ele>
        <time>2022-04-17T09:42:26Z</time>
      </trkpt>
      <trkpt lat="45.43588" lon="4.19577">
        <ele>714.88</ele>
        <time>2022-04-17T09:42:42Z</time>
      </trkpt>
      <trkpt lat="45.4358" lon="4.19582">
        <ele>714.88</ele>
        <time>2022-04-17T09:42:47Z</time>
      </trkpt>
      <trkpt lat="45.43567" lon="4.19598">
        <ele>710.07</ele>
        <time>2022-04-17T09:42:59Z</time>
      </trkpt>
      <trkpt lat="45.43555" lon="4.19611">
        <ele>707.67</ele>
        <time>2022-04-17T09:43:06Z</time>
      </trkpt>
      <trkpt lat="45.43554" lon="4.19613">
        <ele>707.67</ele>
        <time>2022-04-17T09:43:07Z</time>
      </trkpt>
      <trkpt lat="45.43552" lon="4.19616">
        <ele>707.67</ele>
        <time>2022-04-17T09:43:08Z</time>
      </trkpt>
      <trkpt lat="45.43551" lon="4.1962">
        <ele>707.67</ele>
        <time>2022-04-17T09:43:09Z</time>
      </trkpt>
      <trkpt lat="45.4355" lon="4.19623">
        <ele>708.15</ele>
        <time>2022-04-17T09:43:10Z</time>
      </trkpt>
      <trkpt lat="45.43545" lon="4.19654">
        <ele>709.11</ele>
        <time>2022-04-17T09:43:21Z</time>
      </trkpt>
      <trkpt lat="45.43544" lon="4.19658">
        <ele>709.59</ele>
        <time>2022-04-17T09:43:22Z</time>
      </trkpt>
      <trkpt lat="45.43539" lon="4.19691">
        <ele>707.67</ele>
        <time>2022-04-17T09:43:37Z</time>
      </trkpt>
      <trkpt lat="45.43539" lon="4.19696">
        <ele>707.67</ele>
        <time>2022-04-17T09:43:39Z</time>
      </trkpt>
      <trkpt lat="45.43539" lon="4.19699">
        <ele>707.67</ele>
        <time>2022-04-17T09:43:40Z</time>
      </trkpt>
      <trkpt lat="45.43545" lon="4.19735">
        <ele>708.63</ele>
        <time>2022-04-17T09:43:54Z</time>
      </trkpt>
      <trkpt lat="45.43552" lon="4.19762">
        <ele>713.92</ele>
        <time>2022-04-17T09:44:09Z</time>
      </trkpt>
      <trkpt lat="45.43565" lon="4.19772">
        <ele>715.84</ele>
        <time>2022-04-17T09:44:24Z</time>
      </trkpt>
      <trkpt lat="45.4358" lon="4.19786">
        <ele>719.2</ele>
        <time>2022-04-17T09:44:34Z</time>
      </trkpt>
      <trkpt lat="45.43591" lon="4.19811">
        <ele>720.16</ele>
        <time>2022-04-17T09:44:43Z</time>
      </trkpt>
      <trkpt lat="45.43596" lon="4.19831">
        <ele>721.13</ele>
        <time>2022-04-17T09:44:51Z</time>
      </trkpt>
      <trkpt lat="45.43594" lon="4.19858">
        <ele>723.05</ele>
        <time>2022-04-17T09:45:05Z</time>
      </trkpt>
      <trkpt lat="45.43594" lon="4.19864">
        <ele>723.53</ele>
        <time>2022-04-17T09:45:08Z</time>
      </trkpt>
      <trkpt lat="45.43593" lon="4.19866">
        <ele>723.53</ele>
        <time>2022-04-17T09:45:09Z</time>
      </trkpt>
      <trkpt lat="45.43592" lon="4.19873">
        <ele>723.53</ele>
        <time>2022-04-17T09:45:12Z</time>
      </trkpt>
      <trkpt lat="45.4359" lon="4.19901">
        <ele>723.53</ele>
        <time>2022-04-17T09:45:24Z</time>
      </trkpt>
      <trkpt lat="45.43585" lon="4.19931">
        <ele>721.61</ele>
        <time>2022-04-17T09:45:38Z</time>
      </trkpt>
      <trkpt lat="45.43583" lon="4.19958">
        <ele>720.65</ele>
        <time>2022-04-17T09:45:49Z</time>
      </trkpt>
      <trkpt lat="45.43582" lon="4.1996">
        <ele>720.65</ele>
        <time>2022-04-17T09:45:50Z</time>
      </trkpt>
      <trkpt lat="45.43581" lon="4.19962">
        <ele>720.65</ele>
        <time>2022-04-17T09:45:51Z</time>
      </trkpt>
      <trkpt lat="45.43573" lon="4.19982">
        <ele>717.28</ele>
        <time>2022-04-17T09:46:01Z</time>
      </trkpt>
      <trkpt lat="45.43572" lon="4.19983">
        <ele>716.8</ele>
        <time>2022-04-17T09:46:02Z</time>
      </trkpt>
      <trkpt lat="45.4357" lon="4.19991">
        <ele>712.95</ele>
        <time>2022-04-17T09:46:20Z</time>
      </trkpt>
      <trkpt lat="45.43568" lon="4.1999">
        <ele>714.4</ele>
        <time>2022-04-17T09:46:49Z</time>
      </trkpt>
      <trkpt lat="45.4357" lon="4.1999">
        <ele>720.16</ele>
        <time>2022-04-17T09:47:19Z</time>
      </trkpt>
      <trkpt lat="45.43575" lon="4.1999">
        <ele>725.45</ele>
        <time>2022-04-17T09:47:45Z</time>
      </trkpt>
      <trkpt lat="45.43571" lon="4.1999">
        <ele>724.97</ele>
        <time>2022-04-17T09:48:07Z</time>
      </trkpt>
      <trkpt lat="45.43561" lon="4.19996">
        <ele>727.86</ele>
        <time>2022-04-17T09:48:34Z</time>
      </trkpt>
      <trkpt lat="45.43552" lon="4.20005">
        <ele>729.3</ele>
        <time>2022-04-17T09:48:47Z</time>
      </trkpt>
      <trkpt lat="45.43552" lon="4.2001">
        <ele>731.22</ele>
        <time>2022-04-17T09:49:07Z</time>
      </trkpt>
      <trkpt lat="45.43552" lon="4.2001">
        <ele>731.7</ele>
        <time>2022-04-17T09:49:29Z</time>
      </trkpt>
      <trkpt lat="45.4355" lon="4.20014">
        <ele>727.37</ele>
        <time>2022-04-17T09:49:52Z</time>
      </trkpt>
      <trkpt lat="45.43549" lon="4.20017">
        <ele>724.01</ele>
        <time>2022-04-17T09:50:18Z</time>
      </trkpt>
      <trkpt lat="45.4355" lon="4.20022">
        <ele>724.01</ele>
        <time>2022-04-17T09:50:40Z</time>
      </trkpt>
      <trkpt lat="45.43553" lon="4.20018">
        <ele>726.89</ele>
        <time>2022-04-17T09:51:05Z</time>
      </trkpt>
      <trkpt lat="45.43556" lon="4.20018">
        <ele>728.34</ele>
        <time>2022-04-17T09:51:37Z</time>
      </trkpt>
      <trkpt lat="45.43556" lon="4.20018">
        <ele>729.78</ele>
        <time>2022-04-17T09:52:02Z</time>
      </trkpt>
      <trkpt lat="45.43559" lon="4.20018">
        <ele>730.26</ele>
        <time>2022-04-17T09:52:22Z</time>
      </trkpt>
      <trkpt lat="45.43557" lon="4.20017">
        <ele>730.26</ele>
        <time>2022-04-17T09:52:45Z</time>
      </trkpt>
      <trkpt lat="45.43554" lon="4.2002">
        <ele>731.22</ele>
        <time>2022-04-17T09:53:10Z</time>
      </trkpt>
      <trkpt lat="45.43554" lon="4.20017">
        <ele>726.89</ele>
        <time>2022-04-17T09:53:30Z</time>
      </trkpt>
      <trkpt lat="45.43556" lon="4.20019">
        <ele>728.82</ele>
        <time>2022-04-17T09:53:49Z</time>
      </trkpt>
      <trkpt lat="45.43551" lon="4.20016">
        <ele>728.34</ele>
        <time>2022-04-17T09:54:05Z</time>
      </trkpt>
      <trkpt lat="45.43551" lon="4.20014">
        <ele>726.89</ele>
        <time>2022-04-17T09:54:27Z</time>
      </trkpt>
      <trkpt lat="45.43547" lon="4.20009">
        <ele>724.97</ele>
        <time>2022-04-17T09:54:53Z</time>
      </trkpt>
      <trkpt lat="45.43546" lon="4.20011">
        <ele>723.53</ele>
        <time>2022-04-17T09:55:13Z</time>
      </trkpt>
      <trkpt lat="45.43546" lon="4.20012">
        <ele>724.49</ele>
        <time>2022-04-17T09:55:32Z</time>
      </trkpt>
      <trkpt lat="45.43545" lon="4.20012">
        <ele>723.05</ele>
        <time>2022-04-17T09:55:47Z</time>
      </trkpt>
      <trkpt lat="45.43547" lon="4.20008">
        <ele>722.09</ele>
        <time>2022-04-17T09:56:08Z</time>
      </trkpt>
      <trkpt lat="45.43551" lon="4.20016">
        <ele>724.49</ele>
        <time>2022-04-17T09:56:25Z</time>
      </trkpt>
      <trkpt lat="45.43554" lon="4.20015">
        <ele>725.93</ele>
        <time>2022-04-17T09:56:54Z</time>
      </trkpt>
      <trkpt lat="45.43554" lon="4.20012">
        <ele>729.3</ele>
        <time>2022-04-17T09:57:24Z</time>
      </trkpt>
      <trkpt lat="45.43551" lon="4.20015">
        <ele>729.78</ele>
        <time>2022-04-17T09:57:56Z</time>
      </trkpt>
      <trkpt lat="45.43555" lon="4.20023">
        <ele>725.93</ele>
        <time>2022-04-17T09:58:12Z</time>
      </trkpt>
      <trkpt lat="45.43557" lon="4.20053">
        <ele>717.76</ele>
        <time>2022-04-17T09:58:27Z</time>
      </trkpt>
      <trkpt lat="45.43556" lon="4.20062">
        <ele>716.8</ele>
        <time>2022-04-17T09:58:33Z</time>
      </trkpt>
      <trkpt lat="45.43555" lon="4.20064">
        <ele>716.8</ele>
        <time>2022-04-17T09:58:34Z</time>
      </trkpt>
      <trkpt lat="45.43547" lon="4.2009">
        <ele>717.28</ele>
        <time>2022-04-17T09:58:48Z</time>
      </trkpt>
      <trkpt lat="45.43546" lon="4.20111">
        <ele>718.24</ele>
        <time>2022-04-17T09:58:57Z</time>
      </trkpt>
      <trkpt lat="45.43547" lon="4.20113">
        <ele>718.72</ele>
        <time>2022-04-17T09:58:58Z</time>
      </trkpt>
      <trkpt lat="45.43547" lon="4.20144">
        <ele>717.76</ele>
        <time>2022-04-17T09:59:14Z</time>
      </trkpt>
      <trkpt lat="45.4355" lon="4.20186">
        <ele>717.28</ele>
        <time>2022-04-17T09:59:31Z</time>
      </trkpt>
      <trkpt lat="45.43551" lon="4.20198">
        <ele>717.76</ele>
        <time>2022-04-17T09:59:37Z</time>
      </trkpt>
      <trkpt lat="45.4355" lon="4.20237">
        <ele>716.8</ele>
        <time>2022-04-17T09:59:55Z</time>
      </trkpt>
      <trkpt lat="45.43551" lon="4.20279">
        <ele>717.28</ele>
        <time>2022-04-17T10:00:13Z</time>
      </trkpt>
      <trkpt lat="45.43554" lon="4.20303">
        <ele>718.72</ele>
        <time>2022-04-17T10:00:26Z</time>
      </trkpt>
      <trkpt lat="45.43548" lon="4.20333">
        <ele>719.2</ele>
        <time>2022-04-17T10:00:44Z</time>
      </trkpt>
      <trkpt lat="45.43539" lon="4.2036">
        <ele>716.8</ele>
        <time>2022-04-17T10:01:00Z</time>
      </trkpt>
      <trkpt lat="45.43538" lon="4.20369">
        <ele>715.84</ele>
        <time>2022-04-17T10:01:05Z</time>
      </trkpt>
      <trkpt lat="45.43538" lon="4.20371">
        <ele>715.84</ele>
        <time>2022-04-17T10:01:06Z</time>
      </trkpt>
      <trkpt lat="45.43538" lon="4.20374">
        <ele>715.84</ele>
        <time>2022-04-17T10:01:07Z</time>
      </trkpt>
      <trkpt lat="45.43539" lon="4.20376">
        <ele>716.32</ele>
        <time>2022-04-17T10:01:08Z</time>
      </trkpt>
      <trkpt lat="45.4354" lon="4.20378">
        <ele>716.32</ele>
        <time>2022-04-17T10:01:09Z</time>
      </trkpt>
      <trkpt lat="45.43551" lon="4.20413">
        <ele>716.32</ele>
        <time>2022-04-17T10:01:27Z</time>
      </trkpt>
      <trkpt lat="45.43553" lon="4.20419">
        <ele>716.8</ele>
        <time>2022-04-17T10:01:31Z</time>
      </trkpt>
      <trkpt lat="45.43554" lon="4.20421">
        <ele>716.8</ele>
        <time>2022-04-17T10:01:32Z</time>
      </trkpt>
      <trkpt lat="45.43554" lon="4.20423">
        <ele>716.8</ele>
        <time>2022-04-17T10:01:33Z</time>
      </trkpt>
      <trkpt lat="45.43555" lon="4.20425">
        <ele>716.8</ele>
        <time>2022-04-17T10:01:34Z</time>
      </trkpt>
      <trkpt lat="45.43556" lon="4.20427">
        <ele>716.8</ele>
        <time>2022-04-17T10:01:35Z</time>
      </trkpt>
      <trkpt lat="45.43556" lon="4.20429">
        <ele>716.8</ele>
        <time>2022-04-17T10:01:36Z</time>
      </trkpt>
      <trkpt lat="45.43557" lon="4.2043">
        <ele>716.8</ele>
        <time>2022-04-17T10:01:37Z</time>
      </trkpt>
      <trkpt lat="45.43559" lon="4.20433">
        <ele>716.8</ele>
        <time>2022-04-17T10:01:39Z</time>
      </trkpt>
      <trkpt lat="45.43559" lon="4.20435">
        <ele>716.32</ele>
        <time>2022-04-17T10:01:40Z</time>
      </trkpt>
      <trkpt lat="45.43561" lon="4.2044">
        <ele>714.88</ele>
        <time>2022-04-17T10:01:43Z</time>
      </trkpt>
      <trkpt lat="45.43562" lon="4.20442">
        <ele>714.4</ele>
        <time>2022-04-17T10:01:44Z</time>
      </trkpt>
      <trkpt lat="45.43582" lon="4.20462">
        <ele>711.03</ele>
        <time>2022-04-17T10:01:59Z</time>
      </trkpt>
      <trkpt lat="45.43595" lon="4.20477">
        <ele>709.11</ele>
        <time>2022-04-17T10:02:11Z</time>
      </trkpt>
      <trkpt lat="45.43607" lon="4.20494">
        <ele>708.15</ele>
        <time>2022-04-17T10:02:25Z</time>
      </trkpt>
      <trkpt lat="45.4362" lon="4.20515">
        <ele>709.11</ele>
        <time>2022-04-17T10:02:39Z</time>
      </trkpt>
      <trkpt lat="45.4363" lon="4.20534">
        <ele>707.67</ele>
        <time>2022-04-17T10:02:51Z</time>
      </trkpt>
      <trkpt lat="45.43636" lon="4.20542">
        <ele>704.78</ele>
        <time>2022-04-17T10:02:57Z</time>
      </trkpt>
      <trkpt lat="45.43637" lon="4.20543">
        <ele>704.3</ele>
        <time>2022-04-17T10:02:58Z</time>
      </trkpt>
      <trkpt lat="45.43638" lon="4.20544">
        <ele>703.82</ele>
        <time>2022-04-17T10:02:59Z</time>
      </trkpt>
      <trkpt lat="45.4364" lon="4.20544">
        <ele>703.82</ele>
        <time>2022-04-17T10:03:00Z</time>
      </trkpt>
      <trkpt lat="45.43641" lon="4.20545">
        <ele>703.34</ele>
        <time>2022-04-17T10:03:01Z</time>
      </trkpt>
      <trkpt lat="45.43643" lon="4.20546">
        <ele>703.34</ele>
        <time>2022-04-17T10:03:02Z</time>
      </trkpt>
      <trkpt lat="45.43647" lon="4.20565">
        <ele>700.94</ele>
        <time>2022-04-17T10:03:14Z</time>
      </trkpt>
      <trkpt lat="45.4367" lon="4.20589">
        <ele>698.53</ele>
        <time>2022-04-17T10:03:29Z</time>
      </trkpt>
      <trkpt lat="45.43674" lon="4.20592">
        <ele>699.02</ele>
        <time>2022-04-17T10:03:31Z</time>
      </trkpt>
      <trkpt lat="45.43676" lon="4.20594">
        <ele>698.53</ele>
        <time>2022-04-17T10:03:32Z</time>
      </trkpt>
      <trkpt lat="45.43677" lon="4.20596">
        <ele>698.53</ele>
        <time>2022-04-17T10:03:33Z</time>
      </trkpt>
      <trkpt lat="45.43686" lon="4.20616">
        <ele>694.69</ele>
        <time>2022-04-17T10:03:44Z</time>
      </trkpt>
      <trkpt lat="45.43703" lon="4.20641">
        <ele>693.73</ele>
        <time>2022-04-17T10:03:59Z</time>
      </trkpt>
      <trkpt lat="45.4372" lon="4.20657">
        <ele>692.77</ele>
        <time>2022-04-17T10:04:11Z</time>
      </trkpt>
      <trkpt lat="45.43741" lon="4.20681">
        <ele>691.33</ele>
        <time>2022-04-17T10:04:28Z</time>
      </trkpt>
      <trkpt lat="45.43744" lon="4.20686">
        <ele>691.81</ele>
        <time>2022-04-17T10:04:33Z</time>
      </trkpt>
      <trkpt lat="45.43745" lon="4.20688">
        <ele>691.81</ele>
        <time>2022-04-17T10:04:34Z</time>
      </trkpt>
      <trkpt lat="45.43754" lon="4.20709">
        <ele>692.77</ele>
        <time>2022-04-17T10:04:43Z</time>
      </trkpt>
      <trkpt lat="45.43771" lon="4.20731">
        <ele>693.25</ele>
        <time>2022-04-17T10:04:57Z</time>
      </trkpt>
      <trkpt lat="45.43789" lon="4.20741">
        <ele>692.29</ele>
        <time>2022-04-17T10:05:10Z</time>
      </trkpt>
      <trkpt lat="45.43811" lon="4.2074">
        <ele>692.77</ele>
        <time>2022-04-17T10:05:24Z</time>
      </trkpt>
      <trkpt lat="45.43815" lon="4.20738">
        <ele>691.81</ele>
        <time>2022-04-17T10:05:27Z</time>
      </trkpt>
      <trkpt lat="45.4382" lon="4.20739">
        <ele>691.33</ele>
        <time>2022-04-17T10:05:31Z</time>
      </trkpt>
      <trkpt lat="45.43837" lon="4.2076">
        <ele>690.36</ele>
        <time>2022-04-17T10:05:45Z</time>
      </trkpt>
      <trkpt lat="45.43838" lon="4.20762">
        <ele>689.88</ele>
        <time>2022-04-17T10:05:46Z</time>
      </trkpt>
      <trkpt lat="45.43838" lon="4.20765">
        <ele>689.88</ele>
        <time>2022-04-17T10:05:47Z</time>
      </trkpt>
      <trkpt lat="45.43839" lon="4.20767">
        <ele>689.88</ele>
        <time>2022-04-17T10:05:48Z</time>
      </trkpt>
      <trkpt lat="45.4384" lon="4.20769">
        <ele>689.88</ele>
        <time>2022-04-17T10:05:49Z</time>
      </trkpt>
      <trkpt lat="45.43848" lon="4.20796">
        <ele>690.84</ele>
        <time>2022-04-17T10:06:03Z</time>
      </trkpt>
      <trkpt lat="45.43861" lon="4.20829">
        <ele>689.88</ele>
        <time>2022-04-17T10:06:18Z</time>
      </trkpt>
      <trkpt lat="45.43868" lon="4.20869">
        <ele>689.88</ele>
        <time>2022-04-17T10:06:36Z</time>
      </trkpt>
      <trkpt lat="45.43869" lon="4.20881">
        <ele>689.88</ele>
        <time>2022-04-17T10:06:42Z</time>
      </trkpt>
      <trkpt lat="45.43869" lon="4.20883">
        <ele>689.88</ele>
        <time>2022-04-17T10:06:43Z</time>
      </trkpt>
      <trkpt lat="45.43869" lon="4.20884">
        <ele>689.88</ele>
        <time>2022-04-17T10:06:44Z</time>
      </trkpt>
      <trkpt lat="45.43869" lon="4.20886">
        <ele>689.88</ele>
        <time>2022-04-17T10:06:45Z</time>
      </trkpt>
      <trkpt lat="45.43869" lon="4.20888">
        <ele>689.4</ele>
        <time>2022-04-17T10:06:46Z</time>
      </trkpt>
      <trkpt lat="45.43873" lon="4.20924">
        <ele>685.08</ele>
        <time>2022-04-17T10:07:02Z</time>
      </trkpt>
      <trkpt lat="45.43874" lon="4.20955">
        <ele>683.63</ele>
        <time>2022-04-17T10:07:18Z</time>
      </trkpt>
      <trkpt lat="45.43874" lon="4.20992">
        <ele>682.19</ele>
        <time>2022-04-17T10:07:36Z</time>
      </trkpt>
      <trkpt lat="45.43872" lon="4.21033">
        <ele>678.35</ele>
        <time>2022-04-17T10:07:56Z</time>
      </trkpt>
      <trkpt lat="45.4387" lon="4.21068">
        <ele>676.42</ele>
        <time>2022-04-17T10:08:12Z</time>
      </trkpt>
      <trkpt lat="45.4388" lon="4.21105">
        <ele>673.06</ele>
        <time>2022-04-17T10:08:30Z</time>
      </trkpt>
      <trkpt lat="45.43885" lon="4.21133">
        <ele>671.62</ele>
        <time>2022-04-17T10:08:44Z</time>
      </trkpt>
      <trkpt lat="45.43886" lon="4.21137">
        <ele>671.62</ele>
        <time>2022-04-17T10:08:46Z</time>
      </trkpt>
      <trkpt lat="45.43886" lon="4.21139">
        <ele>671.14</ele>
        <time>2022-04-17T10:08:47Z</time>
      </trkpt>
      <trkpt lat="45.43886" lon="4.21141">
        <ele>671.14</ele>
        <time>2022-04-17T10:08:48Z</time>
      </trkpt>
      <trkpt lat="45.43886" lon="4.21143">
        <ele>671.14</ele>
        <time>2022-04-17T10:08:49Z</time>
      </trkpt>
      <trkpt lat="45.43891" lon="4.2116">
        <ele>670.18</ele>
        <time>2022-04-17T10:09:03Z</time>
      </trkpt>
      <trkpt lat="45.4389" lon="4.21162">
        <ele>670.66</ele>
        <time>2022-04-17T10:09:20Z</time>
      </trkpt>
      <trkpt lat="45.43889" lon="4.21162">
        <ele>673.06</ele>
        <time>2022-04-17T10:09:50Z</time>
      </trkpt>
      <trkpt lat="45.43892" lon="4.21162">
        <ele>672.58</ele>
        <time>2022-04-17T10:09:59Z</time>
      </trkpt>
      <trkpt lat="45.43891" lon="4.21169">
        <ele>671.62</ele>
        <time>2022-04-17T10:10:13Z</time>
      </trkpt>
      <trkpt lat="45.43894" lon="4.21171">
        <ele>670.18</ele>
        <time>2022-04-17T10:10:35Z</time>
      </trkpt>
      <trkpt lat="45.43893" lon="4.21169">
        <ele>673.54</ele>
        <time>2022-04-17T10:11:10Z</time>
      </trkpt>
      <trkpt lat="45.43892" lon="4.21159">
        <ele>672.58</ele>
        <time>2022-04-17T10:11:32Z</time>
      </trkpt>
      <trkpt lat="45.4389" lon="4.21163">
        <ele>667.77</ele>
        <time>2022-04-17T10:11:57Z</time>
      </trkpt>
      <trkpt lat="45.43888" lon="4.21163">
        <ele>669.7</ele>
        <time>2022-04-17T10:12:21Z</time>
      </trkpt>
      <trkpt lat="45.43889" lon="4.21166">
        <ele>671.62</ele>
        <time>2022-04-17T10:12:30Z</time>
      </trkpt>
      <trkpt lat="45.43889" lon="4.21168">
        <ele>671.62</ele>
        <time>2022-04-17T10:12:31Z</time>
      </trkpt>
      <trkpt lat="45.4389" lon="4.2117">
        <ele>671.62</ele>
        <time>2022-04-17T10:12:32Z</time>
      </trkpt>
      <trkpt lat="45.43891" lon="4.21172">
        <ele>671.62</ele>
        <time>2022-04-17T10:12:33Z</time>
      </trkpt>
      <trkpt lat="45.43892" lon="4.21174">
        <ele>671.62</ele>
        <time>2022-04-17T10:12:34Z</time>
      </trkpt>
      <trkpt lat="45.43893" lon="4.21175">
        <ele>671.62</ele>
        <time>2022-04-17T10:12:35Z</time>
      </trkpt>
      <trkpt lat="45.43895" lon="4.21176">
        <ele>672.1</ele>
        <time>2022-04-17T10:12:36Z</time>
      </trkpt>
      <trkpt lat="45.43896" lon="4.21177">
        <ele>672.1</ele>
        <time>2022-04-17T10:12:37Z</time>
      </trkpt>
      <trkpt lat="45.43898" lon="4.21178">
        <ele>672.1</ele>
        <time>2022-04-17T10:12:38Z</time>
      </trkpt>
      <trkpt lat="45.43913" lon="4.21186">
        <ele>671.14</ele>
        <time>2022-04-17T10:12:51Z</time>
      </trkpt>
      <trkpt lat="45.4392" lon="4.21185">
        <ele>670.66</ele>
        <time>2022-04-17T10:12:57Z</time>
      </trkpt>
      <trkpt lat="45.43935" lon="4.21189">
        <ele>672.58</ele>
        <time>2022-04-17T10:13:08Z</time>
      </trkpt>
      <trkpt lat="45.43945" lon="4.21193">
        <ele>672.58</ele>
        <time>2022-04-17T10:13:19Z</time>
      </trkpt>
      <trkpt lat="45.43957" lon="4.21204">
        <ele>671.62</ele>
        <time>2022-04-17T10:13:32Z</time>
      </trkpt>
      <trkpt lat="45.4396" lon="4.21206">
        <ele>671.14</ele>
        <time>2022-04-17T10:13:35Z</time>
      </trkpt>
      <trkpt lat="45.43961" lon="4.21207">
        <ele>671.14</ele>
        <time>2022-04-17T10:13:36Z</time>
      </trkpt>
      <trkpt lat="45.43963" lon="4.21208">
        <ele>671.14</ele>
        <time>2022-04-17T10:13:37Z</time>
      </trkpt>
      <trkpt lat="45.43977" lon="4.21221">
        <ele>672.58</ele>
        <time>2022-04-17T10:13:49Z</time>
      </trkpt>
      <trkpt lat="45.43988" lon="4.21237">
        <ele>673.06</ele>
        <time>2022-04-17T10:14:04Z</time>
      </trkpt>
      <trkpt lat="45.43993" lon="4.21246">
        <ele>673.54</ele>
        <time>2022-04-17T10:14:10Z</time>
      </trkpt>
      <trkpt lat="45.43995" lon="4.21249">
        <ele>674.02</ele>
        <time>2022-04-17T10:14:11Z</time>
      </trkpt>
      <trkpt lat="45.43996" lon="4.21252">
        <ele>674.02</ele>
        <time>2022-04-17T10:14:12Z</time>
      </trkpt>
      <trkpt lat="45.44016" lon="4.21273">
        <ele>675.46</ele>
        <time>2022-04-17T10:14:23Z</time>
      </trkpt>
      <trkpt lat="45.44028" lon="4.21285">
        <ele>674.02</ele>
        <time>2022-04-17T10:14:36Z</time>
      </trkpt>
      <trkpt lat="45.44042" lon="4.21298">
        <ele>672.1</ele>
        <time>2022-04-17T10:14:48Z</time>
      </trkpt>
      <trkpt lat="45.44057" lon="4.2131">
        <ele>671.62</ele>
        <time>2022-04-17T10:15:02Z</time>
      </trkpt>
      <trkpt lat="45.44081" lon="4.21343">
        <ele>674.02</ele>
        <time>2022-04-17T10:15:15Z</time>
      </trkpt>
      <trkpt lat="45.4411" lon="4.21381">
        <ele>684.6</ele>
        <time>2022-04-17T10:15:27Z</time>
      </trkpt>
      <trkpt lat="45.44127" lon="4.21402">
        <ele>687.96</ele>
        <time>2022-04-17T10:15:40Z</time>
      </trkpt>
      <trkpt lat="45.4414" lon="4.21427">
        <ele>687.48</ele>
        <time>2022-04-17T10:15:52Z</time>
      </trkpt>
      <trkpt lat="45.44157" lon="4.21459">
        <ele>687.96</ele>
        <time>2022-04-17T10:16:08Z</time>
      </trkpt>
      <trkpt lat="45.44169" lon="4.2148">
        <ele>689.4</ele>
        <time>2022-04-17T10:16:19Z</time>
      </trkpt>
      <trkpt lat="45.4418" lon="4.21518">
        <ele>691.81</ele>
        <time>2022-04-17T10:16:36Z</time>
      </trkpt>
      <trkpt lat="45.44183" lon="4.21526">
        <ele>691.81</ele>
        <time>2022-04-17T10:16:40Z</time>
      </trkpt>
      <trkpt lat="45.44184" lon="4.21527">
        <ele>691.81</ele>
        <time>2022-04-17T10:16:41Z</time>
      </trkpt>
      <trkpt lat="45.44185" lon="4.21529">
        <ele>691.81</ele>
        <time>2022-04-17T10:16:42Z</time>
      </trkpt>
      <trkpt lat="45.44185" lon="4.21531">
        <ele>691.81</ele>
        <time>2022-04-17T10:16:43Z</time>
      </trkpt>
      <trkpt lat="45.44185" lon="4.21533">
        <ele>691.81</ele>
        <time>2022-04-17T10:16:44Z</time>
      </trkpt>
      <trkpt lat="45.44186" lon="4.21535">
        <ele>691.81</ele>
        <time>2022-04-17T10:16:45Z</time>
      </trkpt>
      <trkpt lat="45.44186" lon="4.21537">
        <ele>691.81</ele>
        <time>2022-04-17T10:16:46Z</time>
      </trkpt>
      <trkpt lat="45.44188" lon="4.2154">
        <ele>691.33</ele>
        <time>2022-04-17T10:16:48Z</time>
      </trkpt>
      <trkpt lat="45.44197" lon="4.21557">
        <ele>691.33</ele>
        <time>2022-04-17T10:17:00Z</time>
      </trkpt>
      <trkpt lat="45.44198" lon="4.2156">
        <ele>691.33</ele>
        <time>2022-04-17T10:17:02Z</time>
      </trkpt>
      <trkpt lat="45.44213" lon="4.21582">
        <ele>691.33</ele>
        <time>2022-04-17T10:17:15Z</time>
      </trkpt>
      <trkpt lat="45.44224" lon="4.21604">
        <ele>692.77</ele>
        <time>2022-04-17T10:17:29Z</time>
      </trkpt>
      <trkpt lat="45.44237" lon="4.2162">
        <ele>691.81</ele>
        <time>2022-04-17T10:17:41Z</time>
      </trkpt>
      <trkpt lat="45.44245" lon="4.2163">
        <ele>692.29</ele>
        <time>2022-04-17T10:17:46Z</time>
      </trkpt>
      <trkpt lat="45.44245" lon="4.21632">
        <ele>692.29</ele>
        <time>2022-04-17T10:17:47Z</time>
      </trkpt>
      <trkpt lat="45.4425" lon="4.21641">
        <ele>692.77</ele>
        <time>2022-04-17T10:17:52Z</time>
      </trkpt>
      <trkpt lat="45.44251" lon="4.21643">
        <ele>692.77</ele>
        <time>2022-04-17T10:17:53Z</time>
      </trkpt>
      <trkpt lat="45.44254" lon="4.21649">
        <ele>692.77</ele>
        <time>2022-04-17T10:17:57Z</time>
      </trkpt>
      <trkpt lat="45.44256" lon="4.21653">
        <ele>693.25</ele>
        <time>2022-04-17T10:17:59Z</time>
      </trkpt>
      <trkpt lat="45.4426" lon="4.21662">
        <ele>693.73</ele>
        <time>2022-04-17T10:18:03Z</time>
      </trkpt>
      <trkpt lat="45.44261" lon="4.21664">
        <ele>693.73</ele>
        <time>2022-04-17T10:18:04Z</time>
      </trkpt>
      <trkpt lat="45.44276" lon="4.21693">
        <ele>694.69</ele>
        <time>2022-04-17T10:18:18Z</time>
      </trkpt>
      <trkpt lat="45.44286" lon="4.21712">
        <ele>696.13</ele>
        <time>2022-04-17T10:18:27Z</time>
      </trkpt>
      <trkpt lat="45.44287" lon="4.21714">
        <ele>696.13</ele>
        <time>2022-04-17T10:18:28Z</time>
      </trkpt>
      <trkpt lat="45.44291" lon="4.21726">
        <ele>695.17</ele>
        <time>2022-04-17T10:18:34Z</time>
      </trkpt>
      <trkpt lat="45.44291" lon="4.21728">
        <ele>695.17</ele>
        <time>2022-04-17T10:18:35Z</time>
      </trkpt>
      <trkpt lat="45.44293" lon="4.21733">
        <ele>695.65</ele>
        <time>2022-04-17T10:18:37Z</time>
      </trkpt>
      <trkpt lat="45.44294" lon="4.21735">
        <ele>695.17</ele>
        <time>2022-04-17T10:18:38Z</time>
      </trkpt>
      <trkpt lat="45.44295" lon="4.21737">
        <ele>695.17</ele>
        <time>2022-04-17T10:18:39Z</time>
      </trkpt>
      <trkpt lat="45.44297" lon="4.21741">
        <ele>694.69</ele>
        <time>2022-04-17T10:18:40Z</time>
      </trkpt>
      <trkpt lat="45.44298" lon="4.21745">
        <ele>694.21</ele>
        <time>2022-04-17T10:18:41Z</time>
      </trkpt>
      <trkpt lat="45.44298" lon="4.21749">
        <ele>693.73</ele>
        <time>2022-04-17T10:18:42Z</time>
      </trkpt>
      <trkpt lat="45.44299" lon="4.21754">
        <ele>693.73</ele>
        <time>2022-04-17T10:18:43Z</time>
      </trkpt>
      <trkpt lat="45.44299" lon="4.21758">
        <ele>693.25</ele>
        <time>2022-04-17T10:18:44Z</time>
      </trkpt>
      <trkpt lat="45.443" lon="4.21763">
        <ele>692.77</ele>
        <time>2022-04-17T10:18:45Z</time>
      </trkpt>
      <trkpt lat="45.44301" lon="4.21768">
        <ele>692.77</ele>
        <time>2022-04-17T10:18:46Z</time>
      </trkpt>
      <trkpt lat="45.44305" lon="4.21784">
        <ele>691.33</ele>
        <time>2022-04-17T10:18:51Z</time>
      </trkpt>
      <trkpt lat="45.44305" lon="4.21786">
        <ele>691.33</ele>
        <time>2022-04-17T10:18:52Z</time>
      </trkpt>
      <trkpt lat="45.44305" lon="4.21789">
        <ele>690.84</ele>
        <time>2022-04-17T10:18:53Z</time>
      </trkpt>
      <trkpt lat="45.44319" lon="4.218">
        <ele>694.21</ele>
        <time>2022-04-17T10:19:11Z</time>
      </trkpt>
      <trkpt lat="45.44319" lon="4.21801">
        <ele>694.69</ele>
        <time>2022-04-17T10:19:17Z</time>
      </trkpt>
      <trkpt lat="45.44321" lon="4.21802">
        <ele>694.69</ele>
        <time>2022-04-17T10:19:19Z</time>
      </trkpt>
      <trkpt lat="45.44323" lon="4.21808">
        <ele>693.25</ele>
        <time>2022-04-17T10:19:23Z</time>
      </trkpt>
      <trkpt lat="45.44324" lon="4.21811">
        <ele>692.29</ele>
        <time>2022-04-17T10:19:25Z</time>
      </trkpt>
      <trkpt lat="45.44325" lon="4.21813">
        <ele>692.29</ele>
        <time>2022-04-17T10:19:26Z</time>
      </trkpt>
      <trkpt lat="45.44334" lon="4.21832">
        <ele>688.92</ele>
        <time>2022-04-17T10:19:39Z</time>
      </trkpt>
      <trkpt lat="45.44341" lon="4.21846">
        <ele>686.52</ele>
        <time>2022-04-17T10:19:47Z</time>
      </trkpt>
      <trkpt lat="45.44342" lon="4.21847">
        <ele>686.04</ele>
        <time>2022-04-17T10:19:48Z</time>
      </trkpt>
      <trkpt lat="45.44343" lon="4.21849">
        <ele>685.56</ele>
        <time>2022-04-17T10:19:49Z</time>
      </trkpt>
      <trkpt lat="45.44344" lon="4.21851">
        <ele>685.08</ele>
        <time>2022-04-17T10:19:50Z</time>
      </trkpt>
      <trkpt lat="45.44345" lon="4.21852">
        <ele>685.08</ele>
        <time>2022-04-17T10:19:51Z</time>
      </trkpt>
      <trkpt lat="45.44359" lon="4.21877">
        <ele>682.19</ele>
        <time>2022-04-17T10:20:08Z</time>
      </trkpt>
      <trkpt lat="45.44371" lon="4.21895">
        <ele>680.27</ele>
        <time>2022-04-17T10:20:22Z</time>
      </trkpt>
      <trkpt lat="45.44382" lon="4.21905">
        <ele>679.79</ele>
        <time>2022-04-17T10:20:35Z</time>
      </trkpt>
      <trkpt lat="45.44383" lon="4.21906">
        <ele>679.79</ele>
        <time>2022-04-17T10:20:36Z</time>
      </trkpt>
      <trkpt lat="45.44404" lon="4.21915">
        <ele>678.35</ele>
        <time>2022-04-17T10:20:52Z</time>
      </trkpt>
      <trkpt lat="45.4442" lon="4.21927">
        <ele>677.39</ele>
        <time>2022-04-17T10:21:06Z</time>
      </trkpt>
      <trkpt lat="45.44435" lon="4.21936">
        <ele>676.42</ele>
        <time>2022-04-17T10:21:19Z</time>
      </trkpt>
      <trkpt lat="45.44459" lon="4.21944">
        <ele>676.91</ele>
        <time>2022-04-17T10:21:33Z</time>
      </trkpt>
      <trkpt lat="45.44472" lon="4.21938">
        <ele>675.46</ele>
        <time>2022-04-17T10:21:42Z</time>
      </trkpt>
      <trkpt lat="45.44474" lon="4.21937">
        <ele>674.98</ele>
        <time>2022-04-17T10:21:43Z</time>
      </trkpt>
      <trkpt lat="45.44475" lon="4.21936">
        <ele>674.98</ele>
        <time>2022-04-17T10:21:44Z</time>
      </trkpt>
      <trkpt lat="45.44478" lon="4.21934">
        <ele>674.02</ele>
        <time>2022-04-17T10:21:46Z</time>
      </trkpt>
      <trkpt lat="45.4448" lon="4.21932">
        <ele>673.54</ele>
        <time>2022-04-17T10:21:48Z</time>
      </trkpt>
      <trkpt lat="45.44482" lon="4.21931">
        <ele>673.06</ele>
        <time>2022-04-17T10:21:49Z</time>
      </trkpt>
      <trkpt lat="45.44487" lon="4.21927">
        <ele>671.14</ele>
        <time>2022-04-17T10:21:54Z</time>
      </trkpt>
      <trkpt lat="45.44488" lon="4.21927">
        <ele>671.14</ele>
        <time>2022-04-17T10:21:55Z</time>
      </trkpt>
      <trkpt lat="45.44494" lon="4.2193">
        <ele>669.7</ele>
        <time>2022-04-17T10:22:00Z</time>
      </trkpt>
      <trkpt lat="45.445" lon="4.21934">
        <ele>668.25</ele>
        <time>2022-04-17T10:22:07Z</time>
      </trkpt>
      <trkpt lat="45.44509" lon="4.21938">
        <ele>667.29</ele>
        <time>2022-04-17T10:22:13Z</time>
      </trkpt>
      <trkpt lat="45.4451" lon="4.21939">
        <ele>667.29</ele>
        <time>2022-04-17T10:22:14Z</time>
      </trkpt>
      <trkpt lat="45.44519" lon="4.21946">
        <ele>666.33</ele>
        <time>2022-04-17T10:22:22Z</time>
      </trkpt>
      <trkpt lat="45.4452" lon="4.21947">
        <ele>665.85</ele>
        <time>2022-04-17T10:22:23Z</time>
      </trkpt>
      <trkpt lat="45.44521" lon="4.21948">
        <ele>666.33</ele>
        <time>2022-04-17T10:22:24Z</time>
      </trkpt>
      <trkpt lat="45.44537" lon="4.2196">
        <ele>665.37</ele>
        <time>2022-04-17T10:22:38Z</time>
      </trkpt>
      <trkpt lat="45.44555" lon="4.2197">
        <ele>664.89</ele>
        <time>2022-04-17T10:22:52Z</time>
      </trkpt>
      <trkpt lat="45.44557" lon="4.2197">
        <ele>665.37</ele>
        <time>2022-04-17T10:22:53Z</time>
      </trkpt>
      <trkpt lat="45.44561" lon="4.21972">
        <ele>665.37</ele>
        <time>2022-04-17T10:22:56Z</time>
      </trkpt>
      <trkpt lat="45.44578" lon="4.21986">
        <ele>665.85</ele>
        <time>2022-04-17T10:23:09Z</time>
      </trkpt>
      <trkpt lat="45.44586" lon="4.22005">
        <ele>664.41</ele>
        <time>2022-04-17T10:23:22Z</time>
      </trkpt>
      <trkpt lat="45.44594" lon="4.22018">
        <ele>662.01</ele>
        <time>2022-04-17T10:23:34Z</time>
      </trkpt>
      <trkpt lat="45.44599" lon="4.22035">
        <ele>660.08</ele>
        <time>2022-04-17T10:23:46Z</time>
      </trkpt>
      <trkpt lat="45.44603" lon="4.22056">
        <ele>659.12</ele>
        <time>2022-04-17T10:23:59Z</time>
      </trkpt>
      <trkpt lat="45.44612" lon="4.22073">
        <ele>657.68</ele>
        <time>2022-04-17T10:24:10Z</time>
      </trkpt>
      <trkpt lat="45.44619" lon="4.22097">
        <ele>654.8</ele>
        <time>2022-04-17T10:24:24Z</time>
      </trkpt>
      <trkpt lat="45.44629" lon="4.22127">
        <ele>656.24</ele>
        <time>2022-04-17T10:24:39Z</time>
      </trkpt>
      <trkpt lat="45.4463" lon="4.2215">
        <ele>657.2</ele>
        <time>2022-04-17T10:24:51Z</time>
      </trkpt>
      <trkpt lat="45.44631" lon="4.22176">
        <ele>655.76</ele>
        <time>2022-04-17T10:25:05Z</time>
      </trkpt>
      <trkpt lat="45.44633" lon="4.22193">
        <ele>652.39</ele>
        <time>2022-04-17T10:25:17Z</time>
      </trkpt>
      <trkpt lat="45.44633" lon="4.222">
        <ele>650.47</ele>
        <time>2022-04-17T10:25:22Z</time>
      </trkpt>
      <trkpt lat="45.44631" lon="4.22205">
        <ele>649.03</ele>
        <time>2022-04-17T10:25:25Z</time>
      </trkpt>
      <trkpt lat="45.44633" lon="4.22217">
        <ele>645.18</ele>
        <time>2022-04-17T10:25:34Z</time>
      </trkpt>
      <trkpt lat="45.44638" lon="4.22246">
        <ele>640.86</ele>
        <time>2022-04-17T10:25:47Z</time>
      </trkpt>
      <trkpt lat="45.44637" lon="4.22248">
        <ele>640.38</ele>
        <time>2022-04-17T10:25:48Z</time>
      </trkpt>
      <trkpt lat="45.44638" lon="4.2227">
        <ele>636.05</ele>
        <time>2022-04-17T10:26:00Z</time>
      </trkpt>
      <trkpt lat="45.44641" lon="4.22283">
        <ele>635.57</ele>
        <time>2022-04-17T10:26:07Z</time>
      </trkpt>
      <trkpt lat="45.44652" lon="4.22308">
        <ele>635.57</ele>
        <time>2022-04-17T10:26:19Z</time>
      </trkpt>
      <trkpt lat="45.44664" lon="4.22334">
        <ele>635.57</ele>
        <time>2022-04-17T10:26:33Z</time>
      </trkpt>
      <trkpt lat="45.44672" lon="4.22358">
        <ele>633.17</ele>
        <time>2022-04-17T10:26:47Z</time>
      </trkpt>
      <trkpt lat="45.44684" lon="4.2236">
        <ele>630.28</ele>
        <time>2022-04-17T10:26:54Z</time>
      </trkpt>
      <trkpt lat="45.44688" lon="4.22364">
        <ele>628.84</ele>
        <time>2022-04-17T10:26:57Z</time>
      </trkpt>
      <trkpt lat="45.44689" lon="4.22368">
        <ele>628.84</ele>
        <time>2022-04-17T10:26:58Z</time>
      </trkpt>
      <trkpt lat="45.44693" lon="4.22395">
        <ele>628.36</ele>
        <time>2022-04-17T10:27:10Z</time>
      </trkpt>
      <trkpt lat="45.44704" lon="4.22419">
        <ele>627.88</ele>
        <time>2022-04-17T10:27:22Z</time>
      </trkpt>
      <trkpt lat="45.44709" lon="4.22428">
        <ele>628.36</ele>
        <time>2022-04-17T10:27:26Z</time>
      </trkpt>
      <trkpt lat="45.44711" lon="4.2243">
        <ele>628.84</ele>
        <time>2022-04-17T10:27:27Z</time>
      </trkpt>
      <trkpt lat="45.44711" lon="4.22432">
        <ele>628.84</ele>
        <time>2022-04-17T10:27:28Z</time>
      </trkpt>
      <trkpt lat="45.44712" lon="4.22434">
        <ele>628.84</ele>
        <time>2022-04-17T10:27:29Z</time>
      </trkpt>
      <trkpt lat="45.44712" lon="4.22437">
        <ele>628.84</ele>
        <time>2022-04-17T10:27:30Z</time>
      </trkpt>
      <trkpt lat="45.44713" lon="4.22439">
        <ele>628.36</ele>
        <time>2022-04-17T10:27:31Z</time>
      </trkpt>
      <trkpt lat="45.44713" lon="4.22441">
        <ele>627.88</ele>
        <time>2022-04-17T10:27:32Z</time>
      </trkpt>
      <trkpt lat="45.44721" lon="4.22465">
        <ele>622.59</ele>
        <time>2022-04-17T10:27:45Z</time>
      </trkpt>
      <trkpt lat="45.44734" lon="4.2248">
        <ele>618.26</ele>
        <time>2022-04-17T10:27:58Z</time>
      </trkpt>
      <trkpt lat="45.44756" lon="4.2249">
        <ele>618.75</ele>
        <time>2022-04-17T10:28:13Z</time>
      </trkpt>
      <trkpt lat="45.44777" lon="4.22498">
        <ele>618.75</ele>
        <time>2022-04-17T10:28:26Z</time>
      </trkpt>
      <trkpt lat="45.44809" lon="4.22504">
        <ele>624.03</ele>
        <time>2022-04-17T10:28:42Z</time>
      </trkpt>
      <trkpt lat="45.4482" lon="4.22506">
        <ele>624.99</ele>
        <time>2022-04-17T10:28:48Z</time>
      </trkpt>
      <trkpt lat="45.44822" lon="4.22506">
        <ele>625.47</ele>
        <time>2022-04-17T10:28:49Z</time>
      </trkpt>
      <trkpt lat="45.44823" lon="4.22506">
        <ele>625.96</ele>
        <time>2022-04-17T10:28:50Z</time>
      </trkpt>
      <trkpt lat="45.44825" lon="4.22506">
        <ele>625.96</ele>
        <time>2022-04-17T10:28:51Z</time>
      </trkpt>
      <trkpt lat="45.44826" lon="4.22507">
        <ele>625.96</ele>
        <time>2022-04-17T10:28:52Z</time>
      </trkpt>
      <trkpt lat="45.44827" lon="4.22507">
        <ele>626.44</ele>
        <time>2022-04-17T10:28:53Z</time>
      </trkpt>
      <trkpt lat="45.44829" lon="4.22508">
        <ele>626.44</ele>
        <time>2022-04-17T10:28:54Z</time>
      </trkpt>
      <trkpt lat="45.44833" lon="4.22513">
        <ele>628.36</ele>
        <time>2022-04-17T10:29:01Z</time>
      </trkpt>
      <trkpt lat="45.44811" lon="4.22531">
        <ele>626.44</ele>
        <time>2022-04-17T10:29:17Z</time>
      </trkpt>
      <trkpt lat="45.44783" lon="4.22546">
        <ele>622.59</ele>
        <time>2022-04-17T10:29:34Z</time>
      </trkpt>
      <trkpt lat="45.44762" lon="4.22568">
        <ele>617.3</ele>
        <time>2022-04-17T10:29:49Z</time>
      </trkpt>
      <trkpt lat="45.44764" lon="4.22602">
        <ele>618.75</ele>
        <time>2022-04-17T10:30:01Z</time>
      </trkpt>
      <trkpt lat="45.44781" lon="4.22626">
        <ele>626.44</ele>
        <time>2022-04-17T10:30:15Z</time>
      </trkpt>
      <trkpt lat="45.44789" lon="4.22634">
        <ele>627.88</ele>
        <time>2022-04-17T10:30:22Z</time>
      </trkpt>
      <trkpt lat="45.44792" lon="4.22647">
        <ele>629.32</ele>
        <time>2022-04-17T10:30:28Z</time>
      </trkpt>
      <trkpt lat="45.44792" lon="4.2265">
        <ele>629.32</ele>
        <time>2022-04-17T10:30:29Z</time>
      </trkpt>
      <trkpt lat="45.44783" lon="4.22679">
        <ele>631.24</ele>
        <time>2022-04-17T10:30:45Z</time>
      </trkpt>
      <trkpt lat="45.44771" lon="4.22717">
        <ele>636.05</ele>
        <time>2022-04-17T10:31:06Z</time>
      </trkpt>
      <trkpt lat="45.44762" lon="4.22756">
        <ele>637.97</ele>
        <time>2022-04-17T10:31:27Z</time>
      </trkpt>
      <trkpt lat="45.44752" lon="4.22789">
        <ele>639.41</ele>
        <time>2022-04-17T10:31:46Z</time>
      </trkpt>
      <trkpt lat="45.44743" lon="4.22811">
        <ele>638.93</ele>
        <time>2022-04-17T10:32:02Z</time>
      </trkpt>
      <trkpt lat="45.44743" lon="4.22813">
        <ele>638.93</ele>
        <time>2022-04-17T10:32:03Z</time>
      </trkpt>
      <trkpt lat="45.44742" lon="4.22817">
        <ele>638.45</ele>
        <time>2022-04-17T10:32:06Z</time>
      </trkpt>
      <trkpt lat="45.44727" lon="4.22835">
        <ele>638.45</ele>
        <time>2022-04-17T10:32:22Z</time>
      </trkpt>
      <trkpt lat="45.44716" lon="4.22847">
        <ele>638.45</ele>
        <time>2022-04-17T10:32:35Z</time>
      </trkpt>
      <trkpt lat="45.44703" lon="4.22858">
        <ele>636.53</ele>
        <time>2022-04-17T10:32:49Z</time>
      </trkpt>
      <trkpt lat="45.44681" lon="4.22883">
        <ele>638.93</ele>
        <time>2022-04-17T10:33:07Z</time>
      </trkpt>
      <trkpt lat="45.44653" lon="4.22907">
        <ele>639.89</ele>
        <time>2022-04-17T10:33:27Z</time>
      </trkpt>
      <trkpt lat="45.4463" lon="4.22925">
        <ele>639.41</ele>
        <time>2022-04-17T10:33:44Z</time>
      </trkpt>
      <trkpt lat="45.44611" lon="4.22942">
        <ele>637.49</ele>
        <time>2022-04-17T10:34:00Z</time>
      </trkpt>
      <trkpt lat="45.4459" lon="4.22959">
        <ele>634.61</ele>
        <time>2022-04-17T10:34:17Z</time>
      </trkpt>
      <trkpt lat="45.44559" lon="4.22982">
        <ele>636.05</ele>
        <time>2022-04-17T10:34:39Z</time>
      </trkpt>
      <trkpt lat="45.44535" lon="4.23003">
        <ele>634.61</ele>
        <time>2022-04-17T10:35:00Z</time>
      </trkpt>
      <trkpt lat="45.44511" lon="4.23024">
        <ele>634.13</ele>
        <time>2022-04-17T10:35:21Z</time>
      </trkpt>
      <trkpt lat="45.44494" lon="4.23048">
        <ele>635.09</ele>
        <time>2022-04-17T10:35:38Z</time>
      </trkpt>
      <trkpt lat="45.44484" lon="4.23074">
        <ele>634.13</ele>
        <time>2022-04-17T10:35:54Z</time>
      </trkpt>
      <trkpt lat="45.44471" lon="4.23111">
        <ele>633.65</ele>
        <time>2022-04-17T10:36:12Z</time>
      </trkpt>
      <trkpt lat="45.44461" lon="4.23149">
        <ele>634.13</ele>
        <time>2022-04-17T10:36:31Z</time>
      </trkpt>
      <trkpt lat="45.44452" lon="4.23184">
        <ele>636.05</ele>
        <time>2022-04-17T10:36:48Z</time>
      </trkpt>
      <trkpt lat="45.44442" lon="4.23211">
        <ele>635.57</ele>
        <time>2022-04-17T10:37:03Z</time>
      </trkpt>
      <trkpt lat="45.44434" lon="4.23246">
        <ele>636.53</ele>
        <time>2022-04-17T10:37:22Z</time>
      </trkpt>
      <trkpt lat="45.44431" lon="4.23294">
        <ele>641.82</ele>
        <time>2022-04-17T10:37:45Z</time>
      </trkpt>
      <trkpt lat="45.4443" lon="4.2333">
        <ele>643.74</ele>
        <time>2022-04-17T10:38:04Z</time>
      </trkpt>
      <trkpt lat="45.44421" lon="4.23362">
        <ele>642.78</ele>
        <time>2022-04-17T10:38:22Z</time>
      </trkpt>
      <trkpt lat="45.44413" lon="4.23388">
        <ele>641.34</ele>
        <time>2022-04-17T10:38:38Z</time>
      </trkpt>
      <trkpt lat="45.44401" lon="4.23423">
        <ele>640.86</ele>
        <time>2022-04-17T10:38:58Z</time>
      </trkpt>
      <trkpt lat="45.44389" lon="4.23453">
        <ele>638.45</ele>
        <time>2022-04-17T10:39:16Z</time>
      </trkpt>
      <trkpt lat="45.44381" lon="4.23476">
        <ele>635.57</ele>
        <time>2022-04-17T10:39:30Z</time>
      </trkpt>
      <trkpt lat="45.44373" lon="4.23499">
        <ele>636.05</ele>
        <time>2022-04-17T10:39:43Z</time>
      </trkpt>
      <trkpt lat="45.44373" lon="4.23501">
        <ele>636.05</ele>
        <time>2022-04-17T10:39:44Z</time>
      </trkpt>
      <trkpt lat="45.44372" lon="4.23504">
        <ele>636.53</ele>
        <time>2022-04-17T10:39:45Z</time>
      </trkpt>
      <trkpt lat="45.44361" lon="4.23543">
        <ele>637.49</ele>
        <time>2022-04-17T10:40:05Z</time>
      </trkpt>
      <trkpt lat="45.44354" lon="4.23575">
        <ele>638.93</ele>
        <time>2022-04-17T10:40:22Z</time>
      </trkpt>
      <trkpt lat="45.44344" lon="4.23607">
        <ele>640.86</ele>
        <time>2022-04-17T10:40:39Z</time>
      </trkpt>
      <trkpt lat="45.44329" lon="4.23632">
        <ele>642.3</ele>
        <time>2022-04-17T10:40:56Z</time>
      </trkpt>
      <trkpt lat="45.44315" lon="4.23655">
        <ele>640.38</ele>
        <time>2022-04-17T10:41:14Z</time>
      </trkpt>
      <trkpt lat="45.44302" lon="4.23669">
        <ele>639.89</ele>
        <time>2022-04-17T10:41:30Z</time>
      </trkpt>
      <trkpt lat="45.44286" lon="4.23682">
        <ele>639.41</ele>
        <time>2022-04-17T10:41:47Z</time>
      </trkpt>
      <trkpt lat="45.44265" lon="4.23693">
        <ele>637.49</ele>
        <time>2022-04-17T10:42:04Z</time>
      </trkpt>
      <trkpt lat="45.44241" lon="4.2371">
        <ele>632.2</ele>
        <time>2022-04-17T10:42:24Z</time>
      </trkpt>
      <trkpt lat="45.44232" lon="4.23719">
        <ele>631.72</ele>
        <time>2022-04-17T10:42:32Z</time>
      </trkpt>
      <trkpt lat="45.4421" lon="4.23744">
        <ele>631.24</ele>
        <time>2022-04-17T10:42:50Z</time>
      </trkpt>
      <trkpt lat="45.4418" lon="4.23757">
        <ele>633.65</ele>
        <time>2022-04-17T10:43:10Z</time>
      </trkpt>
      <trkpt lat="45.44176" lon="4.23764">
        <ele>633.65</ele>
        <time>2022-04-17T10:43:16Z</time>
      </trkpt>
      <trkpt lat="45.44167" lon="4.23799">
        <ele>633.17</ele>
        <time>2022-04-17T10:43:33Z</time>
      </trkpt>
      <trkpt lat="45.44162" lon="4.23847">
        <ele>634.61</ele>
        <time>2022-04-17T10:43:56Z</time>
      </trkpt>
      <trkpt lat="45.44159" lon="4.23894">
        <ele>635.57</ele>
        <time>2022-04-17T10:44:19Z</time>
      </trkpt>
      <trkpt lat="45.44159" lon="4.23936">
        <ele>635.57</ele>
        <time>2022-04-17T10:44:41Z</time>
      </trkpt>
      <trkpt lat="45.44161" lon="4.23966">
        <ele>637.49</ele>
        <time>2022-04-17T10:44:58Z</time>
      </trkpt>
      <trkpt lat="45.44161" lon="4.23968">
        <ele>637.49</ele>
        <time>2022-04-17T10:44:59Z</time>
      </trkpt>
      <trkpt lat="45.4416" lon="4.2397">
        <ele>637.49</ele>
        <time>2022-04-17T10:45:00Z</time>
      </trkpt>
      <trkpt lat="45.4416" lon="4.23973">
        <ele>637.49</ele>
        <time>2022-04-17T10:45:01Z</time>
      </trkpt>
      <trkpt lat="45.44159" lon="4.23975">
        <ele>637.49</ele>
        <time>2022-04-17T10:45:02Z</time>
      </trkpt>
      <trkpt lat="45.44159" lon="4.23977">
        <ele>637.49</ele>
        <time>2022-04-17T10:45:03Z</time>
      </trkpt>
      <trkpt lat="45.44158" lon="4.23979">
        <ele>637.97</ele>
        <time>2022-04-17T10:45:04Z</time>
      </trkpt>
      <trkpt lat="45.44158" lon="4.23982">
        <ele>637.97</ele>
        <time>2022-04-17T10:45:05Z</time>
      </trkpt>
      <trkpt lat="45.44158" lon="4.23984">
        <ele>637.97</ele>
        <time>2022-04-17T10:45:06Z</time>
      </trkpt>
      <trkpt lat="45.44157" lon="4.23986">
        <ele>637.97</ele>
        <time>2022-04-17T10:45:07Z</time>
      </trkpt>
      <trkpt lat="45.44157" lon="4.23988">
        <ele>637.97</ele>
        <time>2022-04-17T10:45:08Z</time>
      </trkpt>
      <trkpt lat="45.44157" lon="4.2399">
        <ele>637.97</ele>
        <time>2022-04-17T10:45:09Z</time>
      </trkpt>
      <trkpt lat="45.44157" lon="4.23992">
        <ele>637.97</ele>
        <time>2022-04-17T10:45:10Z</time>
      </trkpt>
      <trkpt lat="45.44154" lon="4.2402">
        <ele>639.41</ele>
        <time>2022-04-17T10:45:25Z</time>
      </trkpt>
      <trkpt lat="45.44143" lon="4.2405">
        <ele>639.89</ele>
        <time>2022-04-17T10:45:42Z</time>
      </trkpt>
      <trkpt lat="45.44137" lon="4.24067">
        <ele>639.89</ele>
        <time>2022-04-17T10:45:54Z</time>
      </trkpt>
      <trkpt lat="45.44136" lon="4.24069">
        <ele>639.41</ele>
        <time>2022-04-17T10:45:55Z</time>
      </trkpt>
      <trkpt lat="45.44136" lon="4.24071">
        <ele>638.93</ele>
        <time>2022-04-17T10:45:56Z</time>
      </trkpt>
      <trkpt lat="45.44136" lon="4.24107">
        <ele>638.45</ele>
        <time>2022-04-17T10:46:13Z</time>
      </trkpt>
      <trkpt lat="45.4414" lon="4.24125">
        <ele>639.89</ele>
        <time>2022-04-17T10:46:26Z</time>
      </trkpt>
      <trkpt lat="45.44141" lon="4.24126">
        <ele>639.89</ele>
        <time>2022-04-17T10:46:27Z</time>
      </trkpt>
      <trkpt lat="45.44142" lon="4.24127">
        <ele>639.89</ele>
        <time>2022-04-17T10:46:28Z</time>
      </trkpt>
      <trkpt lat="45.44143" lon="4.24129">
        <ele>639.89</ele>
        <time>2022-04-17T10:46:29Z</time>
      </trkpt>
      <trkpt lat="45.44144" lon="4.2413">
        <ele>639.89</ele>
        <time>2022-04-17T10:46:30Z</time>
      </trkpt>
      <trkpt lat="45.44145" lon="4.24131">
        <ele>639.89</ele>
        <time>2022-04-17T10:46:31Z</time>
      </trkpt>
      <trkpt lat="45.44146" lon="4.24131">
        <ele>639.89</ele>
        <time>2022-04-17T10:46:32Z</time>
      </trkpt>
      <trkpt lat="45.44158" lon="4.24124">
        <ele>639.41</ele>
        <time>2022-04-17T10:46:48Z</time>
      </trkpt>
      <trkpt lat="45.4416" lon="4.24126">
        <ele>639.41</ele>
        <time>2022-04-17T10:46:50Z</time>
      </trkpt>
      <trkpt lat="45.44161" lon="4.24127">
        <ele>638.93</ele>
        <time>2022-04-17T10:46:51Z</time>
      </trkpt>
      <trkpt lat="45.44161" lon="4.24129">
        <ele>638.93</ele>
        <time>2022-04-17T10:46:52Z</time>
      </trkpt>
      <trkpt lat="45.4416" lon="4.24132">
        <ele>638.93</ele>
        <time>2022-04-17T10:46:53Z</time>
      </trkpt>
      <trkpt lat="45.4416" lon="4.24133">
        <ele>638.45</ele>
        <time>2022-04-17T10:46:54Z</time>
      </trkpt>
      <trkpt lat="45.44159" lon="4.24135">
        <ele>638.45</ele>
        <time>2022-04-17T10:46:55Z</time>
      </trkpt>
      <trkpt lat="45.44159" lon="4.24137">
        <ele>637.97</ele>
        <time>2022-04-17T10:46:56Z</time>
      </trkpt>
      <trkpt lat="45.44158" lon="4.24138">
        <ele>637.97</ele>
        <time>2022-04-17T10:46:57Z</time>
      </trkpt>
      <trkpt lat="45.44138" lon="4.24151">
        <ele>633.17</ele>
        <time>2022-04-17T10:47:13Z</time>
      </trkpt>
      <trkpt lat="45.44135" lon="4.24157">
        <ele>632.68</ele>
        <time>2022-04-17T10:47:17Z</time>
      </trkpt>
      <trkpt lat="45.44135" lon="4.24159">
        <ele>632.68</ele>
        <time>2022-04-17T10:47:18Z</time>
      </trkpt>
      <trkpt lat="45.44136" lon="4.24161">
        <ele>632.2</ele>
        <time>2022-04-17T10:47:19Z</time>
      </trkpt>
      <trkpt lat="45.4416" lon="4.24167">
        <ele>630.76</ele>
        <time>2022-04-17T10:47:37Z</time>
      </trkpt>
      <trkpt lat="45.44192" lon="4.24161">
        <ele>628.84</ele>
        <time>2022-04-17T10:47:58Z</time>
      </trkpt>
      <trkpt lat="45.44231" lon="4.24151">
        <ele>627.88</ele>
        <time>2022-04-17T10:48:24Z</time>
      </trkpt>
      <trkpt lat="45.44265" lon="4.24145">
        <ele>626.92</ele>
        <time>2022-04-17T10:48:46Z</time>
      </trkpt>
      <trkpt lat="45.44292" lon="4.24147">
        <ele>628.36</ele>
        <time>2022-04-17T10:49:04Z</time>
      </trkpt>
      <trkpt lat="45.44321" lon="4.24145">
        <ele>631.24</ele>
        <time>2022-04-17T10:49:24Z</time>
      </trkpt>
      <trkpt lat="45.4435" lon="4.24143">
        <ele>630.76</ele>
        <time>2022-04-17T10:49:44Z</time>
      </trkpt>
      <trkpt lat="45.44366" lon="4.24119">
        <ele>629.8</ele>
        <time>2022-04-17T10:49:59Z</time>
      </trkpt>
      <trkpt lat="45.44368" lon="4.24074">
        <ele>630.28</ele>
        <time>2022-04-17T10:50:19Z</time>
      </trkpt>
      <trkpt lat="45.44366" lon="4.24032">
        <ele>629.8</ele>
        <time>2022-04-17T10:50:39Z</time>
      </trkpt>
      <trkpt lat="45.4435" lon="4.24008">
        <ele>630.28</ele>
        <time>2022-04-17T10:50:58Z</time>
      </trkpt>
      <trkpt lat="45.44352" lon="4.24007">
        <ele>629.8</ele>
        <time>2022-04-17T10:51:00Z</time>
      </trkpt>
      <trkpt lat="45.44353" lon="4.24007">
        <ele>629.8</ele>
        <time>2022-04-17T10:51:01Z</time>
      </trkpt>
      <trkpt lat="45.44355" lon="4.24008">
        <ele>629.32</ele>
        <time>2022-04-17T10:51:02Z</time>
      </trkpt>
      <trkpt lat="45.44356" lon="4.24008">
        <ele>629.32</ele>
        <time>2022-04-17T10:51:03Z</time>
      </trkpt>
      <trkpt lat="45.44357" lon="4.24009">
        <ele>628.84</ele>
        <time>2022-04-17T10:51:04Z</time>
      </trkpt>
      <trkpt lat="45.44358" lon="4.2401">
        <ele>628.84</ele>
        <time>2022-04-17T10:51:05Z</time>
      </trkpt>
      <trkpt lat="45.44378" lon="4.24022">
        <ele>626.44</ele>
        <time>2022-04-17T10:51:21Z</time>
      </trkpt>
      <trkpt lat="45.44414" lon="4.24019">
        <ele>622.11</ele>
        <time>2022-04-17T10:51:47Z</time>
      </trkpt>
      <trkpt lat="45.4445" lon="4.24024">
        <ele>619.71</ele>
        <time>2022-04-17T10:52:12Z</time>
      </trkpt>
      <trkpt lat="45.44477" lon="4.24038">
        <ele>619.71</ele>
        <time>2022-04-17T10:52:32Z</time>
      </trkpt>
      <trkpt lat="45.44511" lon="4.24055">
        <ele>619.71</ele>
        <time>2022-04-17T10:52:43Z</time>
      </trkpt>
      <trkpt lat="45.4456" lon="4.24062">
        <ele>621.63</ele>
        <time>2022-04-17T10:52:56Z</time>
      </trkpt>
      <trkpt lat="45.44625" lon="4.24085">
        <ele>623.55</ele>
        <time>2022-04-17T10:53:12Z</time>
      </trkpt>
      <trkpt lat="45.44644" lon="4.24095">
        <ele>624.99</ele>
        <time>2022-04-17T10:53:16Z</time>
      </trkpt>
      <trkpt lat="45.44663" lon="4.2411">
        <ele>625.96</ele>
        <time>2022-04-17T10:53:20Z</time>
      </trkpt>
      <trkpt lat="45.44667" lon="4.24114">
        <ele>625.96</ele>
        <time>2022-04-17T10:53:21Z</time>
      </trkpt>
      <trkpt lat="45.44671" lon="4.24117">
        <ele>626.44</ele>
        <time>2022-04-17T10:53:22Z</time>
      </trkpt>
      <trkpt lat="45.44675" lon="4.24118">
        <ele>626.44</ele>
        <time>2022-04-17T10:53:23Z</time>
      </trkpt>
      <trkpt lat="45.44678" lon="4.24119">
        <ele>626.92</ele>
        <time>2022-04-17T10:53:24Z</time>
      </trkpt>
      <trkpt lat="45.44682" lon="4.2412">
        <ele>626.92</ele>
        <time>2022-04-17T10:53:25Z</time>
      </trkpt>
      <trkpt lat="45.44686" lon="4.2412">
        <ele>626.92</ele>
        <time>2022-04-17T10:53:26Z</time>
      </trkpt>
      <trkpt lat="45.44745" lon="4.24132">
        <ele>627.88</ele>
        <time>2022-04-17T10:53:40Z</time>
      </trkpt>
      <trkpt lat="45.44774" lon="4.24142">
        <ele>628.84</ele>
        <time>2022-04-17T10:53:53Z</time>
      </trkpt>
      <trkpt lat="45.44802" lon="4.2415">
        <ele>626.44</ele>
        <time>2022-04-17T10:54:13Z</time>
      </trkpt>
      <trkpt lat="45.44824" lon="4.24162">
        <ele>624.03</ele>
        <time>2022-04-17T10:54:29Z</time>
      </trkpt>
      <trkpt lat="45.44854" lon="4.2417">
        <ele>622.11</ele>
        <time>2022-04-17T10:54:48Z</time>
      </trkpt>
      <trkpt lat="45.44877" lon="4.24177">
        <ele>620.67</ele>
        <time>2022-04-17T10:55:04Z</time>
      </trkpt>
      <trkpt lat="45.44904" lon="4.24187">
        <ele>617.78</ele>
        <time>2022-04-17T10:55:21Z</time>
      </trkpt>
      <trkpt lat="45.4493" lon="4.24191">
        <ele>612.98</ele>
        <time>2022-04-17T10:55:40Z</time>
      </trkpt>
      <trkpt lat="45.44932" lon="4.24191">
        <ele>612.5</ele>
        <time>2022-04-17T10:55:42Z</time>
      </trkpt>
      <trkpt lat="45.44933" lon="4.24191">
        <ele>612.5</ele>
        <time>2022-04-17T10:55:43Z</time>
      </trkpt>
      <trkpt lat="45.44964" lon="4.24192">
        <ele>607.21</ele>
        <time>2022-04-17T10:56:04Z</time>
      </trkpt>
      <trkpt lat="45.44987" lon="4.24187">
        <ele>605.29</ele>
        <time>2022-04-17T10:56:21Z</time>
      </trkpt>
      <trkpt lat="45.44999" lon="4.24179">
        <ele>604.33</ele>
        <time>2022-04-17T10:56:36Z</time>
      </trkpt>
      <trkpt lat="45.45019" lon="4.24176">
        <ele>600</ele>
        <time>2022-04-17T10:56:52Z</time>
      </trkpt>
      <trkpt lat="45.45041" lon="4.24168">
        <ele>597.12</ele>
        <time>2022-04-17T10:57:07Z</time>
      </trkpt>
      <trkpt lat="45.45065" lon="4.2415">
        <ele>594.71</ele>
        <time>2022-04-17T10:57:24Z</time>
      </trkpt>
      <trkpt lat="45.45061" lon="4.24117">
        <ele>593.75</ele>
        <time>2022-04-17T10:57:39Z</time>
      </trkpt>
      <trkpt lat="45.4504" lon="4.24089">
        <ele>592.31</ele>
        <time>2022-04-17T10:57:54Z</time>
      </trkpt>
      <trkpt lat="45.4504" lon="4.24072">
        <ele>588.46</ele>
        <time>2022-04-17T10:58:07Z</time>
      </trkpt>
      <trkpt lat="45.45041" lon="4.24063">
        <ele>586.06</ele>
        <time>2022-04-17T10:58:12Z</time>
      </trkpt>
      <trkpt lat="45.45041" lon="4.24061">
        <ele>586.06</ele>
        <time>2022-04-17T10:58:13Z</time>
      </trkpt>
      <trkpt lat="45.45042" lon="4.24059">
        <ele>585.58</ele>
        <time>2022-04-17T10:58:14Z</time>
      </trkpt>
      <trkpt lat="45.45044" lon="4.24057">
        <ele>585.1</ele>
        <time>2022-04-17T10:58:16Z</time>
      </trkpt>
      <trkpt lat="45.45045" lon="4.24054">
        <ele>585.1</ele>
        <time>2022-04-17T10:58:18Z</time>
      </trkpt>
      <trkpt lat="45.45048" lon="4.24041">
        <ele>584.62</ele>
        <time>2022-04-17T10:58:23Z</time>
      </trkpt>
      <trkpt lat="45.45053" lon="4.24011">
        <ele>586.06</ele>
        <time>2022-04-17T10:58:36Z</time>
      </trkpt>
      <trkpt lat="45.45053" lon="4.23992">
        <ele>588.46</ele>
        <time>2022-04-17T10:58:44Z</time>
      </trkpt>
      <trkpt lat="45.45054" lon="4.23979">
        <ele>589.43</ele>
        <time>2022-04-17T10:58:50Z</time>
      </trkpt>
      <trkpt lat="45.45051" lon="4.23967">
        <ele>590.87</ele>
        <time>2022-04-17T10:58:54Z</time>
      </trkpt>
      <trkpt lat="45.45043" lon="4.23933">
        <ele>589.91</ele>
        <time>2022-04-17T10:59:08Z</time>
      </trkpt>
      <trkpt lat="45.45042" lon="4.2393">
        <ele>588.95</ele>
        <time>2022-04-17T10:59:10Z</time>
      </trkpt>
      <trkpt lat="45.45042" lon="4.23923">
        <ele>588.46</ele>
        <time>2022-04-17T10:59:14Z</time>
      </trkpt>
      <trkpt lat="45.45041" lon="4.23916">
        <ele>587.5</ele>
        <time>2022-04-17T10:59:18Z</time>
      </trkpt>
      <trkpt lat="45.45038" lon="4.23908">
        <ele>587.02</ele>
        <time>2022-04-17T10:59:21Z</time>
      </trkpt>
      <trkpt lat="45.45037" lon="4.23875">
        <ele>587.98</ele>
        <time>2022-04-17T10:59:35Z</time>
      </trkpt>
      <trkpt lat="45.45022" lon="4.23826">
        <ele>589.91</ele>
        <time>2022-04-17T10:59:53Z</time>
      </trkpt>
      <trkpt lat="45.4502" lon="4.23771">
        <ele>587.5</ele>
        <time>2022-04-17T11:00:02Z</time>
      </trkpt>
      <trkpt lat="45.45024" lon="4.23756">
        <ele>587.02</ele>
        <time>2022-04-17T11:00:04Z</time>
      </trkpt>
      <trkpt lat="45.45026" lon="4.23749">
        <ele>587.02</ele>
        <time>2022-04-17T11:00:05Z</time>
      </trkpt>
      <trkpt lat="45.45029" lon="4.23744">
        <ele>587.02</ele>
        <time>2022-04-17T11:00:06Z</time>
      </trkpt>
      <trkpt lat="45.45033" lon="4.23739">
        <ele>587.02</ele>
        <time>2022-04-17T11:00:07Z</time>
      </trkpt>
      <trkpt lat="45.45036" lon="4.23736">
        <ele>587.5</ele>
        <time>2022-04-17T11:00:08Z</time>
      </trkpt>
      <trkpt lat="45.45039" lon="4.23733">
        <ele>587.5</ele>
        <time>2022-04-17T11:00:09Z</time>
      </trkpt>
      <trkpt lat="45.45042" lon="4.23728">
        <ele>587.98</ele>
        <time>2022-04-17T11:00:10Z</time>
      </trkpt>
      <trkpt lat="45.45044" lon="4.23723">
        <ele>587.98</ele>
        <time>2022-04-17T11:00:11Z</time>
      </trkpt>
      <trkpt lat="45.45046" lon="4.23717">
        <ele>587.98</ele>
        <time>2022-04-17T11:00:12Z</time>
      </trkpt>
      <trkpt lat="45.45047" lon="4.23712">
        <ele>587.98</ele>
        <time>2022-04-17T11:00:13Z</time>
      </trkpt>
      <trkpt lat="45.45049" lon="4.23706">
        <ele>587.98</ele>
        <time>2022-04-17T11:00:14Z</time>
      </trkpt>
      <trkpt lat="45.4505" lon="4.237">
        <ele>587.5</ele>
        <time>2022-04-17T11:00:15Z</time>
      </trkpt>
      <trkpt lat="45.4505" lon="4.23694">
        <ele>587.5</ele>
        <time>2022-04-17T11:00:16Z</time>
      </trkpt>
      <trkpt lat="45.45049" lon="4.23687">
        <ele>587.02</ele>
        <time>2022-04-17T11:00:17Z</time>
      </trkpt>
      <trkpt lat="45.45048" lon="4.2368">
        <ele>586.54</ele>
        <time>2022-04-17T11:00:18Z</time>
      </trkpt>
      <trkpt lat="45.45043" lon="4.23638">
        <ele>584.14</ele>
        <time>2022-04-17T11:00:24Z</time>
      </trkpt>
      <trkpt lat="45.45043" lon="4.23631">
        <ele>583.66</ele>
        <time>2022-04-17T11:00:25Z</time>
      </trkpt>
      <trkpt lat="45.45043" lon="4.23625">
        <ele>583.66</ele>
        <time>2022-04-17T11:00:26Z</time>
      </trkpt>
      <trkpt lat="45.45044" lon="4.23618">
        <ele>583.18</ele>
        <time>2022-04-17T11:00:27Z</time>
      </trkpt>
      <trkpt lat="45.45045" lon="4.23613">
        <ele>582.7</ele>
        <time>2022-04-17T11:00:28Z</time>
      </trkpt>
      <trkpt lat="45.45046" lon="4.23608">
        <ele>583.18</ele>
        <time>2022-04-17T11:00:29Z</time>
      </trkpt>
      <trkpt lat="45.45046" lon="4.23605">
        <ele>583.18</ele>
        <time>2022-04-17T11:00:30Z</time>
      </trkpt>
      <trkpt lat="45.45058" lon="4.23577">
        <ele>587.02</ele>
        <time>2022-04-17T11:00:43Z</time>
      </trkpt>
      <trkpt lat="45.45089" lon="4.23561">
        <ele>591.35</ele>
        <time>2022-04-17T11:00:58Z</time>
      </trkpt>
      <trkpt lat="45.45111" lon="4.23541">
        <ele>595.19</ele>
        <time>2022-04-17T11:01:12Z</time>
      </trkpt>
      <trkpt lat="45.45117" lon="4.23534">
        <ele>596.15</ele>
        <time>2022-04-17T11:01:17Z</time>
      </trkpt>
      <trkpt lat="45.45118" lon="4.23534">
        <ele>596.15</ele>
        <time>2022-04-17T11:01:18Z</time>
      </trkpt>
      <trkpt lat="45.4512" lon="4.23534">
        <ele>596.64</ele>
        <time>2022-04-17T11:01:19Z</time>
      </trkpt>
      <trkpt lat="45.45121" lon="4.23535">
        <ele>596.64</ele>
        <time>2022-04-17T11:01:20Z</time>
      </trkpt>
      <trkpt lat="45.45122" lon="4.23536">
        <ele>596.64</ele>
        <time>2022-04-17T11:01:21Z</time>
      </trkpt>
      <trkpt lat="45.45124" lon="4.23537">
        <ele>596.64</ele>
        <time>2022-04-17T11:01:22Z</time>
      </trkpt>
      <trkpt lat="45.45125" lon="4.23539">
        <ele>596.64</ele>
        <time>2022-04-17T11:01:23Z</time>
      </trkpt>
      <trkpt lat="45.45126" lon="4.2354">
        <ele>596.15</ele>
        <time>2022-04-17T11:01:24Z</time>
      </trkpt>
      <trkpt lat="45.45133" lon="4.23573">
        <ele>598.08</ele>
        <time>2022-04-17T11:01:38Z</time>
      </trkpt>
      <trkpt lat="45.45139" lon="4.23616">
        <ele>599.52</ele>
        <time>2022-04-17T11:01:57Z</time>
      </trkpt>
      <trkpt lat="45.45141" lon="4.23658">
        <ele>600.48</ele>
        <time>2022-04-17T11:02:17Z</time>
      </trkpt>
      <trkpt lat="45.45146" lon="4.23697">
        <ele>602.88</ele>
        <time>2022-04-17T11:02:36Z</time>
      </trkpt>
      <trkpt lat="45.45147" lon="4.23698">
        <ele>602.88</ele>
        <time>2022-04-17T11:02:37Z</time>
      </trkpt>
      <trkpt lat="45.45149" lon="4.23698">
        <ele>602.88</ele>
        <time>2022-04-17T11:02:38Z</time>
      </trkpt>
      <trkpt lat="45.45179" lon="4.23701">
        <ele>603.36</ele>
        <time>2022-04-17T11:02:56Z</time>
      </trkpt>
      <trkpt lat="45.45211" lon="4.237">
        <ele>605.77</ele>
        <time>2022-04-17T11:03:18Z</time>
      </trkpt>
      <trkpt lat="45.45246" lon="4.23696">
        <ele>605.77</ele>
        <time>2022-04-17T11:03:40Z</time>
      </trkpt>
      <trkpt lat="45.45281" lon="4.23699">
        <ele>603.85</ele>
        <time>2022-04-17T11:03:58Z</time>
      </trkpt>
      <trkpt lat="45.4531" lon="4.23705">
        <ele>601.44</ele>
        <time>2022-04-17T11:04:17Z</time>
      </trkpt>
      <trkpt lat="45.45342" lon="4.23707">
        <ele>599.52</ele>
        <time>2022-04-17T11:04:39Z</time>
      </trkpt>
      <trkpt lat="45.45375" lon="4.23698">
        <ele>597.12</ele>
        <time>2022-04-17T11:04:59Z</time>
      </trkpt>
      <trkpt lat="45.45406" lon="4.23681">
        <ele>593.27</ele>
        <time>2022-04-17T11:05:20Z</time>
      </trkpt>
      <trkpt lat="45.45425" lon="4.23662">
        <ele>590.87</ele>
        <time>2022-04-17T11:05:36Z</time>
      </trkpt>
      <trkpt lat="45.45448" lon="4.23684">
        <ele>586.54</ele>
        <time>2022-04-17T11:05:54Z</time>
      </trkpt>
      <trkpt lat="45.45479" lon="4.23715">
        <ele>581.25</ele>
        <time>2022-04-17T11:06:19Z</time>
      </trkpt>
      <trkpt lat="45.45506" lon="4.23739">
        <ele>578.85</ele>
        <time>2022-04-17T11:06:39Z</time>
      </trkpt>
      <trkpt lat="45.45536" lon="4.23759">
        <ele>577.41</ele>
        <time>2022-04-17T11:07:00Z</time>
      </trkpt>
      <trkpt lat="45.45563" lon="4.23778">
        <ele>575.49</ele>
        <time>2022-04-17T11:07:20Z</time>
      </trkpt>
      <trkpt lat="45.45584" lon="4.23804">
        <ele>573.56</ele>
        <time>2022-04-17T11:07:38Z</time>
      </trkpt>
      <trkpt lat="45.45599" lon="4.23844">
        <ele>574.04</ele>
        <time>2022-04-17T11:07:57Z</time>
      </trkpt>
      <trkpt lat="45.4562" lon="4.23876">
        <ele>573.56</ele>
        <time>2022-04-17T11:08:16Z</time>
      </trkpt>
      <trkpt lat="45.4564" lon="4.2391">
        <ele>572.12</ele>
        <time>2022-04-17T11:08:35Z</time>
      </trkpt>
      <trkpt lat="45.45659" lon="4.23941">
        <ele>572.12</ele>
        <time>2022-04-17T11:08:50Z</time>
      </trkpt>
      <trkpt lat="45.45679" lon="4.23975">
        <ele>572.12</ele>
        <time>2022-04-17T11:09:08Z</time>
      </trkpt>
      <trkpt lat="45.457" lon="4.24002">
        <ele>570.68</ele>
        <time>2022-04-17T11:09:26Z</time>
      </trkpt>
      <trkpt lat="45.45709" lon="4.24031">
        <ele>571.16</ele>
        <time>2022-04-17T11:09:41Z</time>
      </trkpt>
      <trkpt lat="45.45712" lon="4.24068">
        <ele>572.12</ele>
        <time>2022-04-17T11:09:57Z</time>
      </trkpt>
      <trkpt lat="45.45716" lon="4.24108">
        <ele>571.64</ele>
        <time>2022-04-17T11:10:10Z</time>
      </trkpt>
      <trkpt lat="45.45734" lon="4.24141">
        <ele>573.08</ele>
        <time>2022-04-17T11:10:30Z</time>
      </trkpt>
      <trkpt lat="45.45758" lon="4.24166">
        <ele>570.68</ele>
        <time>2022-04-17T11:10:47Z</time>
      </trkpt>
      <trkpt lat="45.45772" lon="4.24199">
        <ele>571.16</ele>
        <time>2022-04-17T11:10:58Z</time>
      </trkpt>
      <trkpt lat="45.4579" lon="4.24231">
        <ele>573.08</ele>
        <time>2022-04-17T11:11:15Z</time>
      </trkpt>
      <trkpt lat="45.45796" lon="4.24241">
        <ele>572.6</ele>
        <time>2022-04-17T11:11:20Z</time>
      </trkpt>
      <trkpt lat="45.45796" lon="4.24244">
        <ele>572.6</ele>
        <time>2022-04-17T11:11:21Z</time>
      </trkpt>
      <trkpt lat="45.45808" lon="4.24276">
        <ele>570.68</ele>
        <time>2022-04-17T11:11:35Z</time>
      </trkpt>
      <trkpt lat="45.45819" lon="4.24312">
        <ele>570.68</ele>
        <time>2022-04-17T11:11:52Z</time>
      </trkpt>
      <trkpt lat="45.45828" lon="4.24353">
        <ele>572.6</ele>
        <time>2022-04-17T11:12:10Z</time>
      </trkpt>
      <trkpt lat="45.45837" lon="4.24398">
        <ele>573.56</ele>
        <time>2022-04-17T11:12:31Z</time>
      </trkpt>
      <trkpt lat="45.45849" lon="4.24435">
        <ele>572.6</ele>
        <time>2022-04-17T11:12:48Z</time>
      </trkpt>
      <trkpt lat="45.4587" lon="4.24464">
        <ele>570.68</ele>
        <time>2022-04-17T11:13:06Z</time>
      </trkpt>
      <trkpt lat="45.45891" lon="4.24494">
        <ele>569.72</ele>
        <time>2022-04-17T11:13:22Z</time>
      </trkpt>
      <trkpt lat="45.45914" lon="4.24523">
        <ele>569.24</ele>
        <time>2022-04-17T11:13:39Z</time>
      </trkpt>
      <trkpt lat="45.4594" lon="4.24544">
        <ele>569.72</ele>
        <time>2022-04-17T11:13:58Z</time>
      </trkpt>
      <trkpt lat="45.4598" lon="4.24541">
        <ele>570.68</ele>
        <time>2022-04-17T11:14:12Z</time>
      </trkpt>
      <trkpt lat="45.46015" lon="4.24536">
        <ele>570.2</ele>
        <time>2022-04-17T11:14:22Z</time>
      </trkpt>
      <trkpt lat="45.46039" lon="4.24534">
        <ele>569.24</ele>
        <time>2022-04-17T11:14:27Z</time>
      </trkpt>
      <trkpt lat="45.46077" lon="4.24529">
        <ele>567.8</ele>
        <time>2022-04-17T11:14:38Z</time>
      </trkpt>
      <trkpt lat="45.46099" lon="4.24531">
        <ele>568.28</ele>
        <time>2022-04-17T11:14:54Z</time>
      </trkpt>
      <trkpt lat="45.46099" lon="4.24531">
        <ele>568.76</ele>
        <time>2022-04-17T11:15:00Z</time>
      </trkpt>
      <trkpt lat="45.46102" lon="4.24538">
        <ele>568.28</ele>
        <time>2022-04-17T11:15:04Z</time>
      </trkpt>
      <trkpt lat="45.46113" lon="4.24572">
        <ele>568.28</ele>
        <time>2022-04-17T11:15:20Z</time>
      </trkpt>
      <trkpt lat="45.4613" lon="4.24592">
        <ele>570.68</ele>
        <time>2022-04-17T11:15:35Z</time>
      </trkpt>
      <trkpt lat="45.46131" lon="4.24593">
        <ele>571.16</ele>
        <time>2022-04-17T11:15:44Z</time>
      </trkpt>
      <trkpt lat="45.46128" lon="4.24592">
        <ele>570.68</ele>
        <time>2022-04-17T11:15:47Z</time>
      </trkpt>
      <trkpt lat="45.46124" lon="4.246">
        <ele>571.16</ele>
        <time>2022-04-17T11:16:00Z</time>
      </trkpt>
      <trkpt lat="45.46123" lon="4.24602">
        <ele>571.64</ele>
        <time>2022-04-17T11:16:20Z</time>
      </trkpt>
      <trkpt lat="45.46123" lon="4.24605">
        <ele>571.16</ele>
        <time>2022-04-17T11:16:50Z</time>
      </trkpt>
      <trkpt lat="45.46127" lon="4.24606">
        <ele>571.16</ele>
        <time>2022-04-17T11:17:18Z</time>
      </trkpt>
      <trkpt lat="45.46128" lon="4.24607">
        <ele>571.16</ele>
        <time>2022-04-17T11:17:19Z</time>
      </trkpt>
      <trkpt lat="45.46132" lon="4.24606">
        <ele>571.16</ele>
        <time>2022-04-17T11:17:32Z</time>
      </trkpt>
      <trkpt lat="45.46139" lon="4.24594">
        <ele>570.2</ele>
        <time>2022-04-17T11:17:44Z</time>
      </trkpt>
      <trkpt lat="45.46131" lon="4.24584">
        <ele>568.76</ele>
        <time>2022-04-17T11:17:54Z</time>
      </trkpt>
      <trkpt lat="45.4613" lon="4.24576">
        <ele>567.8</ele>
        <time>2022-04-17T11:17:58Z</time>
      </trkpt>
      <trkpt lat="45.46132" lon="4.24561">
        <ele>565.87</ele>
        <time>2022-04-17T11:18:05Z</time>
      </trkpt>
      <trkpt lat="45.46133" lon="4.24555">
        <ele>565.39</ele>
        <time>2022-04-17T11:18:09Z</time>
      </trkpt>
      <trkpt lat="45.46148" lon="4.24519">
        <ele>563.47</ele>
        <time>2022-04-17T11:18:29Z</time>
      </trkpt>
      <trkpt lat="45.46151" lon="4.24493">
        <ele>562.51</ele>
        <time>2022-04-17T11:18:45Z</time>
      </trkpt>
      <trkpt lat="45.46148" lon="4.24468">
        <ele>562.51</ele>
        <time>2022-04-17T11:19:00Z</time>
      </trkpt>
      <trkpt lat="45.46147" lon="4.24466">
        <ele>564.91</ele>
        <time>2022-04-17T11:19:21Z</time>
      </trkpt>
      <trkpt lat="45.46148" lon="4.24469">
        <ele>565.39</ele>
        <time>2022-04-17T11:19:43Z</time>
      </trkpt>
      <trkpt lat="45.46148" lon="4.24468">
        <ele>565.39</ele>
        <time>2022-04-17T11:20:06Z</time>
      </trkpt>
      <trkpt lat="45.46147" lon="4.24473">
        <ele>566.83</ele>
        <time>2022-04-17T11:20:31Z</time>
      </trkpt>
      <trkpt lat="45.46147" lon="4.24475">
        <ele>564.91</ele>
        <time>2022-04-17T11:20:52Z</time>
      </trkpt>
      <trkpt lat="45.46145" lon="4.24466">
        <ele>566.83</ele>
        <time>2022-04-17T11:21:05Z</time>
      </trkpt>
      <trkpt lat="45.46143" lon="4.24466">
        <ele>565.39</ele>
        <time>2022-04-17T11:21:30Z</time>
      </trkpt>
      <trkpt lat="45.46142" lon="4.24465">
        <ele>566.35</ele>
        <time>2022-04-17T11:21:58Z</time>
      </trkpt>
      <trkpt lat="45.46142" lon="4.24464">
        <ele>566.35</ele>
        <time>2022-04-17T11:22:20Z</time>
      </trkpt>
      <trkpt lat="45.46142" lon="4.24464">
        <ele>567.32</ele>
        <time>2022-04-17T11:22:52Z</time>
      </trkpt>
      <trkpt lat="45.46144" lon="4.24465">
        <ele>569.72</ele>
        <time>2022-04-17T11:23:19Z</time>
      </trkpt>
      <trkpt lat="45.46145" lon="4.24465">
        <ele>574.04</ele>
        <time>2022-04-17T11:23:42Z</time>
      </trkpt>
      <trkpt lat="45.46148" lon="4.24469">
        <ele>571.64</ele>
        <time>2022-04-17T11:24:03Z</time>
      </trkpt>
      <trkpt lat="45.4615" lon="4.24467">
        <ele>570.2</ele>
        <time>2022-04-17T11:24:14Z</time>
      </trkpt>
      <trkpt lat="45.46149" lon="4.24465">
        <ele>568.76</ele>
        <time>2022-04-17T11:24:24Z</time>
      </trkpt>
      <trkpt lat="45.46144" lon="4.24528">
        <ele>563.47</ele>
        <time>2022-04-17T12:52:15Z</time>
      </trkpt>
      <trkpt lat="45.46141" lon="4.24534">
        <ele>567.32</ele>
        <time>2022-04-17T12:52:23Z</time>
      </trkpt>
      <trkpt lat="45.4612" lon="4.24558">
        <ele>566.83</ele>
        <time>2022-04-17T12:52:44Z</time>
      </trkpt>
      <trkpt lat="45.46122" lon="4.24585">
        <ele>567.8</ele>
        <time>2022-04-17T12:52:59Z</time>
      </trkpt>
      <trkpt lat="45.46125" lon="4.24588">
        <ele>567.8</ele>
        <time>2022-04-17T12:53:02Z</time>
      </trkpt>
      <trkpt lat="45.46129" lon="4.24589">
        <ele>567.8</ele>
        <time>2022-04-17T12:53:06Z</time>
      </trkpt>
      <trkpt lat="45.46162" lon="4.24582">
        <ele>566.35</ele>
        <time>2022-04-17T12:53:29Z</time>
      </trkpt>
      <trkpt lat="45.46191" lon="4.24566">
        <ele>567.32</ele>
        <time>2022-04-17T12:53:48Z</time>
      </trkpt>
      <trkpt lat="45.46211" lon="4.24543">
        <ele>566.35</ele>
        <time>2022-04-17T12:54:04Z</time>
      </trkpt>
      <trkpt lat="45.46218" lon="4.24528">
        <ele>563.95</ele>
        <time>2022-04-17T12:54:13Z</time>
      </trkpt>
      <trkpt lat="45.46213" lon="4.2452">
        <ele>562.51</ele>
        <time>2022-04-17T12:54:18Z</time>
      </trkpt>
      <trkpt lat="45.46196" lon="4.24489">
        <ele>557.7</ele>
        <time>2022-04-17T12:54:38Z</time>
      </trkpt>
      <trkpt lat="45.46193" lon="4.24449">
        <ele>554.82</ele>
        <time>2022-04-17T12:54:57Z</time>
      </trkpt>
      <trkpt lat="45.4619" lon="4.24425">
        <ele>552.41</ele>
        <time>2022-04-17T12:55:10Z</time>
      </trkpt>
      <trkpt lat="45.46185" lon="4.24401">
        <ele>550.01</ele>
        <time>2022-04-17T12:55:24Z</time>
      </trkpt>
      <trkpt lat="45.46185" lon="4.24393">
        <ele>549.53</ele>
        <time>2022-04-17T12:55:28Z</time>
      </trkpt>
      <trkpt lat="45.46188" lon="4.24372">
        <ele>549.05</ele>
        <time>2022-04-17T12:55:37Z</time>
      </trkpt>
      <trkpt lat="45.46186" lon="4.24335">
        <ele>549.53</ele>
        <time>2022-04-17T12:55:52Z</time>
      </trkpt>
      <trkpt lat="45.46179" lon="4.24294">
        <ele>551.45</ele>
        <time>2022-04-17T12:56:11Z</time>
      </trkpt>
      <trkpt lat="45.46182" lon="4.24252">
        <ele>550.97</ele>
        <time>2022-04-17T12:56:29Z</time>
      </trkpt>
      <trkpt lat="45.46185" lon="4.24235">
        <ele>551.93</ele>
        <time>2022-04-17T12:56:37Z</time>
      </trkpt>
      <trkpt lat="45.46182" lon="4.24203">
        <ele>552.41</ele>
        <time>2022-04-17T12:56:53Z</time>
      </trkpt>
      <trkpt lat="45.46175" lon="4.24175">
        <ele>551.93</ele>
        <time>2022-04-17T12:57:07Z</time>
      </trkpt>
      <trkpt lat="45.46172" lon="4.24166">
        <ele>551.45</ele>
        <time>2022-04-17T12:57:12Z</time>
      </trkpt>
      <trkpt lat="45.46165" lon="4.24134">
        <ele>550.97</ele>
        <time>2022-04-17T12:57:27Z</time>
      </trkpt>
      <trkpt lat="45.46157" lon="4.24107">
        <ele>550.97</ele>
        <time>2022-04-17T12:57:42Z</time>
      </trkpt>
      <trkpt lat="45.46155" lon="4.24081">
        <ele>550.97</ele>
        <time>2022-04-17T12:57:54Z</time>
      </trkpt>
      <trkpt lat="45.46161" lon="4.24066">
        <ele>550.97</ele>
        <time>2022-04-17T12:58:01Z</time>
      </trkpt>
      <trkpt lat="45.46168" lon="4.24071">
        <ele>550.01</ele>
        <time>2022-04-17T12:58:07Z</time>
      </trkpt>
      <trkpt lat="45.46169" lon="4.24079">
        <ele>549.53</ele>
        <time>2022-04-17T12:58:11Z</time>
      </trkpt>
      <trkpt lat="45.46171" lon="4.2409">
        <ele>549.05</ele>
        <time>2022-04-17T12:58:17Z</time>
      </trkpt>
      <trkpt lat="45.46175" lon="4.24099">
        <ele>548.57</ele>
        <time>2022-04-17T12:58:22Z</time>
      </trkpt>
      <trkpt lat="45.46179" lon="4.24107">
        <ele>548.09</ele>
        <time>2022-04-17T12:58:26Z</time>
      </trkpt>
      <trkpt lat="45.46184" lon="4.24114">
        <ele>547.61</ele>
        <time>2022-04-17T12:58:30Z</time>
      </trkpt>
      <trkpt lat="45.46189" lon="4.2412">
        <ele>547.61</ele>
        <time>2022-04-17T12:58:34Z</time>
      </trkpt>
      <trkpt lat="45.46197" lon="4.24128">
        <ele>547.13</ele>
        <time>2022-04-17T12:58:42Z</time>
      </trkpt>
      <trkpt lat="45.46216" lon="4.24134">
        <ele>545.69</ele>
        <time>2022-04-17T12:58:55Z</time>
      </trkpt>
      <trkpt lat="45.46216" lon="4.24132">
        <ele>545.69</ele>
        <time>2022-04-17T12:58:56Z</time>
      </trkpt>
      <trkpt lat="45.46207" lon="4.24121">
        <ele>542.8</ele>
        <time>2022-04-17T12:59:10Z</time>
      </trkpt>
      <trkpt lat="45.46199" lon="4.24124">
        <ele>539.92</ele>
        <time>2022-04-17T12:59:30Z</time>
      </trkpt>
      <trkpt lat="45.46205" lon="4.24123">
        <ele>541.36</ele>
        <time>2022-04-17T12:59:58Z</time>
      </trkpt>
      <trkpt lat="45.46198" lon="4.24117">
        <ele>540.4</ele>
        <time>2022-04-17T13:00:23Z</time>
      </trkpt>
      <trkpt lat="45.46197" lon="4.24116">
        <ele>539.92</ele>
        <time>2022-04-17T13:00:24Z</time>
      </trkpt>
      <trkpt lat="45.46194" lon="4.24096">
        <ele>536.55</ele>
        <time>2022-04-17T13:00:36Z</time>
      </trkpt>
      <trkpt lat="45.46195" lon="4.24091">
        <ele>536.07</ele>
        <time>2022-04-17T13:00:39Z</time>
      </trkpt>
      <trkpt lat="45.46201" lon="4.24055">
        <ele>535.59</ele>
        <time>2022-04-17T13:00:53Z</time>
      </trkpt>
      <trkpt lat="45.46205" lon="4.24038">
        <ele>534.63</ele>
        <time>2022-04-17T13:01:01Z</time>
      </trkpt>
      <trkpt lat="45.46205" lon="4.24033">
        <ele>534.15</ele>
        <time>2022-04-17T13:01:03Z</time>
      </trkpt>
      <trkpt lat="45.46199" lon="4.24004">
        <ele>528.86</ele>
        <time>2022-04-17T13:01:17Z</time>
      </trkpt>
      <trkpt lat="45.46186" lon="4.23981">
        <ele>530.3</ele>
        <time>2022-04-17T13:01:31Z</time>
      </trkpt>
      <trkpt lat="45.46172" lon="4.23958">
        <ele>524.54</ele>
        <time>2022-04-17T13:01:45Z</time>
      </trkpt>
      <trkpt lat="45.46165" lon="4.23952">
        <ele>522.13</ele>
        <time>2022-04-17T13:01:52Z</time>
      </trkpt>
      <trkpt lat="45.4616" lon="4.23943">
        <ele>521.17</ele>
        <time>2022-04-17T13:01:58Z</time>
      </trkpt>
      <trkpt lat="45.46138" lon="4.23923">
        <ele>518.77</ele>
        <time>2022-04-17T13:02:13Z</time>
      </trkpt>
      <trkpt lat="45.46136" lon="4.23922">
        <ele>518.29</ele>
        <time>2022-04-17T13:02:14Z</time>
      </trkpt>
      <trkpt lat="45.46126" lon="4.23912">
        <ele>516.37</ele>
        <time>2022-04-17T13:02:23Z</time>
      </trkpt>
      <trkpt lat="45.46113" lon="4.23902">
        <ele>513.48</ele>
        <time>2022-04-17T13:02:33Z</time>
      </trkpt>
      <trkpt lat="45.46098" lon="4.23892">
        <ele>509.16</ele>
        <time>2022-04-17T13:02:45Z</time>
      </trkpt>
      <trkpt lat="45.46072" lon="4.23878">
        <ele>503.39</ele>
        <time>2022-04-17T13:03:03Z</time>
      </trkpt>
      <trkpt lat="45.4607" lon="4.23877">
        <ele>502.91</ele>
        <time>2022-04-17T13:03:05Z</time>
      </trkpt>
      <trkpt lat="45.46052" lon="4.23865">
        <ele>497.62</ele>
        <time>2022-04-17T13:03:19Z</time>
      </trkpt>
      <trkpt lat="45.46043" lon="4.23852">
        <ele>493.77</ele>
        <time>2022-04-17T13:03:29Z</time>
      </trkpt>
      <trkpt lat="45.46047" lon="4.23842">
        <ele>492.81</ele>
        <time>2022-04-17T13:03:35Z</time>
      </trkpt>
      <trkpt lat="45.46058" lon="4.23827">
        <ele>492.33</ele>
        <time>2022-04-17T13:03:45Z</time>
      </trkpt>
      <trkpt lat="45.4608" lon="4.23803">
        <ele>494.74</ele>
        <time>2022-04-17T13:04:01Z</time>
      </trkpt>
      <trkpt lat="45.46087" lon="4.23786">
        <ele>497.62</ele>
        <time>2022-04-17T13:04:09Z</time>
      </trkpt>
      <trkpt lat="45.46084" lon="4.23773">
        <ele>497.62</ele>
        <time>2022-04-17T13:04:16Z</time>
      </trkpt>
      <trkpt lat="45.46065" lon="4.23748">
        <ele>500.02</ele>
        <time>2022-04-17T13:04:31Z</time>
      </trkpt>
      <trkpt lat="45.46042" lon="4.23728">
        <ele>504.35</ele>
        <time>2022-04-17T13:04:46Z</time>
      </trkpt>
      <trkpt lat="45.46018" lon="4.23719">
        <ele>501.46</ele>
        <time>2022-04-17T13:05:01Z</time>
      </trkpt>
      <trkpt lat="45.46018" lon="4.23709">
        <ele>499.54</ele>
        <time>2022-04-17T13:05:05Z</time>
      </trkpt>
      <trkpt lat="45.4602" lon="4.23699">
        <ele>499.06</ele>
        <time>2022-04-17T13:05:09Z</time>
      </trkpt>
      <trkpt lat="45.46023" lon="4.23689">
        <ele>498.58</ele>
        <time>2022-04-17T13:05:13Z</time>
      </trkpt>
      <trkpt lat="45.46027" lon="4.23681">
        <ele>498.58</ele>
        <time>2022-04-17T13:05:17Z</time>
      </trkpt>
      <trkpt lat="45.46029" lon="4.23676">
        <ele>499.06</ele>
        <time>2022-04-17T13:05:19Z</time>
      </trkpt>
      <trkpt lat="45.46032" lon="4.23672">
        <ele>498.58</ele>
        <time>2022-04-17T13:05:21Z</time>
      </trkpt>
      <trkpt lat="45.46037" lon="4.2365">
        <ele>497.62</ele>
        <time>2022-04-17T13:05:31Z</time>
      </trkpt>
      <trkpt lat="45.46037" lon="4.23648">
        <ele>498.1</ele>
        <time>2022-04-17T13:05:32Z</time>
      </trkpt>
      <trkpt lat="45.46015" lon="4.23617">
        <ele>499.54</ele>
        <time>2022-04-17T13:05:50Z</time>
      </trkpt>
      <trkpt lat="45.45997" lon="4.23596">
        <ele>496.66</ele>
        <time>2022-04-17T13:06:05Z</time>
      </trkpt>
      <trkpt lat="45.45972" lon="4.23581">
        <ele>489.93</ele>
        <time>2022-04-17T13:06:20Z</time>
      </trkpt>
      <trkpt lat="45.45957" lon="4.23562">
        <ele>483.68</ele>
        <time>2022-04-17T13:06:34Z</time>
      </trkpt>
      <trkpt lat="45.45944" lon="4.2355">
        <ele>479.35</ele>
        <time>2022-04-17T13:06:45Z</time>
      </trkpt>
      <trkpt lat="45.45944" lon="4.23535">
        <ele>475.03</ele>
        <time>2022-04-17T13:06:54Z</time>
      </trkpt>
      <trkpt lat="45.4595" lon="4.23522">
        <ele>475.03</ele>
        <time>2022-04-17T13:07:09Z</time>
      </trkpt>
      <trkpt lat="45.45965" lon="4.23518">
        <ele>477.43</ele>
        <time>2022-04-17T13:07:23Z</time>
      </trkpt>
      <trkpt lat="45.45983" lon="4.23514">
        <ele>481.76</ele>
        <time>2022-04-17T13:07:36Z</time>
      </trkpt>
      <trkpt lat="45.46009" lon="4.23508">
        <ele>484.64</ele>
        <time>2022-04-17T13:07:52Z</time>
      </trkpt>
      <trkpt lat="45.4603" lon="4.23501">
        <ele>485.12</ele>
        <time>2022-04-17T13:08:07Z</time>
      </trkpt>
      <trkpt lat="45.46051" lon="4.23504">
        <ele>487.05</ele>
        <time>2022-04-17T13:08:21Z</time>
      </trkpt>
      <trkpt lat="45.46072" lon="4.2351">
        <ele>487.05</ele>
        <time>2022-04-17T13:08:37Z</time>
      </trkpt>
      <trkpt lat="45.46093" lon="4.23515">
        <ele>486.56</ele>
        <time>2022-04-17T13:08:52Z</time>
      </trkpt>
      <trkpt lat="45.4612" lon="4.23515">
        <ele>486.08</ele>
        <time>2022-04-17T13:09:08Z</time>
      </trkpt>
      <trkpt lat="45.46147" lon="4.23517">
        <ele>486.08</ele>
        <time>2022-04-17T13:09:24Z</time>
      </trkpt>
      <trkpt lat="45.46169" lon="4.23514">
        <ele>486.56</ele>
        <time>2022-04-17T13:09:38Z</time>
      </trkpt>
      <trkpt lat="45.46193" lon="4.23509">
        <ele>486.56</ele>
        <time>2022-04-17T13:09:53Z</time>
      </trkpt>
      <trkpt lat="45.46227" lon="4.23498">
        <ele>515.4</ele>
        <time>2022-04-17T13:10:02Z</time>
      </trkpt>
      <trkpt lat="45.46241" lon="4.23472">
        <ele>511.56</ele>
        <time>2022-04-17T13:10:19Z</time>
      </trkpt>
      <trkpt lat="45.46245" lon="4.23467">
        <ele>511.56</ele>
        <time>2022-04-17T13:10:23Z</time>
      </trkpt>
      <trkpt lat="45.46271" lon="4.23448">
        <ele>511.08</ele>
        <time>2022-04-17T13:10:40Z</time>
      </trkpt>
      <trkpt lat="45.46293" lon="4.23431">
        <ele>509.64</ele>
        <time>2022-04-17T13:10:54Z</time>
      </trkpt>
      <trkpt lat="45.46306" lon="4.2342">
        <ele>509.16</ele>
        <time>2022-04-17T13:11:02Z</time>
      </trkpt>
      <trkpt lat="45.46308" lon="4.23411">
        <ele>508.67</ele>
        <time>2022-04-17T13:11:07Z</time>
      </trkpt>
      <trkpt lat="45.46306" lon="4.23406">
        <ele>508.67</ele>
        <time>2022-04-17T13:11:11Z</time>
      </trkpt>
      <trkpt lat="45.46284" lon="4.23408">
        <ele>511.08</ele>
        <time>2022-04-17T13:11:25Z</time>
      </trkpt>
      <trkpt lat="45.46266" lon="4.23411">
        <ele>511.08</ele>
        <time>2022-04-17T13:11:36Z</time>
      </trkpt>
      <trkpt lat="45.46237" lon="4.23418">
        <ele>514.92</ele>
        <time>2022-04-17T13:11:52Z</time>
      </trkpt>
      <trkpt lat="45.46219" lon="4.23421">
        <ele>516.85</ele>
        <time>2022-04-17T13:12:04Z</time>
      </trkpt>
      <trkpt lat="45.46213" lon="4.2342">
        <ele>517.33</ele>
        <time>2022-04-17T13:12:08Z</time>
      </trkpt>
      <trkpt lat="45.46186" lon="4.23423">
        <ele>518.77</ele>
        <time>2022-04-17T13:12:26Z</time>
      </trkpt>
      <trkpt lat="45.46166" lon="4.23418">
        <ele>519.73</ele>
        <time>2022-04-17T13:12:40Z</time>
      </trkpt>
      <trkpt lat="45.46147" lon="4.23416">
        <ele>520.69</ele>
        <time>2022-04-17T13:12:53Z</time>
      </trkpt>
      <trkpt lat="45.46125" lon="4.23407">
        <ele>521.65</ele>
        <time>2022-04-17T13:13:08Z</time>
      </trkpt>
      <trkpt lat="45.46118" lon="4.23399">
        <ele>521.65</ele>
        <time>2022-04-17T13:13:14Z</time>
      </trkpt>
      <trkpt lat="45.46113" lon="4.2339">
        <ele>522.13</ele>
        <time>2022-04-17T13:13:20Z</time>
      </trkpt>
      <trkpt lat="45.4611" lon="4.23385">
        <ele>522.13</ele>
        <time>2022-04-17T13:13:24Z</time>
      </trkpt>
      <trkpt lat="45.46091" lon="4.23363">
        <ele>520.69</ele>
        <time>2022-04-17T13:13:40Z</time>
      </trkpt>
      <trkpt lat="45.46078" lon="4.23337">
        <ele>518.77</ele>
        <time>2022-04-17T13:13:52Z</time>
      </trkpt>
      <trkpt lat="45.46075" lon="4.23333">
        <ele>519.25</ele>
        <time>2022-04-17T13:13:55Z</time>
      </trkpt>
      <trkpt lat="45.46061" lon="4.23312">
        <ele>521.65</ele>
        <time>2022-04-17T13:14:08Z</time>
      </trkpt>
      <trkpt lat="45.46037" lon="4.23277">
        <ele>533.19</ele>
        <time>2022-04-17T13:14:24Z</time>
      </trkpt>
      <trkpt lat="45.46013" lon="4.23267">
        <ele>538.96</ele>
        <time>2022-04-17T13:14:39Z</time>
      </trkpt>
      <trkpt lat="45.46004" lon="4.23264">
        <ele>538.96</ele>
        <time>2022-04-17T13:14:45Z</time>
      </trkpt>
      <trkpt lat="45.45997" lon="4.23257">
        <ele>538.96</ele>
        <time>2022-04-17T13:14:50Z</time>
      </trkpt>
      <trkpt lat="45.45981" lon="4.23239">
        <ele>538.96</ele>
        <time>2022-04-17T13:15:05Z</time>
      </trkpt>
      <trkpt lat="45.45968" lon="4.23219">
        <ele>533.67</ele>
        <time>2022-04-17T13:15:19Z</time>
      </trkpt>
      <trkpt lat="45.45951" lon="4.23194">
        <ele>531.75</ele>
        <time>2022-04-17T13:15:35Z</time>
      </trkpt>
      <trkpt lat="45.45938" lon="4.23176">
        <ele>532.23</ele>
        <time>2022-04-17T13:15:48Z</time>
      </trkpt>
      <trkpt lat="45.45918" lon="4.23135">
        <ele>541.84</ele>
        <time>2022-04-17T13:16:02Z</time>
      </trkpt>
      <trkpt lat="45.45897" lon="4.23104">
        <ele>545.69</ele>
        <time>2022-04-17T13:16:18Z</time>
      </trkpt>
      <trkpt lat="45.45877" lon="4.23072">
        <ele>547.13</ele>
        <time>2022-04-17T13:16:37Z</time>
      </trkpt>
      <trkpt lat="45.45854" lon="4.23043">
        <ele>550.97</ele>
        <time>2022-04-17T13:16:55Z</time>
      </trkpt>
      <trkpt lat="45.45832" lon="4.23021">
        <ele>551.45</ele>
        <time>2022-04-17T13:17:11Z</time>
      </trkpt>
      <trkpt lat="45.45815" lon="4.23002">
        <ele>550.01</ele>
        <time>2022-04-17T13:17:25Z</time>
      </trkpt>
      <trkpt lat="45.45797" lon="4.22984">
        <ele>549.05</ele>
        <time>2022-04-17T13:17:40Z</time>
      </trkpt>
      <trkpt lat="45.45783" lon="4.22972">
        <ele>547.61</ele>
        <time>2022-04-17T13:17:52Z</time>
      </trkpt>
      <trkpt lat="45.45761" lon="4.2296">
        <ele>548.57</ele>
        <time>2022-04-17T13:18:06Z</time>
      </trkpt>
      <trkpt lat="45.45755" lon="4.22961">
        <ele>550.49</ele>
        <time>2022-04-17T13:18:09Z</time>
      </trkpt>
      <trkpt lat="45.45753" lon="4.2296">
        <ele>550.97</ele>
        <time>2022-04-17T13:18:10Z</time>
      </trkpt>
      <trkpt lat="45.4575" lon="4.22961">
        <ele>551.93</ele>
        <time>2022-04-17T13:18:11Z</time>
      </trkpt>
      <trkpt lat="45.45721" lon="4.22957">
        <ele>557.7</ele>
        <time>2022-04-17T13:18:26Z</time>
      </trkpt>
      <trkpt lat="45.45687" lon="4.22939">
        <ele>559.14</ele>
        <time>2022-04-17T13:18:47Z</time>
      </trkpt>
      <trkpt lat="45.45653" lon="4.22925">
        <ele>560.11</ele>
        <time>2022-04-17T13:19:03Z</time>
      </trkpt>
      <trkpt lat="45.4562" lon="4.22916">
        <ele>561.07</ele>
        <time>2022-04-17T13:19:17Z</time>
      </trkpt>
      <trkpt lat="45.45589" lon="4.2291">
        <ele>564.43</ele>
        <time>2022-04-17T13:19:35Z</time>
      </trkpt>
      <trkpt lat="45.45564" lon="4.22903">
        <ele>565.87</ele>
        <time>2022-04-17T13:19:48Z</time>
      </trkpt>
      <trkpt lat="45.45529" lon="4.22899">
        <ele>569.72</ele>
        <time>2022-04-17T13:20:06Z</time>
      </trkpt>
      <trkpt lat="45.45501" lon="4.22898">
        <ele>573.08</ele>
        <time>2022-04-17T13:20:20Z</time>
      </trkpt>
      <trkpt lat="45.45472" lon="4.22899">
        <ele>577.41</ele>
        <time>2022-04-17T13:20:36Z</time>
      </trkpt>
      <trkpt lat="45.4544" lon="4.22899">
        <ele>581.73</ele>
        <time>2022-04-17T13:20:56Z</time>
      </trkpt>
      <trkpt lat="45.45411" lon="4.22916">
        <ele>583.66</ele>
        <time>2022-04-17T13:21:16Z</time>
      </trkpt>
      <trkpt lat="45.45382" lon="4.22929">
        <ele>586.06</ele>
        <time>2022-04-17T13:21:35Z</time>
      </trkpt>
      <trkpt lat="45.45349" lon="4.22943">
        <ele>589.43</ele>
        <time>2022-04-17T13:21:56Z</time>
      </trkpt>
      <trkpt lat="45.45333" lon="4.2295">
        <ele>590.87</ele>
        <time>2022-04-17T13:22:07Z</time>
      </trkpt>
      <trkpt lat="45.45332" lon="4.22949">
        <ele>590.87</ele>
        <time>2022-04-17T13:22:08Z</time>
      </trkpt>
      <trkpt lat="45.45331" lon="4.22948">
        <ele>590.87</ele>
        <time>2022-04-17T13:22:09Z</time>
      </trkpt>
      <trkpt lat="45.45328" lon="4.22937">
        <ele>591.35</ele>
        <time>2022-04-17T13:22:15Z</time>
      </trkpt>
      <trkpt lat="45.45334" lon="4.22905">
        <ele>588.95</ele>
        <time>2022-04-17T13:22:29Z</time>
      </trkpt>
      <trkpt lat="45.45336" lon="4.22888">
        <ele>587.02</ele>
        <time>2022-04-17T13:22:46Z</time>
      </trkpt>
      <trkpt lat="45.45335" lon="4.22882">
        <ele>587.98</ele>
        <time>2022-04-17T13:22:50Z</time>
      </trkpt>
      <trkpt lat="45.45334" lon="4.2288">
        <ele>587.98</ele>
        <time>2022-04-17T13:22:51Z</time>
      </trkpt>
      <trkpt lat="45.45334" lon="4.22847">
        <ele>586.06</ele>
        <time>2022-04-17T13:23:07Z</time>
      </trkpt>
      <trkpt lat="45.45336" lon="4.22805">
        <ele>587.02</ele>
        <time>2022-04-17T13:23:26Z</time>
      </trkpt>
      <trkpt lat="45.45319" lon="4.22757">
        <ele>589.91</ele>
        <time>2022-04-17T13:23:48Z</time>
      </trkpt>
      <trkpt lat="45.45311" lon="4.22716">
        <ele>591.83</ele>
        <time>2022-04-17T13:24:09Z</time>
      </trkpt>
      <trkpt lat="45.4531" lon="4.22685">
        <ele>590.87</ele>
        <time>2022-04-17T13:24:24Z</time>
      </trkpt>
      <trkpt lat="45.4531" lon="4.22681">
        <ele>590.87</ele>
        <time>2022-04-17T13:24:25Z</time>
      </trkpt>
      <trkpt lat="45.4531" lon="4.22678">
        <ele>590.39</ele>
        <time>2022-04-17T13:24:26Z</time>
      </trkpt>
      <trkpt lat="45.45311" lon="4.22675">
        <ele>589.91</ele>
        <time>2022-04-17T13:24:27Z</time>
      </trkpt>
      <trkpt lat="45.45311" lon="4.22672">
        <ele>589.91</ele>
        <time>2022-04-17T13:24:28Z</time>
      </trkpt>
      <trkpt lat="45.45311" lon="4.2267">
        <ele>589.43</ele>
        <time>2022-04-17T13:24:29Z</time>
      </trkpt>
      <trkpt lat="45.45312" lon="4.22668">
        <ele>588.95</ele>
        <time>2022-04-17T13:24:30Z</time>
      </trkpt>
      <trkpt lat="45.45312" lon="4.22665">
        <ele>588.46</ele>
        <time>2022-04-17T13:24:31Z</time>
      </trkpt>
      <trkpt lat="45.45316" lon="4.22629">
        <ele>585.1</ele>
        <time>2022-04-17T13:24:45Z</time>
      </trkpt>
      <trkpt lat="45.45327" lon="4.22597">
        <ele>583.18</ele>
        <time>2022-04-17T13:25:01Z</time>
      </trkpt>
      <trkpt lat="45.45342" lon="4.22574">
        <ele>575.97</ele>
        <time>2022-04-17T13:25:15Z</time>
      </trkpt>
      <trkpt lat="45.45363" lon="4.22542">
        <ele>569.24</ele>
        <time>2022-04-17T13:25:30Z</time>
      </trkpt>
      <trkpt lat="45.45376" lon="4.22504">
        <ele>567.32</ele>
        <time>2022-04-17T13:25:45Z</time>
      </trkpt>
      <trkpt lat="45.45382" lon="4.2249">
        <ele>563.47</ele>
        <time>2022-04-17T13:25:52Z</time>
      </trkpt>
      <trkpt lat="45.45383" lon="4.22488">
        <ele>562.99</ele>
        <time>2022-04-17T13:25:53Z</time>
      </trkpt>
      <trkpt lat="45.45384" lon="4.22487">
        <ele>562.99</ele>
        <time>2022-04-17T13:25:54Z</time>
      </trkpt>
      <trkpt lat="45.45399" lon="4.22461">
        <ele>559.62</ele>
        <time>2022-04-17T13:26:07Z</time>
      </trkpt>
      <trkpt lat="45.45415" lon="4.22432">
        <ele>564.91</ele>
        <time>2022-04-17T13:26:23Z</time>
      </trkpt>
      <trkpt lat="45.45426" lon="4.22402">
        <ele>578.85</ele>
        <time>2022-04-17T13:26:35Z</time>
      </trkpt>
      <trkpt lat="45.45452" lon="4.22384">
        <ele>579.81</ele>
        <time>2022-04-17T13:26:52Z</time>
      </trkpt>
      <trkpt lat="45.45474" lon="4.2237">
        <ele>578.85</ele>
        <time>2022-04-17T13:27:05Z</time>
      </trkpt>
      <trkpt lat="45.45489" lon="4.22338">
        <ele>577.89</ele>
        <time>2022-04-17T13:27:21Z</time>
      </trkpt>
      <trkpt lat="45.45484" lon="4.223">
        <ele>577.89</ele>
        <time>2022-04-17T13:27:36Z</time>
      </trkpt>
      <trkpt lat="45.45488" lon="4.22272">
        <ele>575.01</ele>
        <time>2022-04-17T13:27:48Z</time>
      </trkpt>
      <trkpt lat="45.45498" lon="4.22245">
        <ele>573.08</ele>
        <time>2022-04-17T13:27:59Z</time>
      </trkpt>
      <trkpt lat="45.45498" lon="4.22243">
        <ele>573.08</ele>
        <time>2022-04-17T13:28:00Z</time>
      </trkpt>
      <trkpt lat="45.45497" lon="4.2224">
        <ele>573.56</ele>
        <time>2022-04-17T13:28:01Z</time>
      </trkpt>
      <trkpt lat="45.45469" lon="4.22234">
        <ele>580.77</ele>
        <time>2022-04-17T13:28:15Z</time>
      </trkpt>
      <trkpt lat="45.45439" lon="4.22242">
        <ele>586.54</ele>
        <time>2022-04-17T13:28:32Z</time>
      </trkpt>
      <trkpt lat="45.45406" lon="4.22248">
        <ele>589.91</ele>
        <time>2022-04-17T13:28:52Z</time>
      </trkpt>
      <trkpt lat="45.45379" lon="4.22254">
        <ele>591.83</ele>
        <time>2022-04-17T13:29:09Z</time>
      </trkpt>
      <trkpt lat="45.45351" lon="4.22261">
        <ele>592.79</ele>
        <time>2022-04-17T13:29:27Z</time>
      </trkpt>
      <trkpt lat="45.45315" lon="4.22264">
        <ele>594.23</ele>
        <time>2022-04-17T13:29:49Z</time>
      </trkpt>
      <trkpt lat="45.45287" lon="4.22264">
        <ele>594.23</ele>
        <time>2022-04-17T13:30:07Z</time>
      </trkpt>
      <trkpt lat="45.45285" lon="4.22264">
        <ele>593.75</ele>
        <time>2022-04-17T13:30:09Z</time>
      </trkpt>
      <trkpt lat="45.45263" lon="4.22264">
        <ele>594.23</ele>
        <time>2022-04-17T13:30:23Z</time>
      </trkpt>
      <trkpt lat="45.45242" lon="4.22261">
        <ele>594.23</ele>
        <time>2022-04-17T13:30:36Z</time>
      </trkpt>
      <trkpt lat="45.45233" lon="4.22262">
        <ele>596.64</ele>
        <time>2022-04-17T13:30:41Z</time>
      </trkpt>
      <trkpt lat="45.45213" lon="4.22268">
        <ele>599.52</ele>
        <time>2022-04-17T13:30:54Z</time>
      </trkpt>
      <trkpt lat="45.45192" lon="4.22273">
        <ele>602.88</ele>
        <time>2022-04-17T13:31:08Z</time>
      </trkpt>
      <trkpt lat="45.4519" lon="4.22272">
        <ele>602.88</ele>
        <time>2022-04-17T13:31:09Z</time>
      </trkpt>
      <trkpt lat="45.45189" lon="4.22271">
        <ele>602.88</ele>
        <time>2022-04-17T13:31:10Z</time>
      </trkpt>
      <trkpt lat="45.45185" lon="4.22267">
        <ele>602.88</ele>
        <time>2022-04-17T13:31:13Z</time>
      </trkpt>
      <trkpt lat="45.45183" lon="4.22266">
        <ele>602.88</ele>
        <time>2022-04-17T13:31:14Z</time>
      </trkpt>
      <trkpt lat="45.45182" lon="4.22265">
        <ele>602.88</ele>
        <time>2022-04-17T13:31:15Z</time>
      </trkpt>
      <trkpt lat="45.45181" lon="4.22264">
        <ele>602.88</ele>
        <time>2022-04-17T13:31:16Z</time>
      </trkpt>
      <trkpt lat="45.45179" lon="4.22263">
        <ele>602.88</ele>
        <time>2022-04-17T13:31:17Z</time>
      </trkpt>
      <trkpt lat="45.45163" lon="4.22249">
        <ele>601.44</ele>
        <time>2022-04-17T13:31:29Z</time>
      </trkpt>
      <trkpt lat="45.45161" lon="4.22248">
        <ele>601.44</ele>
        <time>2022-04-17T13:31:30Z</time>
      </trkpt>
      <trkpt lat="45.45159" lon="4.22247">
        <ele>601.44</ele>
        <time>2022-04-17T13:31:31Z</time>
      </trkpt>
      <trkpt lat="45.45157" lon="4.22245">
        <ele>601.92</ele>
        <time>2022-04-17T13:31:32Z</time>
      </trkpt>
      <trkpt lat="45.45155" lon="4.22245">
        <ele>601.92</ele>
        <time>2022-04-17T13:31:33Z</time>
      </trkpt>
      <trkpt lat="45.45134" lon="4.22234">
        <ele>606.73</ele>
        <time>2022-04-17T13:31:47Z</time>
      </trkpt>
      <trkpt lat="45.45109" lon="4.22215">
        <ele>615.86</ele>
        <time>2022-04-17T13:32:03Z</time>
      </trkpt>
      <trkpt lat="45.45088" lon="4.222">
        <ele>622.11</ele>
        <time>2022-04-17T13:32:16Z</time>
      </trkpt>
      <trkpt lat="45.45074" lon="4.2219">
        <ele>624.99</ele>
        <time>2022-04-17T13:32:24Z</time>
      </trkpt>
      <trkpt lat="45.45072" lon="4.22188">
        <ele>624.99</ele>
        <time>2022-04-17T13:32:25Z</time>
      </trkpt>
      <trkpt lat="45.45067" lon="4.2218">
        <ele>626.92</ele>
        <time>2022-04-17T13:32:30Z</time>
      </trkpt>
      <trkpt lat="45.45066" lon="4.22178">
        <ele>627.4</ele>
        <time>2022-04-17T13:32:31Z</time>
      </trkpt>
      <trkpt lat="45.45065" lon="4.22175">
        <ele>627.88</ele>
        <time>2022-04-17T13:32:32Z</time>
      </trkpt>
      <trkpt lat="45.45063" lon="4.22173">
        <ele>628.36</ele>
        <time>2022-04-17T13:32:33Z</time>
      </trkpt>
      <trkpt lat="45.45058" lon="4.22167">
        <ele>630.28</ele>
        <time>2022-04-17T13:32:37Z</time>
      </trkpt>
      <trkpt lat="45.45036" lon="4.22149">
        <ele>633.17</ele>
        <time>2022-04-17T13:32:51Z</time>
      </trkpt>
      <trkpt lat="45.4502" lon="4.22133">
        <ele>635.57</ele>
        <time>2022-04-17T13:33:05Z</time>
      </trkpt>
      <trkpt lat="45.45015" lon="4.22127">
        <ele>636.05</ele>
        <time>2022-04-17T13:33:09Z</time>
      </trkpt>
      <trkpt lat="45.45008" lon="4.22127">
        <ele>637.97</ele>
        <time>2022-04-17T13:33:15Z</time>
      </trkpt>
      <trkpt lat="45.44991" lon="4.22136">
        <ele>638.93</ele>
        <time>2022-04-17T13:33:30Z</time>
      </trkpt>
      <trkpt lat="45.44988" lon="4.22137">
        <ele>638.93</ele>
        <time>2022-04-17T13:33:32Z</time>
      </trkpt>
      <trkpt lat="45.44971" lon="4.22136">
        <ele>635.09</ele>
        <time>2022-04-17T13:33:46Z</time>
      </trkpt>
      <trkpt lat="45.44956" lon="4.22128">
        <ele>636.05</ele>
        <time>2022-04-17T13:33:57Z</time>
      </trkpt>
      <trkpt lat="45.44952" lon="4.22106">
        <ele>637.49</ele>
        <time>2022-04-17T13:34:10Z</time>
      </trkpt>
      <trkpt lat="45.44954" lon="4.2208">
        <ele>637.49</ele>
        <time>2022-04-17T13:34:23Z</time>
      </trkpt>
      <trkpt lat="45.44959" lon="4.22038">
        <ele>635.57</ele>
        <time>2022-04-17T13:34:33Z</time>
      </trkpt>
      <trkpt lat="45.44962" lon="4.22011">
        <ele>636.53</ele>
        <time>2022-04-17T13:34:40Z</time>
      </trkpt>
      <trkpt lat="45.44962" lon="4.22005">
        <ele>638.93</ele>
        <time>2022-04-17T13:34:41Z</time>
      </trkpt>
      <trkpt lat="45.44962" lon="4.22">
        <ele>640.86</ele>
        <time>2022-04-17T13:34:42Z</time>
      </trkpt>
      <trkpt lat="45.44961" lon="4.21959">
        <ele>644.7</ele>
        <time>2022-04-17T13:34:58Z</time>
      </trkpt>
      <trkpt lat="45.44951" lon="4.21927">
        <ele>647.59</ele>
        <time>2022-04-17T13:35:12Z</time>
      </trkpt>
      <trkpt lat="45.44944" lon="4.21892">
        <ele>649.03</ele>
        <time>2022-04-17T13:35:25Z</time>
      </trkpt>
      <trkpt lat="45.44944" lon="4.21848">
        <ele>648.07</ele>
        <time>2022-04-17T13:35:42Z</time>
      </trkpt>
      <trkpt lat="45.44945" lon="4.21811">
        <ele>646.14</ele>
        <time>2022-04-17T13:35:59Z</time>
      </trkpt>
      <trkpt lat="45.44952" lon="4.21794">
        <ele>642.3</ele>
        <time>2022-04-17T13:36:08Z</time>
      </trkpt>
      <trkpt lat="45.44957" lon="4.2177">
        <ele>640.38</ele>
        <time>2022-04-17T13:36:19Z</time>
      </trkpt>
      <trkpt lat="45.44957" lon="4.21767">
        <ele>640.38</ele>
        <time>2022-04-17T13:36:20Z</time>
      </trkpt>
      <trkpt lat="45.44956" lon="4.21764">
        <ele>640.86</ele>
        <time>2022-04-17T13:36:21Z</time>
      </trkpt>
      <trkpt lat="45.44956" lon="4.21761">
        <ele>640.86</ele>
        <time>2022-04-17T13:36:22Z</time>
      </trkpt>
      <trkpt lat="45.44956" lon="4.21759">
        <ele>640.86</ele>
        <time>2022-04-17T13:36:23Z</time>
      </trkpt>
      <trkpt lat="45.44956" lon="4.21757">
        <ele>640.86</ele>
        <time>2022-04-17T13:36:24Z</time>
      </trkpt>
      <trkpt lat="45.44965" lon="4.21719">
        <ele>638.45</ele>
        <time>2022-04-17T13:36:40Z</time>
      </trkpt>
      <trkpt lat="45.44983" lon="4.21692">
        <ele>636.53</ele>
        <time>2022-04-17T13:36:56Z</time>
      </trkpt>
      <trkpt lat="45.44995" lon="4.21669">
        <ele>634.13</ele>
        <time>2022-04-17T13:37:10Z</time>
      </trkpt>
      <trkpt lat="45.45007" lon="4.21649">
        <ele>633.17</ele>
        <time>2022-04-17T13:37:23Z</time>
      </trkpt>
      <trkpt lat="45.45009" lon="4.21619">
        <ele>632.2</ele>
        <time>2022-04-17T13:37:39Z</time>
      </trkpt>
      <trkpt lat="45.45009" lon="4.21592">
        <ele>625.96</ele>
        <time>2022-04-17T13:37:53Z</time>
      </trkpt>
      <trkpt lat="45.4501" lon="4.21581">
        <ele>623.07</ele>
        <time>2022-04-17T13:37:59Z</time>
      </trkpt>
      <trkpt lat="45.45015" lon="4.21575">
        <ele>619.71</ele>
        <time>2022-04-17T13:38:04Z</time>
      </trkpt>
      <trkpt lat="45.45016" lon="4.21574">
        <ele>619.23</ele>
        <time>2022-04-17T13:38:05Z</time>
      </trkpt>
      <trkpt lat="45.4503" lon="4.21553">
        <ele>612.5</ele>
        <time>2022-04-17T13:38:19Z</time>
      </trkpt>
      <trkpt lat="45.45039" lon="4.2154">
        <ele>607.69</ele>
        <time>2022-04-17T13:38:29Z</time>
      </trkpt>
      <trkpt lat="45.45042" lon="4.21536">
        <ele>605.29</ele>
        <time>2022-04-17T13:38:32Z</time>
      </trkpt>
      <trkpt lat="45.45053" lon="4.21522">
        <ele>597.6</ele>
        <time>2022-04-17T13:38:44Z</time>
      </trkpt>
      <trkpt lat="45.45058" lon="4.21514">
        <ele>598.08</ele>
        <time>2022-04-17T13:38:48Z</time>
      </trkpt>
      <trkpt lat="45.4506" lon="4.21513">
        <ele>598.08</ele>
        <time>2022-04-17T13:38:49Z</time>
      </trkpt>
      <trkpt lat="45.4506" lon="4.2151">
        <ele>598.56</ele>
        <time>2022-04-17T13:38:50Z</time>
      </trkpt>
      <trkpt lat="45.45062" lon="4.21504">
        <ele>598.08</ele>
        <time>2022-04-17T13:38:53Z</time>
      </trkpt>
      <trkpt lat="45.45062" lon="4.21502">
        <ele>597.6</ele>
        <time>2022-04-17T13:38:54Z</time>
      </trkpt>
      <trkpt lat="45.45063" lon="4.21499">
        <ele>598.08</ele>
        <time>2022-04-17T13:38:55Z</time>
      </trkpt>
      <trkpt lat="45.45064" lon="4.21497">
        <ele>597.6</ele>
        <time>2022-04-17T13:38:56Z</time>
      </trkpt>
      <trkpt lat="45.45064" lon="4.21495">
        <ele>598.08</ele>
        <time>2022-04-17T13:38:57Z</time>
      </trkpt>
      <trkpt lat="45.45065" lon="4.21493">
        <ele>597.6</ele>
        <time>2022-04-17T13:38:58Z</time>
      </trkpt>
      <trkpt lat="45.45065" lon="4.21491">
        <ele>597.6</ele>
        <time>2022-04-17T13:38:59Z</time>
      </trkpt>
      <trkpt lat="45.45066" lon="4.21489">
        <ele>597.12</ele>
        <time>2022-04-17T13:39:00Z</time>
      </trkpt>
      <trkpt lat="45.45077" lon="4.21462">
        <ele>590.87</ele>
        <time>2022-04-17T13:39:14Z</time>
      </trkpt>
      <trkpt lat="45.45093" lon="4.21456">
        <ele>600.48</ele>
        <time>2022-04-17T13:39:28Z</time>
      </trkpt>
      <trkpt lat="45.45106" lon="4.21455">
        <ele>601.92</ele>
        <time>2022-04-17T13:39:37Z</time>
      </trkpt>
      <trkpt lat="45.45108" lon="4.21455">
        <ele>601.92</ele>
        <time>2022-04-17T13:39:38Z</time>
      </trkpt>
      <trkpt lat="45.4511" lon="4.21455">
        <ele>601.92</ele>
        <time>2022-04-17T13:39:39Z</time>
      </trkpt>
      <trkpt lat="45.45111" lon="4.21455">
        <ele>602.4</ele>
        <time>2022-04-17T13:39:40Z</time>
      </trkpt>
      <trkpt lat="45.45134" lon="4.2146">
        <ele>606.73</ele>
        <time>2022-04-17T13:39:55Z</time>
      </trkpt>
      <trkpt lat="45.45152" lon="4.21462">
        <ele>609.61</ele>
        <time>2022-04-17T13:40:06Z</time>
      </trkpt>
      <trkpt lat="45.4516" lon="4.21455">
        <ele>609.13</ele>
        <time>2022-04-17T13:40:12Z</time>
      </trkpt>
      <trkpt lat="45.45161" lon="4.21453">
        <ele>609.61</ele>
        <time>2022-04-17T13:40:13Z</time>
      </trkpt>
      <trkpt lat="45.45162" lon="4.2145">
        <ele>609.61</ele>
        <time>2022-04-17T13:40:14Z</time>
      </trkpt>
      <trkpt lat="45.45162" lon="4.21447">
        <ele>609.61</ele>
        <time>2022-04-17T13:40:15Z</time>
      </trkpt>
      <trkpt lat="45.45163" lon="4.21444">
        <ele>609.61</ele>
        <time>2022-04-17T13:40:16Z</time>
      </trkpt>
      <trkpt lat="45.45164" lon="4.21442">
        <ele>609.61</ele>
        <time>2022-04-17T13:40:17Z</time>
      </trkpt>
      <trkpt lat="45.45165" lon="4.21439">
        <ele>609.61</ele>
        <time>2022-04-17T13:40:18Z</time>
      </trkpt>
      <trkpt lat="45.45166" lon="4.21437">
        <ele>610.09</ele>
        <time>2022-04-17T13:40:19Z</time>
      </trkpt>
      <trkpt lat="45.45167" lon="4.21435">
        <ele>610.57</ele>
        <time>2022-04-17T13:40:20Z</time>
      </trkpt>
      <trkpt lat="45.45178" lon="4.21405">
        <ele>611.54</ele>
        <time>2022-04-17T13:40:35Z</time>
      </trkpt>
      <trkpt lat="45.452" lon="4.21363">
        <ele>613.94</ele>
        <time>2022-04-17T13:40:57Z</time>
      </trkpt>
      <trkpt lat="45.45221" lon="4.21316">
        <ele>615.86</ele>
        <time>2022-04-17T13:41:18Z</time>
      </trkpt>
      <trkpt lat="45.45241" lon="4.21266">
        <ele>615.38</ele>
        <time>2022-04-17T13:41:41Z</time>
      </trkpt>
      <trkpt lat="45.45261" lon="4.21218">
        <ele>613.94</ele>
        <time>2022-04-17T13:42:03Z</time>
      </trkpt>
      <trkpt lat="45.45286" lon="4.21179">
        <ele>611.54</ele>
        <time>2022-04-17T13:42:25Z</time>
      </trkpt>
      <trkpt lat="45.45311" lon="4.21144">
        <ele>611.54</ele>
        <time>2022-04-17T13:42:45Z</time>
      </trkpt>
      <trkpt lat="45.45334" lon="4.2111">
        <ele>611.06</ele>
        <time>2022-04-17T13:43:06Z</time>
      </trkpt>
      <trkpt lat="45.45358" lon="4.21071">
        <ele>610.09</ele>
        <time>2022-04-17T13:43:27Z</time>
      </trkpt>
      <trkpt lat="45.45371" lon="4.21027">
        <ele>606.73</ele>
        <time>2022-04-17T13:43:48Z</time>
      </trkpt>
      <trkpt lat="45.45361" lon="4.20989">
        <ele>603.36</ele>
        <time>2022-04-17T13:44:06Z</time>
      </trkpt>
      <trkpt lat="45.45349" lon="4.20948">
        <ele>603.85</ele>
        <time>2022-04-17T13:44:25Z</time>
      </trkpt>
      <trkpt lat="45.4535" lon="4.2091">
        <ele>603.36</ele>
        <time>2022-04-17T13:44:41Z</time>
      </trkpt>
      <trkpt lat="45.45368" lon="4.20882">
        <ele>601.44</ele>
        <time>2022-04-17T13:44:57Z</time>
      </trkpt>
      <trkpt lat="45.45375" lon="4.20848">
        <ele>599.52</ele>
        <time>2022-04-17T13:45:14Z</time>
      </trkpt>
      <trkpt lat="45.45378" lon="4.20813">
        <ele>597.12</ele>
        <time>2022-04-17T13:45:31Z</time>
      </trkpt>
      <trkpt lat="45.45379" lon="4.20807">
        <ele>596.64</ele>
        <time>2022-04-17T13:45:34Z</time>
      </trkpt>
      <trkpt lat="45.4538" lon="4.20805">
        <ele>596.64</ele>
        <time>2022-04-17T13:45:35Z</time>
      </trkpt>
      <trkpt lat="45.45381" lon="4.20804">
        <ele>596.64</ele>
        <time>2022-04-17T13:45:36Z</time>
      </trkpt>
      <trkpt lat="45.45382" lon="4.20804">
        <ele>596.64</ele>
        <time>2022-04-17T13:45:37Z</time>
      </trkpt>
      <trkpt lat="45.45383" lon="4.20804">
        <ele>596.64</ele>
        <time>2022-04-17T13:45:38Z</time>
      </trkpt>
      <trkpt lat="45.45385" lon="4.20804">
        <ele>596.64</ele>
        <time>2022-04-17T13:45:39Z</time>
      </trkpt>
      <trkpt lat="45.45388" lon="4.20805">
        <ele>596.64</ele>
        <time>2022-04-17T13:45:42Z</time>
      </trkpt>
      <trkpt lat="45.45414" lon="4.20818">
        <ele>599.52</ele>
        <time>2022-04-17T13:46:00Z</time>
      </trkpt>
      <trkpt lat="45.45446" lon="4.20804">
        <ele>602.88</ele>
        <time>2022-04-17T13:46:18Z</time>
      </trkpt>
      <trkpt lat="45.45463" lon="4.20766">
        <ele>605.77</ele>
        <time>2022-04-17T13:46:38Z</time>
      </trkpt>
      <trkpt lat="45.45477" lon="4.20724">
        <ele>607.69</ele>
        <time>2022-04-17T13:46:59Z</time>
      </trkpt>
      <trkpt lat="45.45495" lon="4.20681">
        <ele>604.81</ele>
        <time>2022-04-17T13:47:21Z</time>
      </trkpt>
      <trkpt lat="45.45512" lon="4.20637">
        <ele>602.4</ele>
        <time>2022-04-17T13:47:41Z</time>
      </trkpt>
      <trkpt lat="45.4553" lon="4.20595">
        <ele>601.44</ele>
        <time>2022-04-17T13:48:02Z</time>
      </trkpt>
      <trkpt lat="45.45545" lon="4.20561">
        <ele>598.56</ele>
        <time>2022-04-17T13:48:21Z</time>
      </trkpt>
      <trkpt lat="45.45556" lon="4.20523">
        <ele>596.64</ele>
        <time>2022-04-17T13:48:39Z</time>
      </trkpt>
      <trkpt lat="45.45569" lon="4.20485">
        <ele>596.15</ele>
        <time>2022-04-17T13:48:57Z</time>
      </trkpt>
      <trkpt lat="45.45584" lon="4.20445">
        <ele>594.71</ele>
        <time>2022-04-17T13:49:17Z</time>
      </trkpt>
      <trkpt lat="45.45603" lon="4.20419">
        <ele>593.27</ele>
        <time>2022-04-17T13:49:33Z</time>
      </trkpt>
      <trkpt lat="45.45629" lon="4.20388">
        <ele>589.91</ele>
        <time>2022-04-17T13:49:52Z</time>
      </trkpt>
      <trkpt lat="45.45659" lon="4.20374">
        <ele>586.06</ele>
        <time>2022-04-17T13:50:08Z</time>
      </trkpt>
      <trkpt lat="45.45689" lon="4.20368">
        <ele>583.18</ele>
        <time>2022-04-17T13:50:25Z</time>
      </trkpt>
      <trkpt lat="45.45715" lon="4.20354">
        <ele>582.22</ele>
        <time>2022-04-17T13:50:42Z</time>
      </trkpt>
      <trkpt lat="45.45746" lon="4.20345">
        <ele>581.25</ele>
        <time>2022-04-17T13:50:58Z</time>
      </trkpt>
      <trkpt lat="45.45772" lon="4.20334">
        <ele>580.29</ele>
        <time>2022-04-17T13:51:14Z</time>
      </trkpt>
      <trkpt lat="45.45805" lon="4.20325">
        <ele>578.85</ele>
        <time>2022-04-17T13:51:34Z</time>
      </trkpt>
      <trkpt lat="45.45833" lon="4.2032">
        <ele>575.97</ele>
        <time>2022-04-17T13:51:51Z</time>
      </trkpt>
      <trkpt lat="45.4586" lon="4.20314">
        <ele>573.08</ele>
        <time>2022-04-17T13:52:07Z</time>
      </trkpt>
      <trkpt lat="45.45889" lon="4.20308">
        <ele>571.64</ele>
        <time>2022-04-17T13:52:25Z</time>
      </trkpt>
      <trkpt lat="45.4592" lon="4.20294">
        <ele>567.8</ele>
        <time>2022-04-17T13:52:44Z</time>
      </trkpt>
      <trkpt lat="45.45943" lon="4.2028">
        <ele>566.83</ele>
        <time>2022-04-17T13:52:58Z</time>
      </trkpt>
      <trkpt lat="45.45966" lon="4.20265">
        <ele>563.95</ele>
        <time>2022-04-17T13:53:13Z</time>
      </trkpt>
      <trkpt lat="45.45993" lon="4.20238">
        <ele>561.55</ele>
        <time>2022-04-17T13:53:32Z</time>
      </trkpt>
      <trkpt lat="45.46019" lon="4.20222">
        <ele>558.66</ele>
        <time>2022-04-17T13:53:48Z</time>
      </trkpt>
      <trkpt lat="45.46056" lon="4.20198">
        <ele>556.26</ele>
        <time>2022-04-17T13:54:07Z</time>
      </trkpt>
      <trkpt lat="45.4608" lon="4.20182">
        <ele>554.34</ele>
        <time>2022-04-17T13:54:21Z</time>
      </trkpt>
      <trkpt lat="45.46115" lon="4.20155">
        <ele>554.34</ele>
        <time>2022-04-17T13:54:40Z</time>
      </trkpt>
      <trkpt lat="45.46138" lon="4.20138">
        <ele>553.38</ele>
        <time>2022-04-17T13:54:57Z</time>
      </trkpt>
      <trkpt lat="45.46167" lon="4.20116">
        <ele>553.38</ele>
        <time>2022-04-17T13:55:18Z</time>
      </trkpt>
      <trkpt lat="45.46195" lon="4.201">
        <ele>553.38</ele>
        <time>2022-04-17T13:55:37Z</time>
      </trkpt>
      <trkpt lat="45.46228" lon="4.20085">
        <ele>551.93</ele>
        <time>2022-04-17T13:56:00Z</time>
      </trkpt>
      <trkpt lat="45.46254" lon="4.2007">
        <ele>551.45</ele>
        <time>2022-04-17T13:56:18Z</time>
      </trkpt>
      <trkpt lat="45.46279" lon="4.20044">
        <ele>549.05</ele>
        <time>2022-04-17T13:56:38Z</time>
      </trkpt>
      <trkpt lat="45.46294" lon="4.20027">
        <ele>548.09</ele>
        <time>2022-04-17T13:56:51Z</time>
      </trkpt>
      <trkpt lat="45.46313" lon="4.20001">
        <ele>545.69</ele>
        <time>2022-04-17T13:57:06Z</time>
      </trkpt>
      <trkpt lat="45.46335" lon="4.19992">
        <ele>542.8</ele>
        <time>2022-04-17T13:57:21Z</time>
      </trkpt>
      <trkpt lat="45.46355" lon="4.20002">
        <ele>540.4</ele>
        <time>2022-04-17T13:57:36Z</time>
      </trkpt>
      <trkpt lat="45.46375" lon="4.20006">
        <ele>537.99</ele>
        <time>2022-04-17T13:57:49Z</time>
      </trkpt>
      <trkpt lat="45.46404" lon="4.20011">
        <ele>534.15</ele>
        <time>2022-04-17T13:58:07Z</time>
      </trkpt>
      <trkpt lat="45.46433" lon="4.20019">
        <ele>531.75</ele>
        <time>2022-04-17T13:58:23Z</time>
      </trkpt>
      <trkpt lat="45.4646" lon="4.20047">
        <ele>531.75</ele>
        <time>2022-04-17T13:58:41Z</time>
      </trkpt>
      <trkpt lat="45.46491" lon="4.20058">
        <ele>533.67</ele>
        <time>2022-04-17T13:59:00Z</time>
      </trkpt>
      <trkpt lat="45.46515" lon="4.20057">
        <ele>531.27</ele>
        <time>2022-04-17T13:59:16Z</time>
      </trkpt>
      <trkpt lat="45.46539" lon="4.20047">
        <ele>528.38</ele>
        <time>2022-04-17T13:59:31Z</time>
      </trkpt>
      <trkpt lat="45.46567" lon="4.20036">
        <ele>526.46</ele>
        <time>2022-04-17T13:59:46Z</time>
      </trkpt>
      <trkpt lat="45.46589" lon="4.20026">
        <ele>523.09</ele>
        <time>2022-04-17T14:00:01Z</time>
      </trkpt>
      <trkpt lat="45.46624" lon="4.20025">
        <ele>520.69</ele>
        <time>2022-04-17T14:00:22Z</time>
      </trkpt>
      <trkpt lat="45.46642" lon="4.20007">
        <ele>518.77</ele>
        <time>2022-04-17T14:00:37Z</time>
      </trkpt>
      <trkpt lat="45.46652" lon="4.19972">
        <ele>517.81</ele>
        <time>2022-04-17T14:00:53Z</time>
      </trkpt>
      <trkpt lat="45.46647" lon="4.19942">
        <ele>518.77</ele>
        <time>2022-04-17T14:01:09Z</time>
      </trkpt>
      <trkpt lat="45.46647" lon="4.1994">
        <ele>519.73</ele>
        <time>2022-04-17T14:01:16Z</time>
      </trkpt>
      <trkpt lat="45.46648" lon="4.19939">
        <ele>519.73</ele>
        <time>2022-04-17T14:01:17Z</time>
      </trkpt>
      <trkpt lat="45.46648" lon="4.19938">
        <ele>519.73</ele>
        <time>2022-04-17T14:01:18Z</time>
      </trkpt>
      <trkpt lat="45.46649" lon="4.19932">
        <ele>521.17</ele>
        <time>2022-04-17T14:01:34Z</time>
      </trkpt>
      <trkpt lat="45.46658" lon="4.19914">
        <ele>521.65</ele>
        <time>2022-04-17T14:01:48Z</time>
      </trkpt>
      <trkpt lat="45.46674" lon="4.1987">
        <ele>520.69</ele>
        <time>2022-04-17T14:02:02Z</time>
      </trkpt>
      <trkpt lat="45.46687" lon="4.19833">
        <ele>522.13</ele>
        <time>2022-04-17T14:02:18Z</time>
      </trkpt>
      <trkpt lat="45.46699" lon="4.19788">
        <ele>524.54</ele>
        <time>2022-04-17T14:02:36Z</time>
      </trkpt>
      <trkpt lat="45.46709" lon="4.19743">
        <ele>526.46</ele>
        <time>2022-04-17T14:02:56Z</time>
      </trkpt>
      <trkpt lat="45.46716" lon="4.19699">
        <ele>526.46</ele>
        <time>2022-04-17T14:03:14Z</time>
      </trkpt>
      <trkpt lat="45.46739" lon="4.1967">
        <ele>523.09</ele>
        <time>2022-04-17T14:03:32Z</time>
      </trkpt>
      <trkpt lat="45.46764" lon="4.19641">
        <ele>522.13</ele>
        <time>2022-04-17T14:03:51Z</time>
      </trkpt>
      <trkpt lat="45.46785" lon="4.19617">
        <ele>520.21</ele>
        <time>2022-04-17T14:04:08Z</time>
      </trkpt>
      <trkpt lat="45.46805" lon="4.19612">
        <ele>518.29</ele>
        <time>2022-04-17T14:04:21Z</time>
      </trkpt>
      <trkpt lat="45.46837" lon="4.19613">
        <ele>515.88</ele>
        <time>2022-04-17T14:04:34Z</time>
      </trkpt>
      <trkpt lat="45.4687" lon="4.19607">
        <ele>512.04</ele>
        <time>2022-04-17T14:04:53Z</time>
      </trkpt>
      <trkpt lat="45.46896" lon="4.19609">
        <ele>508.19</ele>
        <time>2022-04-17T14:05:10Z</time>
      </trkpt>
      <trkpt lat="45.46922" lon="4.19597">
        <ele>504.35</ele>
        <time>2022-04-17T14:05:26Z</time>
      </trkpt>
      <trkpt lat="45.46943" lon="4.1957">
        <ele>501.95</ele>
        <time>2022-04-17T14:05:44Z</time>
      </trkpt>
      <trkpt lat="45.46962" lon="4.19551">
        <ele>499.54</ele>
        <time>2022-04-17T14:05:58Z</time>
      </trkpt>
      <trkpt lat="45.46985" lon="4.19524">
        <ele>496.66</ele>
        <time>2022-04-17T14:06:15Z</time>
      </trkpt>
      <trkpt lat="45.46998" lon="4.19488">
        <ele>493.77</ele>
        <time>2022-04-17T14:06:31Z</time>
      </trkpt>
      <trkpt lat="45.47018" lon="4.19479">
        <ele>491.37</ele>
        <time>2022-04-17T14:06:45Z</time>
      </trkpt>
      <trkpt lat="45.47054" lon="4.19476">
        <ele>486.56</ele>
        <time>2022-04-17T14:07:05Z</time>
      </trkpt>
      <trkpt lat="45.47089" lon="4.19473">
        <ele>482.72</ele>
        <time>2022-04-17T14:07:25Z</time>
      </trkpt>
      <trkpt lat="45.47117" lon="4.19471">
        <ele>480.8</ele>
        <time>2022-04-17T14:07:43Z</time>
      </trkpt>
      <trkpt lat="45.47146" lon="4.19465">
        <ele>478.39</ele>
        <time>2022-04-17T14:08:00Z</time>
      </trkpt>
      <trkpt lat="45.47168" lon="4.1945">
        <ele>475.03</ele>
        <time>2022-04-17T14:08:15Z</time>
      </trkpt>
      <trkpt lat="45.47186" lon="4.19441">
        <ele>471.18</ele>
        <time>2022-04-17T14:08:30Z</time>
      </trkpt>
      <trkpt lat="45.47203" lon="4.19431">
        <ele>468.3</ele>
        <time>2022-04-17T14:08:43Z</time>
      </trkpt>
      <trkpt lat="45.47219" lon="4.19413">
        <ele>466.86</ele>
        <time>2022-04-17T14:08:57Z</time>
      </trkpt>
      <trkpt lat="45.4723" lon="4.19391">
        <ele>463.97</ele>
        <time>2022-04-17T14:09:11Z</time>
      </trkpt>
      <trkpt lat="45.47231" lon="4.19384">
        <ele>463.01</ele>
        <time>2022-04-17T14:09:14Z</time>
      </trkpt>
      <trkpt lat="45.47232" lon="4.19382">
        <ele>462.53</ele>
        <time>2022-04-17T14:09:15Z</time>
      </trkpt>
      <trkpt lat="45.47235" lon="4.1936">
        <ele>459.65</ele>
        <time>2022-04-17T14:09:25Z</time>
      </trkpt>
      <trkpt lat="45.47235" lon="4.19354">
        <ele>459.17</ele>
        <time>2022-04-17T14:09:27Z</time>
      </trkpt>
      <trkpt lat="45.47235" lon="4.19352">
        <ele>458.69</ele>
        <time>2022-04-17T14:09:28Z</time>
      </trkpt>
      <trkpt lat="45.47235" lon="4.1935">
        <ele>458.69</ele>
        <time>2022-04-17T14:09:29Z</time>
      </trkpt>
      <trkpt lat="45.47236" lon="4.19318">
        <ele>458.21</ele>
        <time>2022-04-17T14:09:45Z</time>
      </trkpt>
      <trkpt lat="45.47236" lon="4.19316">
        <ele>458.21</ele>
        <time>2022-04-17T14:09:46Z</time>
      </trkpt>
      <trkpt lat="45.47235" lon="4.19314">
        <ele>458.21</ele>
        <time>2022-04-17T14:09:47Z</time>
      </trkpt>
      <trkpt lat="45.47234" lon="4.19311">
        <ele>457.72</ele>
        <time>2022-04-17T14:09:48Z</time>
      </trkpt>
      <trkpt lat="45.47234" lon="4.19309">
        <ele>457.72</ele>
        <time>2022-04-17T14:09:49Z</time>
      </trkpt>
      <trkpt lat="45.47234" lon="4.19307">
        <ele>457.72</ele>
        <time>2022-04-17T14:09:50Z</time>
      </trkpt>
      <trkpt lat="45.47231" lon="4.19283">
        <ele>455.8</ele>
        <time>2022-04-17T14:10:02Z</time>
      </trkpt>
      <trkpt lat="45.4723" lon="4.19281">
        <ele>455.8</ele>
        <time>2022-04-17T14:10:03Z</time>
      </trkpt>
      <trkpt lat="45.47226" lon="4.19257">
        <ele>453.4</ele>
        <time>2022-04-17T14:10:16Z</time>
      </trkpt>
      <trkpt lat="45.47217" lon="4.19223">
        <ele>450.03</ele>
        <time>2022-04-17T14:10:31Z</time>
      </trkpt>
      <trkpt lat="45.47209" lon="4.19189">
        <ele>446.19</ele>
        <time>2022-04-17T14:10:47Z</time>
      </trkpt>
      <trkpt lat="45.47208" lon="4.19187">
        <ele>445.71</ele>
        <time>2022-04-17T14:10:48Z</time>
      </trkpt>
      <trkpt lat="45.47207" lon="4.19184">
        <ele>445.71</ele>
        <time>2022-04-17T14:10:49Z</time>
      </trkpt>
      <trkpt lat="45.47207" lon="4.19182">
        <ele>445.23</ele>
        <time>2022-04-17T14:10:50Z</time>
      </trkpt>
      <trkpt lat="45.47206" lon="4.19174">
        <ele>444.75</ele>
        <time>2022-04-17T14:10:54Z</time>
      </trkpt>
      <trkpt lat="45.47206" lon="4.19171">
        <ele>444.27</ele>
        <time>2022-04-17T14:10:55Z</time>
      </trkpt>
      <trkpt lat="45.47206" lon="4.19168">
        <ele>443.79</ele>
        <time>2022-04-17T14:10:56Z</time>
      </trkpt>
      <trkpt lat="45.47205" lon="4.19166">
        <ele>443.79</ele>
        <time>2022-04-17T14:10:57Z</time>
      </trkpt>
      <trkpt lat="45.47205" lon="4.19164">
        <ele>443.79</ele>
        <time>2022-04-17T14:10:58Z</time>
      </trkpt>
      <trkpt lat="45.47202" lon="4.19126">
        <ele>441.38</ele>
        <time>2022-04-17T14:11:13Z</time>
      </trkpt>
      <trkpt lat="45.47194" lon="4.19098">
        <ele>438.98</ele>
        <time>2022-04-17T14:11:26Z</time>
      </trkpt>
      <trkpt lat="45.47192" lon="4.19092">
        <ele>438.5</ele>
        <time>2022-04-17T14:11:29Z</time>
      </trkpt>
      <trkpt lat="45.47192" lon="4.1909">
        <ele>438.02</ele>
        <time>2022-04-17T14:11:30Z</time>
      </trkpt>
      <trkpt lat="45.47191" lon="4.19087">
        <ele>438.02</ele>
        <time>2022-04-17T14:11:31Z</time>
      </trkpt>
      <trkpt lat="45.47178" lon="4.19065">
        <ele>437.54</ele>
        <time>2022-04-17T14:11:43Z</time>
      </trkpt>
      <trkpt lat="45.47161" lon="4.19044">
        <ele>440.9</ele>
        <time>2022-04-17T14:11:56Z</time>
      </trkpt>
      <trkpt lat="45.47147" lon="4.19019">
        <ele>441.86</ele>
        <time>2022-04-17T14:12:10Z</time>
      </trkpt>
      <trkpt lat="45.47143" lon="4.18991">
        <ele>438.02</ele>
        <time>2022-04-17T14:12:22Z</time>
      </trkpt>
      <trkpt lat="45.47137" lon="4.18962">
        <ele>435.13</ele>
        <time>2022-04-17T14:12:38Z</time>
      </trkpt>
      <trkpt lat="45.47127" lon="4.18938">
        <ele>430.33</ele>
        <time>2022-04-17T14:12:50Z</time>
      </trkpt>
      <trkpt lat="45.47123" lon="4.18929">
        <ele>429.37</ele>
        <time>2022-04-17T14:12:54Z</time>
      </trkpt>
      <trkpt lat="45.47121" lon="4.18926">
        <ele>428.89</ele>
        <time>2022-04-17T14:12:55Z</time>
      </trkpt>
      <trkpt lat="45.47118" lon="4.18912">
        <ele>428.4</ele>
        <time>2022-04-17T14:13:01Z</time>
      </trkpt>
      <trkpt lat="45.47118" lon="4.18907">
        <ele>427.92</ele>
        <time>2022-04-17T14:13:03Z</time>
      </trkpt>
      <trkpt lat="45.47119" lon="4.18904">
        <ele>427.44</ele>
        <time>2022-04-17T14:13:05Z</time>
      </trkpt>
      <trkpt lat="45.4712" lon="4.18902">
        <ele>427.44</ele>
        <time>2022-04-17T14:13:06Z</time>
      </trkpt>
      <trkpt lat="45.47137" lon="4.18877">
        <ele>431.29</ele>
        <time>2022-04-17T14:13:21Z</time>
      </trkpt>
      <trkpt lat="45.47151" lon="4.18855">
        <ele>430.33</ele>
        <time>2022-04-17T14:13:38Z</time>
      </trkpt>
      <trkpt lat="45.47155" lon="4.18837">
        <ele>426.48</ele>
        <time>2022-04-17T14:13:53Z</time>
      </trkpt>
      <trkpt lat="45.47156" lon="4.18832">
        <ele>422.16</ele>
        <time>2022-04-17T14:14:17Z</time>
      </trkpt>
      <trkpt lat="45.47156" lon="4.18828">
        <ele>421.68</ele>
        <time>2022-04-17T14:14:33Z</time>
      </trkpt>
      <trkpt lat="45.47157" lon="4.18826">
        <ele>422.16</ele>
        <time>2022-04-17T14:14:51Z</time>
      </trkpt>
      <trkpt lat="45.47155" lon="4.18826">
        <ele>423.12</ele>
        <time>2022-04-17T14:15:13Z</time>
      </trkpt>
      <trkpt lat="45.47157" lon="4.18829">
        <ele>426.96</ele>
        <time>2022-04-17T14:15:38Z</time>
      </trkpt>
      <trkpt lat="45.47155" lon="4.18828">
        <ele>426.96</ele>
        <time>2022-04-17T14:15:58Z</time>
      </trkpt>
      <trkpt lat="45.47154" lon="4.18832">
        <ele>429.37</ele>
        <time>2022-04-17T14:16:28Z</time>
      </trkpt>
      <trkpt lat="45.47151" lon="4.18831">
        <ele>433.21</ele>
        <time>2022-04-17T14:16:47Z</time>
      </trkpt>
      <trkpt lat="45.4715" lon="4.18831">
        <ele>438.98</ele>
        <time>2022-04-17T14:17:11Z</time>
      </trkpt>
      <trkpt lat="45.47151" lon="4.18833">
        <ele>439.46</ele>
        <time>2022-04-17T14:17:34Z</time>
      </trkpt>
      <trkpt lat="45.47151" lon="4.18832">
        <ele>438.02</ele>
        <time>2022-04-17T14:18:02Z</time>
      </trkpt>
      <trkpt lat="45.47152" lon="4.18835">
        <ele>438.98</ele>
        <time>2022-04-17T14:18:25Z</time>
      </trkpt>
      <trkpt lat="45.47151" lon="4.18836">
        <ele>439.94</ele>
        <time>2022-04-17T14:18:52Z</time>
      </trkpt>
      <trkpt lat="45.47151" lon="4.18838">
        <ele>442.34</ele>
        <time>2022-04-17T14:19:15Z</time>
      </trkpt>
      <trkpt lat="45.47151" lon="4.18839">
        <ele>446.67</ele>
        <time>2022-04-17T14:19:38Z</time>
      </trkpt>
      <trkpt lat="45.47157" lon="4.18827">
        <ele>440.9</ele>
        <time>2022-04-17T14:19:56Z</time>
      </trkpt>
      <trkpt lat="45.47161" lon="4.18834">
        <ele>435.61</ele>
        <time>2022-04-17T14:20:08Z</time>
      </trkpt>
      <trkpt lat="45.47159" lon="4.1885">
        <ele>433.21</ele>
        <time>2022-04-17T14:20:18Z</time>
      </trkpt>
      <trkpt lat="45.47156" lon="4.18853">
        <ele>433.21</ele>
        <time>2022-04-17T14:20:21Z</time>
      </trkpt>
      <trkpt lat="45.47145" lon="4.18845">
        <ele>431.77</ele>
        <time>2022-04-17T14:20:30Z</time>
      </trkpt>
      <trkpt lat="45.47127" lon="4.18817">
        <ele>427.92</ele>
        <time>2022-04-17T14:20:47Z</time>
      </trkpt>
      <trkpt lat="45.4713" lon="4.18782">
        <ele>425.52</ele>
        <time>2022-04-17T14:21:03Z</time>
      </trkpt>
      <trkpt lat="45.4712" lon="4.18747">
        <ele>425.04</ele>
        <time>2022-04-17T14:21:21Z</time>
      </trkpt>
      <trkpt lat="45.47114" lon="4.18716">
        <ele>426.48</ele>
        <time>2022-04-17T14:21:36Z</time>
      </trkpt>
      <trkpt lat="45.47114" lon="4.18681">
        <ele>427.92</ele>
        <time>2022-04-17T14:21:52Z</time>
      </trkpt>
      <trkpt lat="45.47133" lon="4.18641">
        <ele>427.44</ele>
        <time>2022-04-17T14:22:13Z</time>
      </trkpt>
      <trkpt lat="45.47136" lon="4.18635">
        <ele>427.92</ele>
        <time>2022-04-17T14:22:17Z</time>
      </trkpt>
      <trkpt lat="45.47123" lon="4.18616">
        <ele>427.92</ele>
        <time>2022-04-17T14:22:31Z</time>
      </trkpt>
      <trkpt lat="45.47098" lon="4.18603">
        <ele>429.37</ele>
        <time>2022-04-17T14:22:48Z</time>
      </trkpt>
      <trkpt lat="45.4708" lon="4.18593">
        <ele>431.29</ele>
        <time>2022-04-17T14:23:03Z</time>
      </trkpt>
      <trkpt lat="45.47059" lon="4.18578">
        <ele>435.13</ele>
        <time>2022-04-17T14:23:18Z</time>
      </trkpt>
      <trkpt lat="45.47032" lon="4.18566">
        <ele>437.54</ele>
        <time>2022-04-17T14:23:36Z</time>
      </trkpt>
      <trkpt lat="45.47013" lon="4.18557">
        <ele>438.02</ele>
        <time>2022-04-17T14:23:51Z</time>
      </trkpt>
      <trkpt lat="45.46991" lon="4.18544">
        <ele>440.42</ele>
        <time>2022-04-17T14:24:08Z</time>
      </trkpt>
      <trkpt lat="45.46973" lon="4.18535">
        <ele>444.27</ele>
        <time>2022-04-17T14:24:22Z</time>
      </trkpt>
      <trkpt lat="45.46964" lon="4.1853">
        <ele>445.71</ele>
        <time>2022-04-17T14:24:29Z</time>
      </trkpt>
      <trkpt lat="45.4696" lon="4.18525">
        <ele>447.15</ele>
        <time>2022-04-17T14:24:33Z</time>
      </trkpt>
      <trkpt lat="45.46939" lon="4.18511">
        <ele>453.4</ele>
        <time>2022-04-17T14:24:49Z</time>
      </trkpt>
      <trkpt lat="45.46913" lon="4.18499">
        <ele>456.28</ele>
        <time>2022-04-17T14:25:07Z</time>
      </trkpt>
      <trkpt lat="45.46892" lon="4.18485">
        <ele>458.21</ele>
        <time>2022-04-17T14:25:23Z</time>
      </trkpt>
      <trkpt lat="45.46868" lon="4.18469">
        <ele>459.65</ele>
        <time>2022-04-17T14:25:40Z</time>
      </trkpt>
      <trkpt lat="45.46838" lon="4.18452">
        <ele>460.13</ele>
        <time>2022-04-17T14:26:01Z</time>
      </trkpt>
      <trkpt lat="45.46818" lon="4.18438">
        <ele>459.65</ele>
        <time>2022-04-17T14:26:15Z</time>
      </trkpt>
      <trkpt lat="45.46817" lon="4.18437">
        <ele>459.65</ele>
        <time>2022-04-17T14:26:16Z</time>
      </trkpt>
      <trkpt lat="45.46808" lon="4.18431">
        <ele>459.17</ele>
        <time>2022-04-17T14:26:25Z</time>
      </trkpt>
      <trkpt lat="45.46809" lon="4.1842">
        <ele>458.21</ele>
        <time>2022-04-17T14:26:38Z</time>
      </trkpt>
      <trkpt lat="45.46833" lon="4.18409">
        <ele>458.69</ele>
        <time>2022-04-17T14:26:56Z</time>
      </trkpt>
      <trkpt lat="45.46856" lon="4.18402">
        <ele>458.21</ele>
        <time>2022-04-17T14:27:10Z</time>
      </trkpt>
      <trkpt lat="45.46884" lon="4.18394">
        <ele>462.53</ele>
        <time>2022-04-17T14:27:26Z</time>
      </trkpt>
      <trkpt lat="45.4691" lon="4.18391">
        <ele>464.45</ele>
        <time>2022-04-17T14:27:42Z</time>
      </trkpt>
      <trkpt lat="45.46936" lon="4.18389">
        <ele>465.42</ele>
        <time>2022-04-17T14:28:00Z</time>
      </trkpt>
      <trkpt lat="45.46953" lon="4.18388">
        <ele>467.34</ele>
        <time>2022-04-17T14:28:13Z</time>
      </trkpt>
      <trkpt lat="45.46983" lon="4.18384">
        <ele>469.26</ele>
        <time>2022-04-17T14:28:32Z</time>
      </trkpt>
      <trkpt lat="45.47004" lon="4.18384">
        <ele>471.18</ele>
        <time>2022-04-17T14:28:47Z</time>
      </trkpt>
      <trkpt lat="45.47031" lon="4.18394">
        <ele>473.59</ele>
        <time>2022-04-17T14:29:06Z</time>
      </trkpt>
      <trkpt lat="45.47048" lon="4.18403">
        <ele>475.03</ele>
        <time>2022-04-17T14:29:20Z</time>
      </trkpt>
      <trkpt lat="45.4708" lon="4.18414">
        <ele>477.43</ele>
        <time>2022-04-17T14:29:41Z</time>
      </trkpt>
      <trkpt lat="45.4711" lon="4.18406">
        <ele>482.72</ele>
        <time>2022-04-17T14:30:02Z</time>
      </trkpt>
      <trkpt lat="45.47125" lon="4.18375">
        <ele>487.53</ele>
        <time>2022-04-17T14:30:20Z</time>
      </trkpt>
      <trkpt lat="45.47134" lon="4.18342">
        <ele>492.33</ele>
        <time>2022-04-17T14:30:38Z</time>
      </trkpt>
      <trkpt lat="45.47146" lon="4.18307">
        <ele>494.26</ele>
        <time>2022-04-17T14:30:56Z</time>
      </trkpt>
      <trkpt lat="45.47163" lon="4.18263">
        <ele>494.26</ele>
        <time>2022-04-17T14:31:17Z</time>
      </trkpt>
      <trkpt lat="45.47175" lon="4.18225">
        <ele>493.29</ele>
        <time>2022-04-17T14:31:35Z</time>
      </trkpt>
      <trkpt lat="45.47185" lon="4.18188">
        <ele>491.85</ele>
        <time>2022-04-17T14:31:53Z</time>
      </trkpt>
      <trkpt lat="45.47193" lon="4.1816">
        <ele>488.97</ele>
        <time>2022-04-17T14:32:07Z</time>
      </trkpt>
      <trkpt lat="45.47199" lon="4.18125">
        <ele>488.97</ele>
        <time>2022-04-17T14:32:23Z</time>
      </trkpt>
      <trkpt lat="45.47192" lon="4.18096">
        <ele>489.45</ele>
        <time>2022-04-17T14:32:37Z</time>
      </trkpt>
      <trkpt lat="45.47178" lon="4.18069">
        <ele>490.41</ele>
        <time>2022-04-17T14:32:52Z</time>
      </trkpt>
      <trkpt lat="45.47165" lon="4.18039">
        <ele>490.89</ele>
        <time>2022-04-17T14:33:08Z</time>
      </trkpt>
      <trkpt lat="45.47148" lon="4.18015">
        <ele>492.33</ele>
        <time>2022-04-17T14:33:22Z</time>
      </trkpt>
      <trkpt lat="45.47124" lon="4.18015">
        <ele>494.26</ele>
        <time>2022-04-17T14:33:37Z</time>
      </trkpt>
      <trkpt lat="45.47108" lon="4.17994">
        <ele>495.7</ele>
        <time>2022-04-17T14:33:50Z</time>
      </trkpt>
      <trkpt lat="45.47093" lon="4.17957">
        <ele>496.18</ele>
        <time>2022-04-17T14:34:10Z</time>
      </trkpt>
      <trkpt lat="45.47074" lon="4.17916">
        <ele>496.18</ele>
        <time>2022-04-17T14:34:32Z</time>
      </trkpt>
      <trkpt lat="45.47058" lon="4.17886">
        <ele>496.18</ele>
        <time>2022-04-17T14:34:47Z</time>
      </trkpt>
      <trkpt lat="45.47038" lon="4.17848">
        <ele>497.14</ele>
        <time>2022-04-17T14:35:08Z</time>
      </trkpt>
      <trkpt lat="45.47019" lon="4.17815">
        <ele>496.66</ele>
        <time>2022-04-17T14:35:27Z</time>
      </trkpt>
      <trkpt lat="45.47001" lon="4.1778">
        <ele>494.26</ele>
        <time>2022-04-17T14:35:44Z</time>
      </trkpt>
      <trkpt lat="45.46987" lon="4.17743">
        <ele>493.29</ele>
        <time>2022-04-17T14:36:01Z</time>
      </trkpt>
      <trkpt lat="45.46987" lon="4.17715">
        <ele>495.22</ele>
        <time>2022-04-17T14:36:16Z</time>
      </trkpt>
      <trkpt lat="45.47008" lon="4.17694">
        <ele>495.22</ele>
        <time>2022-04-17T14:36:32Z</time>
      </trkpt>
      <trkpt lat="45.47009" lon="4.17657">
        <ele>500.02</ele>
        <time>2022-04-17T14:36:48Z</time>
      </trkpt>
      <trkpt lat="45.47011" lon="4.17624">
        <ele>504.83</ele>
        <time>2022-04-17T14:37:05Z</time>
      </trkpt>
      <trkpt lat="45.47002" lon="4.17589">
        <ele>502.91</ele>
        <time>2022-04-17T14:37:21Z</time>
      </trkpt>
      <trkpt lat="45.47" lon="4.17546">
        <ele>501.46</ele>
        <time>2022-04-17T14:37:37Z</time>
      </trkpt>
      <trkpt lat="45.47006" lon="4.17503">
        <ele>501.95</ele>
        <time>2022-04-17T14:37:55Z</time>
      </trkpt>
      <trkpt lat="45.47014" lon="4.1746">
        <ele>502.43</ele>
        <time>2022-04-17T14:38:14Z</time>
      </trkpt>
      <trkpt lat="45.47013" lon="4.17423">
        <ele>503.87</ele>
        <time>2022-04-17T14:38:28Z</time>
      </trkpt>
      <trkpt lat="45.47008" lon="4.17395">
        <ele>505.31</ele>
        <time>2022-04-17T14:38:41Z</time>
      </trkpt>
      <trkpt lat="45.47003" lon="4.17363">
        <ele>509.16</ele>
        <time>2022-04-17T14:38:58Z</time>
      </trkpt>
      <trkpt lat="45.47004" lon="4.17327">
        <ele>510.12</ele>
        <time>2022-04-17T14:39:15Z</time>
      </trkpt>
      <trkpt lat="45.47006" lon="4.1728">
        <ele>511.56</ele>
        <time>2022-04-17T14:39:36Z</time>
      </trkpt>
      <trkpt lat="45.4702" lon="4.17246">
        <ele>511.56</ele>
        <time>2022-04-17T14:39:54Z</time>
      </trkpt>
      <trkpt lat="45.47033" lon="4.17219">
        <ele>510.6</ele>
        <time>2022-04-17T14:40:10Z</time>
      </trkpt>
      <trkpt lat="45.47041" lon="4.17204">
        <ele>507.71</ele>
        <time>2022-04-17T14:40:23Z</time>
      </trkpt>
      <trkpt lat="45.47052" lon="4.17181">
        <ele>506.27</ele>
        <time>2022-04-17T14:40:35Z</time>
      </trkpt>
      <trkpt lat="45.47059" lon="4.17156">
        <ele>506.75</ele>
        <time>2022-04-17T14:40:47Z</time>
      </trkpt>
      <trkpt lat="45.47061" lon="4.17134">
        <ele>508.19</ele>
        <time>2022-04-17T14:40:59Z</time>
      </trkpt>
      <trkpt lat="45.47062" lon="4.17106">
        <ele>513.48</ele>
        <time>2022-04-17T14:41:11Z</time>
      </trkpt>
      <trkpt lat="45.47062" lon="4.17101">
        <ele>514.44</ele>
        <time>2022-04-17T14:41:13Z</time>
      </trkpt>
      <trkpt lat="45.47061" lon="4.17098">
        <ele>514.92</ele>
        <time>2022-04-17T14:41:14Z</time>
      </trkpt>
      <trkpt lat="45.47061" lon="4.17095">
        <ele>514.92</ele>
        <time>2022-04-17T14:41:15Z</time>
      </trkpt>
      <trkpt lat="45.47065" lon="4.17059">
        <ele>519.73</ele>
        <time>2022-04-17T14:41:28Z</time>
      </trkpt>
      <trkpt lat="45.47075" lon="4.17015">
        <ele>524.54</ele>
        <time>2022-04-17T14:41:39Z</time>
      </trkpt>
      <trkpt lat="45.47071" lon="4.1698">
        <ele>527.42</ele>
        <time>2022-04-17T14:41:52Z</time>
      </trkpt>
      <trkpt lat="45.47069" lon="4.16941">
        <ele>526.46</ele>
        <time>2022-04-17T14:42:05Z</time>
      </trkpt>
      <trkpt lat="45.47071" lon="4.16935">
        <ele>525.02</ele>
        <time>2022-04-17T14:42:09Z</time>
      </trkpt>
      <trkpt lat="45.47072" lon="4.16933">
        <ele>525.02</ele>
        <time>2022-04-17T14:42:10Z</time>
      </trkpt>
      <trkpt lat="45.47078" lon="4.16919">
        <ele>523.09</ele>
        <time>2022-04-17T14:42:17Z</time>
      </trkpt>
      <trkpt lat="45.47079" lon="4.16916">
        <ele>523.09</ele>
        <time>2022-04-17T14:42:18Z</time>
      </trkpt>
      <trkpt lat="45.4708" lon="4.16913">
        <ele>523.09</ele>
        <time>2022-04-17T14:42:19Z</time>
      </trkpt>
      <trkpt lat="45.47083" lon="4.16907">
        <ele>523.09</ele>
        <time>2022-04-17T14:42:22Z</time>
      </trkpt>
      <trkpt lat="45.47091" lon="4.16888">
        <ele>523.09</ele>
        <time>2022-04-17T14:42:34Z</time>
      </trkpt>
      <trkpt lat="45.471" lon="4.16864">
        <ele>523.58</ele>
        <time>2022-04-17T14:42:47Z</time>
      </trkpt>
      <trkpt lat="45.47111" lon="4.16837">
        <ele>524.54</ele>
        <time>2022-04-17T14:43:01Z</time>
      </trkpt>
      <trkpt lat="45.47115" lon="4.16816">
        <ele>526.46</ele>
        <time>2022-04-17T14:43:15Z</time>
      </trkpt>
      <trkpt lat="45.47113" lon="4.16784">
        <ele>527.9</ele>
        <time>2022-04-17T14:43:31Z</time>
      </trkpt>
      <trkpt lat="45.47112" lon="4.16774">
        <ele>528.86</ele>
        <time>2022-04-17T14:43:36Z</time>
      </trkpt>
      <trkpt lat="45.47107" lon="4.16764">
        <ele>529.34</ele>
        <time>2022-04-17T14:43:41Z</time>
      </trkpt>
      <trkpt lat="45.47077" lon="4.16743">
        <ele>530.3</ele>
        <time>2022-04-17T14:43:57Z</time>
      </trkpt>
      <trkpt lat="45.47071" lon="4.16739">
        <ele>531.27</ele>
        <time>2022-04-17T14:44:01Z</time>
      </trkpt>
      <trkpt lat="45.47048" lon="4.16734">
        <ele>534.15</ele>
        <time>2022-04-17T14:44:14Z</time>
      </trkpt>
      <trkpt lat="45.47042" lon="4.16734">
        <ele>536.07</ele>
        <time>2022-04-17T14:44:17Z</time>
      </trkpt>
      <trkpt lat="45.4704" lon="4.16735">
        <ele>535.59</ele>
        <time>2022-04-17T14:44:18Z</time>
      </trkpt>
      <trkpt lat="45.47038" lon="4.16735">
        <ele>535.59</ele>
        <time>2022-04-17T14:44:19Z</time>
      </trkpt>
      <trkpt lat="45.4703" lon="4.16722">
        <ele>538.96</ele>
        <time>2022-04-17T14:44:31Z</time>
      </trkpt>
      <trkpt lat="45.47029" lon="4.16718">
        <ele>539.44</ele>
        <time>2022-04-17T14:44:33Z</time>
      </trkpt>
      <trkpt lat="45.47018" lon="4.16687">
        <ele>541.36</ele>
        <time>2022-04-17T14:44:47Z</time>
      </trkpt>
      <trkpt lat="45.47005" lon="4.16653">
        <ele>544.24</ele>
        <time>2022-04-17T14:45:00Z</time>
      </trkpt>
      <trkpt lat="45.47" lon="4.16645">
        <ele>545.2</ele>
        <time>2022-04-17T14:45:05Z</time>
      </trkpt>
      <trkpt lat="45.46987" lon="4.16626">
        <ele>545.69</ele>
        <time>2022-04-17T14:45:16Z</time>
      </trkpt>
      <trkpt lat="45.46986" lon="4.16623">
        <ele>546.17</ele>
        <time>2022-04-17T14:45:17Z</time>
      </trkpt>
      <trkpt lat="45.46977" lon="4.16587">
        <ele>546.65</ele>
        <time>2022-04-17T14:45:34Z</time>
      </trkpt>
      <trkpt lat="45.46968" lon="4.16555">
        <ele>547.61</ele>
        <time>2022-04-17T14:45:50Z</time>
      </trkpt>
      <trkpt lat="45.46963" lon="4.16522">
        <ele>549.05</ele>
        <time>2022-04-17T14:46:08Z</time>
      </trkpt>
      <trkpt lat="45.4696" lon="4.16484">
        <ele>549.05</ele>
        <time>2022-04-17T14:46:25Z</time>
      </trkpt>
      <trkpt lat="45.46952" lon="4.16447">
        <ele>548.57</ele>
        <time>2022-04-17T14:46:40Z</time>
      </trkpt>
      <trkpt lat="45.46931" lon="4.16406">
        <ele>547.13</ele>
        <time>2022-04-17T14:46:58Z</time>
      </trkpt>
      <trkpt lat="45.46914" lon="4.16371">
        <ele>547.13</ele>
        <time>2022-04-17T14:47:17Z</time>
      </trkpt>
      <trkpt lat="45.469" lon="4.16338">
        <ele>548.09</ele>
        <time>2022-04-17T14:47:33Z</time>
      </trkpt>
      <trkpt lat="45.46887" lon="4.16292">
        <ele>550.01</ele>
        <time>2022-04-17T14:47:54Z</time>
      </trkpt>
      <trkpt lat="45.46876" lon="4.16255">
        <ele>551.45</ele>
        <time>2022-04-17T14:48:13Z</time>
      </trkpt>
      <trkpt lat="45.46886" lon="4.16234">
        <ele>550.01</ele>
        <time>2022-04-17T14:48:27Z</time>
      </trkpt>
      <trkpt lat="45.46911" lon="4.16212">
        <ele>546.65</ele>
        <time>2022-04-17T14:48:46Z</time>
      </trkpt>
      <trkpt lat="45.46935" lon="4.16189">
        <ele>544.24</ele>
        <time>2022-04-17T14:49:03Z</time>
      </trkpt>
      <trkpt lat="45.46939" lon="4.16158">
        <ele>544.72</ele>
        <time>2022-04-17T14:49:16Z</time>
      </trkpt>
      <trkpt lat="45.46937" lon="4.16121">
        <ele>547.13</ele>
        <time>2022-04-17T14:49:32Z</time>
      </trkpt>
      <trkpt lat="45.46937" lon="4.16077">
        <ele>550.49</ele>
        <time>2022-04-17T14:49:52Z</time>
      </trkpt>
      <trkpt lat="45.46937" lon="4.16073">
        <ele>550.97</ele>
        <time>2022-04-17T14:49:54Z</time>
      </trkpt>
      <trkpt lat="45.46936" lon="4.16071">
        <ele>550.97</ele>
        <time>2022-04-17T14:49:55Z</time>
      </trkpt>
      <trkpt lat="45.46934" lon="4.1607">
        <ele>551.45</ele>
        <time>2022-04-17T14:49:56Z</time>
      </trkpt>
      <trkpt lat="45.46933" lon="4.16069">
        <ele>551.45</ele>
        <time>2022-04-17T14:49:57Z</time>
      </trkpt>
      <trkpt lat="45.46932" lon="4.16068">
        <ele>551.45</ele>
        <time>2022-04-17T14:49:58Z</time>
      </trkpt>
      <trkpt lat="45.4693" lon="4.16068">
        <ele>551.45</ele>
        <time>2022-04-17T14:49:59Z</time>
      </trkpt>
      <trkpt lat="45.46903" lon="4.16064">
        <ele>552.9</ele>
        <time>2022-04-17T14:50:16Z</time>
      </trkpt>
      <trkpt lat="45.46874" lon="4.16062">
        <ele>555.78</ele>
        <time>2022-04-17T14:50:35Z</time>
      </trkpt>
      <trkpt lat="45.46847" lon="4.1606">
        <ele>558.18</ele>
        <time>2022-04-17T14:50:50Z</time>
      </trkpt>
      <trkpt lat="45.46833" lon="4.16055">
        <ele>562.99</ele>
        <time>2022-04-17T14:51:03Z</time>
      </trkpt>
      <trkpt lat="45.46831" lon="4.16054">
        <ele>563.47</ele>
        <time>2022-04-17T14:51:05Z</time>
      </trkpt>
      <trkpt lat="45.4683" lon="4.16053">
        <ele>563.47</ele>
        <time>2022-04-17T14:51:06Z</time>
      </trkpt>
      <trkpt lat="45.46809" lon="4.16038">
        <ele>564.91</ele>
        <time>2022-04-17T14:51:22Z</time>
      </trkpt>
      <trkpt lat="45.46781" lon="4.16018">
        <ele>566.83</ele>
        <time>2022-04-17T14:51:39Z</time>
      </trkpt>
      <trkpt lat="45.46754" lon="4.15997">
        <ele>569.24</ele>
        <time>2022-04-17T14:51:57Z</time>
      </trkpt>
      <trkpt lat="45.46724" lon="4.15972">
        <ele>572.12</ele>
        <time>2022-04-17T14:52:18Z</time>
      </trkpt>
      <trkpt lat="45.46702" lon="4.15943">
        <ele>572.6</ele>
        <time>2022-04-17T14:52:35Z</time>
      </trkpt>
      <trkpt lat="45.46681" lon="4.15908">
        <ele>575.01</ele>
        <time>2022-04-17T14:52:55Z</time>
      </trkpt>
      <trkpt lat="45.46669" lon="4.15881">
        <ele>576.93</ele>
        <time>2022-04-17T14:53:12Z</time>
      </trkpt>
      <trkpt lat="45.46664" lon="4.15859">
        <ele>578.85</ele>
        <time>2022-04-17T14:53:25Z</time>
      </trkpt>
      <trkpt lat="45.46655" lon="4.15832">
        <ele>582.22</ele>
        <time>2022-04-17T14:53:39Z</time>
      </trkpt>
      <trkpt lat="45.46644" lon="4.15803">
        <ele>582.22</ele>
        <time>2022-04-17T14:53:52Z</time>
      </trkpt>
      <trkpt lat="45.46621" lon="4.15772">
        <ele>580.29</ele>
        <time>2022-04-17T14:54:08Z</time>
      </trkpt>
      <trkpt lat="45.46593" lon="4.15749">
        <ele>580.77</ele>
        <time>2022-04-17T14:54:26Z</time>
      </trkpt>
      <trkpt lat="45.46566" lon="4.15717">
        <ele>580.29</ele>
        <time>2022-04-17T14:54:46Z</time>
      </trkpt>
      <trkpt lat="45.4654" lon="4.15695">
        <ele>582.7</ele>
        <time>2022-04-17T14:55:04Z</time>
      </trkpt>
      <trkpt lat="45.46513" lon="4.15676">
        <ele>584.14</ele>
        <time>2022-04-17T14:55:20Z</time>
      </trkpt>
      <trkpt lat="45.46479" lon="4.15669">
        <ele>586.54</ele>
        <time>2022-04-17T14:55:41Z</time>
      </trkpt>
      <trkpt lat="45.46448" lon="4.15664">
        <ele>586.54</ele>
        <time>2022-04-17T14:55:59Z</time>
      </trkpt>
      <trkpt lat="45.46419" lon="4.15655">
        <ele>587.5</ele>
        <time>2022-04-17T14:56:17Z</time>
      </trkpt>
      <trkpt lat="45.4638" lon="4.15633">
        <ele>587.5</ele>
        <time>2022-04-17T14:56:39Z</time>
      </trkpt>
      <trkpt lat="45.46349" lon="4.15612">
        <ele>587.98</ele>
        <time>2022-04-17T14:56:57Z</time>
      </trkpt>
      <trkpt lat="45.46317" lon="4.15589">
        <ele>589.91</ele>
        <time>2022-04-17T14:57:20Z</time>
      </trkpt>
      <trkpt lat="45.46287" lon="4.15572">
        <ele>591.35</ele>
        <time>2022-04-17T14:57:39Z</time>
      </trkpt>
      <trkpt lat="45.4626" lon="4.15556">
        <ele>593.75</ele>
        <time>2022-04-17T14:57:55Z</time>
      </trkpt>
      <trkpt lat="45.46232" lon="4.15534">
        <ele>594.71</ele>
        <time>2022-04-17T14:58:15Z</time>
      </trkpt>
      <trkpt lat="45.4621" lon="4.15508">
        <ele>595.19</ele>
        <time>2022-04-17T14:58:32Z</time>
      </trkpt>
      <trkpt lat="45.46191" lon="4.1547">
        <ele>596.64</ele>
        <time>2022-04-17T14:58:52Z</time>
      </trkpt>
      <trkpt lat="45.46188" lon="4.15463">
        <ele>596.64</ele>
        <time>2022-04-17T14:59:10Z</time>
      </trkpt>
      <trkpt lat="45.46177" lon="4.15442">
        <ele>596.15</ele>
        <time>2022-04-17T14:59:27Z</time>
      </trkpt>
      <trkpt lat="45.46157" lon="4.15413">
        <ele>598.08</ele>
        <time>2022-04-17T14:59:47Z</time>
      </trkpt>
      <trkpt lat="45.46137" lon="4.15389">
        <ele>598.56</ele>
        <time>2022-04-17T15:00:05Z</time>
      </trkpt>
      <trkpt lat="45.46109" lon="4.15363">
        <ele>598.56</ele>
        <time>2022-04-17T15:00:28Z</time>
      </trkpt>
      <trkpt lat="45.46082" lon="4.15341">
        <ele>596.64</ele>
        <time>2022-04-17T15:00:48Z</time>
      </trkpt>
      <trkpt lat="45.46053" lon="4.15317">
        <ele>596.64</ele>
        <time>2022-04-17T15:01:09Z</time>
      </trkpt>
      <trkpt lat="45.46041" lon="4.15272">
        <ele>593.75</ele>
        <time>2022-04-17T15:01:29Z</time>
      </trkpt>
      <trkpt lat="45.4603" lon="4.15232">
        <ele>594.23</ele>
        <time>2022-04-17T15:01:48Z</time>
      </trkpt>
      <trkpt lat="45.46004" lon="4.15224">
        <ele>594.23</ele>
        <time>2022-04-17T15:02:09Z</time>
      </trkpt>
      <trkpt lat="45.45985" lon="4.15215">
        <ele>594.71</ele>
        <time>2022-04-17T15:02:25Z</time>
      </trkpt>
      <trkpt lat="45.45956" lon="4.152">
        <ele>594.71</ele>
        <time>2022-04-17T15:02:46Z</time>
      </trkpt>
      <trkpt lat="45.45922" lon="4.15183">
        <ele>595.67</ele>
        <time>2022-04-17T15:03:09Z</time>
      </trkpt>
      <trkpt lat="45.45894" lon="4.15169">
        <ele>595.19</ele>
        <time>2022-04-17T15:03:26Z</time>
      </trkpt>
      <trkpt lat="45.45869" lon="4.15156">
        <ele>597.12</ele>
        <time>2022-04-17T15:03:44Z</time>
      </trkpt>
      <trkpt lat="45.45841" lon="4.15141">
        <ele>598.08</ele>
        <time>2022-04-17T15:04:01Z</time>
      </trkpt>
      <trkpt lat="45.45815" lon="4.15115">
        <ele>598.08</ele>
        <time>2022-04-17T15:04:20Z</time>
      </trkpt>
      <trkpt lat="45.45787" lon="4.15082">
        <ele>599.04</ele>
        <time>2022-04-17T15:04:40Z</time>
      </trkpt>
      <trkpt lat="45.45763" lon="4.15048">
        <ele>600</ele>
        <time>2022-04-17T15:04:58Z</time>
      </trkpt>
      <trkpt lat="45.45745" lon="4.15006">
        <ele>599.52</ele>
        <time>2022-04-17T15:05:18Z</time>
      </trkpt>
      <trkpt lat="45.4573" lon="4.14961">
        <ele>598.08</ele>
        <time>2022-04-17T15:05:38Z</time>
      </trkpt>
      <trkpt lat="45.45716" lon="4.14915">
        <ele>598.56</ele>
        <time>2022-04-17T15:05:58Z</time>
      </trkpt>
      <trkpt lat="45.45715" lon="4.14907">
        <ele>598.56</ele>
        <time>2022-04-17T15:06:02Z</time>
      </trkpt>
      <trkpt lat="45.45715" lon="4.14906">
        <ele>598.56</ele>
        <time>2022-04-17T15:06:03Z</time>
      </trkpt>
      <trkpt lat="45.45715" lon="4.14903">
        <ele>599.04</ele>
        <time>2022-04-17T15:06:04Z</time>
      </trkpt>
      <trkpt lat="45.45716" lon="4.14901">
        <ele>599.04</ele>
        <time>2022-04-17T15:06:05Z</time>
      </trkpt>
      <trkpt lat="45.45716" lon="4.14899">
        <ele>599.04</ele>
        <time>2022-04-17T15:06:06Z</time>
      </trkpt>
      <trkpt lat="45.45716" lon="4.14896">
        <ele>599.04</ele>
        <time>2022-04-17T15:06:07Z</time>
      </trkpt>
      <trkpt lat="45.45712" lon="4.14863">
        <ele>599.52</ele>
        <time>2022-04-17T15:06:22Z</time>
      </trkpt>
      <trkpt lat="45.4571" lon="4.14822">
        <ele>602.4</ele>
        <time>2022-04-17T15:06:40Z</time>
      </trkpt>
      <trkpt lat="45.45714" lon="4.14783">
        <ele>600.48</ele>
        <time>2022-04-17T15:06:55Z</time>
      </trkpt>
      <trkpt lat="45.45719" lon="4.1474">
        <ele>598.56</ele>
        <time>2022-04-17T15:07:11Z</time>
      </trkpt>
      <trkpt lat="45.45733" lon="4.14691">
        <ele>597.12</ele>
        <time>2022-04-17T15:07:33Z</time>
      </trkpt>
      <trkpt lat="45.45748" lon="4.14654">
        <ele>596.15</ele>
        <time>2022-04-17T15:07:53Z</time>
      </trkpt>
      <trkpt lat="45.45767" lon="4.14616">
        <ele>596.15</ele>
        <time>2022-04-17T15:08:13Z</time>
      </trkpt>
      <trkpt lat="45.45785" lon="4.14581">
        <ele>594.71</ele>
        <time>2022-04-17T15:08:31Z</time>
      </trkpt>
      <trkpt lat="45.45802" lon="4.1454">
        <ele>596.15</ele>
        <time>2022-04-17T15:08:51Z</time>
      </trkpt>
      <trkpt lat="45.45816" lon="4.1451">
        <ele>598.08</ele>
        <time>2022-04-17T15:09:10Z</time>
      </trkpt>
      <trkpt lat="45.45813" lon="4.14506">
        <ele>597.6</ele>
        <time>2022-04-17T15:09:36Z</time>
      </trkpt>
      <trkpt lat="45.45812" lon="4.14507">
        <ele>597.6</ele>
        <time>2022-04-17T15:09:37Z</time>
      </trkpt>
      <trkpt lat="45.45811" lon="4.14508">
        <ele>597.12</ele>
        <time>2022-04-17T15:09:38Z</time>
      </trkpt>
      <trkpt lat="45.45796" lon="4.14522">
        <ele>594.23</ele>
        <time>2022-04-17T15:09:53Z</time>
      </trkpt>
      <trkpt lat="45.45795" lon="4.14521">
        <ele>594.23</ele>
        <time>2022-04-17T15:09:54Z</time>
      </trkpt>
      <trkpt lat="45.45794" lon="4.14519">
        <ele>593.75</ele>
        <time>2022-04-17T15:09:55Z</time>
      </trkpt>
      <trkpt lat="45.45793" lon="4.14517">
        <ele>593.75</ele>
        <time>2022-04-17T15:09:56Z</time>
      </trkpt>
      <trkpt lat="45.45792" lon="4.14515">
        <ele>593.27</ele>
        <time>2022-04-17T15:09:57Z</time>
      </trkpt>
      <trkpt lat="45.45791" lon="4.14513">
        <ele>593.27</ele>
        <time>2022-04-17T15:09:58Z</time>
      </trkpt>
      <trkpt lat="45.4579" lon="4.14512">
        <ele>593.27</ele>
        <time>2022-04-17T15:09:59Z</time>
      </trkpt>
      <trkpt lat="45.45788" lon="4.1451">
        <ele>592.79</ele>
        <time>2022-04-17T15:10:00Z</time>
      </trkpt>
      <trkpt lat="45.45772" lon="4.14485">
        <ele>589.43</ele>
        <time>2022-04-17T15:10:14Z</time>
      </trkpt>
      <trkpt lat="45.45772" lon="4.1448">
        <ele>588.95</ele>
        <time>2022-04-17T15:10:16Z</time>
      </trkpt>
      <trkpt lat="45.45788" lon="4.14452">
        <ele>587.5</ele>
        <time>2022-04-17T15:10:32Z</time>
      </trkpt>
      <trkpt lat="45.45796" lon="4.14417">
        <ele>582.22</ele>
        <time>2022-04-17T15:10:47Z</time>
      </trkpt>
      <trkpt lat="45.45797" lon="4.14407">
        <ele>581.25</ele>
        <time>2022-04-17T15:10:51Z</time>
      </trkpt>
      <trkpt lat="45.45798" lon="4.14404">
        <ele>580.77</ele>
        <time>2022-04-17T15:10:52Z</time>
      </trkpt>
      <trkpt lat="45.45798" lon="4.14401">
        <ele>580.77</ele>
        <time>2022-04-17T15:10:53Z</time>
      </trkpt>
      <trkpt lat="45.45799" lon="4.14399">
        <ele>580.29</ele>
        <time>2022-04-17T15:10:54Z</time>
      </trkpt>
      <trkpt lat="45.45799" lon="4.14396">
        <ele>580.29</ele>
        <time>2022-04-17T15:10:55Z</time>
      </trkpt>
      <trkpt lat="45.458" lon="4.14393">
        <ele>579.81</ele>
        <time>2022-04-17T15:10:56Z</time>
      </trkpt>
      <trkpt lat="45.458" lon="4.1439">
        <ele>579.81</ele>
        <time>2022-04-17T15:10:57Z</time>
      </trkpt>
      <trkpt lat="45.458" lon="4.14387">
        <ele>579.81</ele>
        <time>2022-04-17T15:10:58Z</time>
      </trkpt>
      <trkpt lat="45.458" lon="4.14385">
        <ele>579.33</ele>
        <time>2022-04-17T15:10:59Z</time>
      </trkpt>
      <trkpt lat="45.45804" lon="4.14354">
        <ele>578.37</ele>
        <time>2022-04-17T15:11:14Z</time>
      </trkpt>
      <trkpt lat="45.45808" lon="4.14323">
        <ele>576.93</ele>
        <time>2022-04-17T15:11:29Z</time>
      </trkpt>
      <trkpt lat="45.45812" lon="4.14293">
        <ele>575.01</ele>
        <time>2022-04-17T15:11:45Z</time>
      </trkpt>
      <trkpt lat="45.45814" lon="4.14271">
        <ele>574.04</ele>
        <time>2022-04-17T15:11:59Z</time>
      </trkpt>
      <trkpt lat="45.45817" lon="4.14256">
        <ele>575.49</ele>
        <time>2022-04-17T15:12:15Z</time>
      </trkpt>
      <trkpt lat="45.45829" lon="4.14221">
        <ele>573.56</ele>
        <time>2022-04-17T15:12:36Z</time>
      </trkpt>
      <trkpt lat="45.45828" lon="4.14191">
        <ele>573.08</ele>
        <time>2022-04-17T15:12:51Z</time>
      </trkpt>
      <trkpt lat="45.45827" lon="4.1415">
        <ele>572.6</ele>
        <time>2022-04-17T15:13:12Z</time>
      </trkpt>
      <trkpt lat="45.45821" lon="4.1412">
        <ele>573.08</ele>
        <time>2022-04-17T15:13:29Z</time>
      </trkpt>
      <trkpt lat="45.45815" lon="4.14099">
        <ele>575.49</ele>
        <time>2022-04-17T15:13:44Z</time>
      </trkpt>
      <trkpt lat="45.45806" lon="4.14074">
        <ele>573.56</ele>
        <time>2022-04-17T15:13:58Z</time>
      </trkpt>
      <trkpt lat="45.45796" lon="4.14044">
        <ele>572.12</ele>
        <time>2022-04-17T15:14:16Z</time>
      </trkpt>
      <trkpt lat="45.4578" lon="4.14012">
        <ele>572.6</ele>
        <time>2022-04-17T15:14:36Z</time>
      </trkpt>
      <trkpt lat="45.45779" lon="4.13978">
        <ele>572.12</ele>
        <time>2022-04-17T15:14:53Z</time>
      </trkpt>
      <trkpt lat="45.4579" lon="4.13955">
        <ele>570.2</ele>
        <time>2022-04-17T15:15:10Z</time>
      </trkpt>
      <trkpt lat="45.45795" lon="4.13933">
        <ele>569.24</ele>
        <time>2022-04-17T15:15:24Z</time>
      </trkpt>
      <trkpt lat="45.45792" lon="4.13917">
        <ele>575.01</ele>
        <time>2022-04-17T15:15:40Z</time>
      </trkpt>
      <trkpt lat="45.45791" lon="4.13908">
        <ele>576.45</ele>
        <time>2022-04-17T15:15:58Z</time>
      </trkpt>
      <trkpt lat="45.45787" lon="4.13883">
        <ele>577.41</ele>
        <time>2022-04-17T15:16:13Z</time>
      </trkpt>
      <trkpt lat="45.45783" lon="4.13857">
        <ele>576.45</ele>
        <time>2022-04-17T15:16:28Z</time>
      </trkpt>
      <trkpt lat="45.45777" lon="4.13824">
        <ele>576.45</ele>
        <time>2022-04-17T15:16:43Z</time>
      </trkpt>
      <trkpt lat="45.45767" lon="4.1379">
        <ele>575.49</ele>
        <time>2022-04-17T15:16:59Z</time>
      </trkpt>
      <trkpt lat="45.45759" lon="4.13766">
        <ele>571.64</ele>
        <time>2022-04-17T15:17:12Z</time>
      </trkpt>
      <trkpt lat="45.45745" lon="4.13733">
        <ele>570.2</ele>
        <time>2022-04-17T15:17:30Z</time>
      </trkpt>
      <trkpt lat="45.45738" lon="4.13716">
        <ele>571.16</ele>
        <time>2022-04-17T15:17:47Z</time>
      </trkpt>
      <trkpt lat="45.45724" lon="4.13691">
        <ele>575.49</ele>
        <time>2022-04-17T15:18:03Z</time>
      </trkpt>
      <trkpt lat="45.45719" lon="4.1369">
        <ele>575.97</ele>
        <time>2022-04-17T15:18:07Z</time>
      </trkpt>
      <trkpt lat="45.45718" lon="4.13691">
        <ele>575.97</ele>
        <time>2022-04-17T15:18:08Z</time>
      </trkpt>
      <trkpt lat="45.45717" lon="4.13692">
        <ele>575.97</ele>
        <time>2022-04-17T15:18:09Z</time>
      </trkpt>
      <trkpt lat="45.45709" lon="4.1369">
        <ele>577.41</ele>
        <time>2022-04-17T15:18:15Z</time>
      </trkpt>
      <trkpt lat="45.45708" lon="4.13688">
        <ele>578.37</ele>
        <time>2022-04-17T15:18:16Z</time>
      </trkpt>
      <trkpt lat="45.45706" lon="4.13686">
        <ele>578.85</ele>
        <time>2022-04-17T15:18:17Z</time>
      </trkpt>
      <trkpt lat="45.45691" lon="4.13673">
        <ele>585.1</ele>
        <time>2022-04-17T15:18:32Z</time>
      </trkpt>
      <trkpt lat="45.45666" lon="4.13654">
        <ele>588.46</ele>
        <time>2022-04-17T15:18:48Z</time>
      </trkpt>
      <trkpt lat="45.45653" lon="4.13637">
        <ele>591.83</ele>
        <time>2022-04-17T15:19:02Z</time>
      </trkpt>
      <trkpt lat="45.45639" lon="4.13625">
        <ele>597.6</ele>
        <time>2022-04-17T15:19:15Z</time>
      </trkpt>
      <trkpt lat="45.45621" lon="4.13614">
        <ele>606.25</ele>
        <time>2022-04-17T15:19:30Z</time>
      </trkpt>
      <trkpt lat="45.45602" lon="4.13597">
        <ele>616.34</ele>
        <time>2022-04-17T15:19:44Z</time>
      </trkpt>
      <trkpt lat="45.45584" lon="4.13581">
        <ele>626.92</ele>
        <time>2022-04-17T15:20:00Z</time>
      </trkpt>
      <trkpt lat="45.45566" lon="4.13573">
        <ele>638.45</ele>
        <time>2022-04-17T15:20:17Z</time>
      </trkpt>
      <trkpt lat="45.45548" lon="4.13553">
        <ele>642.78</ele>
        <time>2022-04-17T15:20:36Z</time>
      </trkpt>
      <trkpt lat="45.45526" lon="4.13533">
        <ele>641.82</ele>
        <time>2022-04-17T15:20:53Z</time>
      </trkpt>
      <trkpt lat="45.45507" lon="4.13517">
        <ele>638.45</ele>
        <time>2022-04-17T15:21:06Z</time>
      </trkpt>
      <trkpt lat="45.45486" lon="4.135">
        <ele>631.24</ele>
        <time>2022-04-17T15:21:20Z</time>
      </trkpt>
      <trkpt lat="45.45472" lon="4.13492">
        <ele>624.99</ele>
        <time>2022-04-17T15:21:27Z</time>
      </trkpt>
      <trkpt lat="45.4547" lon="4.1349">
        <ele>624.99</ele>
        <time>2022-04-17T15:21:28Z</time>
      </trkpt>
      <trkpt lat="45.45468" lon="4.13489">
        <ele>624.99</ele>
        <time>2022-04-17T15:21:29Z</time>
      </trkpt>
      <trkpt lat="45.45452" lon="4.13477">
        <ele>627.88</ele>
        <time>2022-04-17T15:21:43Z</time>
      </trkpt>
      <trkpt lat="45.45422" lon="4.13471">
        <ele>624.99</ele>
        <time>2022-04-17T15:21:58Z</time>
      </trkpt>
      <trkpt lat="45.45416" lon="4.13468">
        <ele>624.03</ele>
        <time>2022-04-17T15:22:02Z</time>
      </trkpt>
      <trkpt lat="45.45415" lon="4.13467">
        <ele>624.03</ele>
        <time>2022-04-17T15:22:03Z</time>
      </trkpt>
      <trkpt lat="45.45401" lon="4.13458">
        <ele>630.28</ele>
        <time>2022-04-17T15:22:15Z</time>
      </trkpt>
      <trkpt lat="45.45388" lon="4.13456">
        <ele>634.13</ele>
        <time>2022-04-17T15:22:25Z</time>
      </trkpt>
      <trkpt lat="45.45387" lon="4.13457">
        <ele>634.61</ele>
        <time>2022-04-17T15:22:26Z</time>
      </trkpt>
      <trkpt lat="45.45368" lon="4.13457">
        <ele>636.53</ele>
        <time>2022-04-17T15:22:38Z</time>
      </trkpt>
      <trkpt lat="45.45345" lon="4.13462">
        <ele>633.17</ele>
        <time>2022-04-17T15:22:52Z</time>
      </trkpt>
      <trkpt lat="45.45327" lon="4.13463">
        <ele>631.24</ele>
        <time>2022-04-17T15:23:07Z</time>
      </trkpt>
      <trkpt lat="45.45298" lon="4.13477">
        <ele>626.92</ele>
        <time>2022-04-17T15:23:23Z</time>
      </trkpt>
      <trkpt lat="45.45275" lon="4.13482">
        <ele>627.88</ele>
        <time>2022-04-17T15:23:38Z</time>
      </trkpt>
      <trkpt lat="45.45252" lon="4.13482">
        <ele>626.44</ele>
        <time>2022-04-17T15:23:53Z</time>
      </trkpt>
      <trkpt lat="45.45224" lon="4.13486">
        <ele>624.51</ele>
        <time>2022-04-17T15:24:09Z</time>
      </trkpt>
      <trkpt lat="45.45213" lon="4.13492">
        <ele>625.47</ele>
        <time>2022-04-17T15:24:18Z</time>
      </trkpt>
      <trkpt lat="45.45212" lon="4.13493">
        <ele>625.96</ele>
        <time>2022-04-17T15:24:19Z</time>
      </trkpt>
      <trkpt lat="45.4521" lon="4.13495">
        <ele>625.96</ele>
        <time>2022-04-17T15:24:20Z</time>
      </trkpt>
      <trkpt lat="45.45208" lon="4.13495">
        <ele>625.96</ele>
        <time>2022-04-17T15:24:21Z</time>
      </trkpt>
      <trkpt lat="45.4519" lon="4.13509">
        <ele>628.84</ele>
        <time>2022-04-17T15:24:34Z</time>
      </trkpt>
      <trkpt lat="45.45166" lon="4.13519">
        <ele>632.68</ele>
        <time>2022-04-17T15:24:50Z</time>
      </trkpt>
      <trkpt lat="45.45141" lon="4.13526">
        <ele>633.65</ele>
        <time>2022-04-17T15:25:06Z</time>
      </trkpt>
      <trkpt lat="45.45113" lon="4.1353">
        <ele>632.2</ele>
        <time>2022-04-17T15:25:23Z</time>
      </trkpt>
      <trkpt lat="45.45076" lon="4.13558">
        <ele>633.17</ele>
        <time>2022-04-17T15:25:49Z</time>
      </trkpt>
      <trkpt lat="45.4505" lon="4.13553">
        <ele>633.17</ele>
        <time>2022-04-17T15:26:05Z</time>
      </trkpt>
      <trkpt lat="45.45019" lon="4.13525">
        <ele>633.65</ele>
        <time>2022-04-17T15:26:28Z</time>
      </trkpt>
      <trkpt lat="45.44991" lon="4.13501">
        <ele>634.61</ele>
        <time>2022-04-17T15:26:49Z</time>
      </trkpt>
      <trkpt lat="45.44962" lon="4.13488">
        <ele>636.05</ele>
        <time>2022-04-17T15:27:11Z</time>
      </trkpt>
      <trkpt lat="45.44926" lon="4.13488">
        <ele>636.53</ele>
        <time>2022-04-17T15:27:34Z</time>
      </trkpt>
      <trkpt lat="45.44895" lon="4.1349">
        <ele>636.05</ele>
        <time>2022-04-17T15:27:54Z</time>
      </trkpt>
      <trkpt lat="45.44857" lon="4.13488">
        <ele>635.57</ele>
        <time>2022-04-17T15:28:19Z</time>
      </trkpt>
      <trkpt lat="45.44852" lon="4.13485">
        <ele>634.13</ele>
        <time>2022-04-17T15:28:32Z</time>
      </trkpt>
      <trkpt lat="45.44849" lon="4.13481">
        <ele>633.65</ele>
        <time>2022-04-17T15:29:00Z</time>
      </trkpt>
      <trkpt lat="45.44835" lon="4.1347">
        <ele>633.65</ele>
        <time>2022-04-17T15:29:19Z</time>
      </trkpt>
      <trkpt lat="45.44813" lon="4.13454">
        <ele>632.68</ele>
        <time>2022-04-17T15:29:38Z</time>
      </trkpt>
      <trkpt lat="45.44793" lon="4.13442">
        <ele>629.8</ele>
        <time>2022-04-17T15:29:54Z</time>
      </trkpt>
      <trkpt lat="45.44769" lon="4.13418">
        <ele>627.4</ele>
        <time>2022-04-17T15:30:14Z</time>
      </trkpt>
      <trkpt lat="45.44744" lon="4.13391">
        <ele>627.88</ele>
        <time>2022-04-17T15:30:35Z</time>
      </trkpt>
      <trkpt lat="45.44716" lon="4.13369">
        <ele>632.2</ele>
        <time>2022-04-17T15:30:57Z</time>
      </trkpt>
      <trkpt lat="45.44695" lon="4.13356">
        <ele>633.17</ele>
        <time>2022-04-17T15:31:14Z</time>
      </trkpt>
      <trkpt lat="45.44668" lon="4.1334">
        <ele>632.68</ele>
        <time>2022-04-17T15:31:34Z</time>
      </trkpt>
      <trkpt lat="45.44641" lon="4.13318">
        <ele>631.72</ele>
        <time>2022-04-17T15:31:56Z</time>
      </trkpt>
      <trkpt lat="45.44636" lon="4.13283">
        <ele>630.28</ele>
        <time>2022-04-17T15:32:13Z</time>
      </trkpt>
      <trkpt lat="45.44632" lon="4.13251">
        <ele>629.32</ele>
        <time>2022-04-17T15:32:30Z</time>
      </trkpt>
      <trkpt lat="45.44629" lon="4.13214">
        <ele>628.36</ele>
        <time>2022-04-17T15:32:49Z</time>
      </trkpt>
      <trkpt lat="45.44623" lon="4.13204">
        <ele>627.4</ele>
        <time>2022-04-17T15:33:03Z</time>
      </trkpt>
      <trkpt lat="45.44611" lon="4.13185">
        <ele>626.92</ele>
        <time>2022-04-17T15:33:18Z</time>
      </trkpt>
      <trkpt lat="45.44592" lon="4.13158">
        <ele>626.92</ele>
        <time>2022-04-17T15:33:38Z</time>
      </trkpt>
      <trkpt lat="45.44581" lon="4.13126">
        <ele>627.4</ele>
        <time>2022-04-17T15:33:55Z</time>
      </trkpt>
      <trkpt lat="45.4456" lon="4.13107">
        <ele>627.4</ele>
        <time>2022-04-17T15:34:13Z</time>
      </trkpt>
      <trkpt lat="45.44556" lon="4.13096">
        <ele>627.4</ele>
        <time>2022-04-17T15:34:20Z</time>
      </trkpt>
      <trkpt lat="45.44568" lon="4.13086">
        <ele>628.84</ele>
        <time>2022-04-17T15:34:36Z</time>
      </trkpt>
      <trkpt lat="45.44568" lon="4.13085">
        <ele>629.8</ele>
        <time>2022-04-17T15:35:01Z</time>
      </trkpt>
      <trkpt lat="45.44569" lon="4.13085">
        <ele>627.88</ele>
        <time>2022-04-17T15:35:29Z</time>
      </trkpt>
      <trkpt lat="45.44569" lon="4.13084">
        <ele>626.92</ele>
        <time>2022-04-17T15:35:50Z</time>
      </trkpt>
      <trkpt lat="45.44572" lon="4.13075">
        <ele>626.92</ele>
        <time>2022-04-17T15:36:05Z</time>
      </trkpt>
      <trkpt lat="45.44572" lon="4.13074">
        <ele>626.44</ele>
        <time>2022-04-17T15:36:33Z</time>
      </trkpt>
      <trkpt lat="45.44571" lon="4.13075">
        <ele>626.92</ele>
        <time>2022-04-17T15:37:09Z</time>
      </trkpt>
      <trkpt lat="45.44569" lon="4.13074">
        <ele>627.88</ele>
        <time>2022-04-17T15:37:37Z</time>
      </trkpt>
      <trkpt lat="45.44569" lon="4.13073">
        <ele>628.36</ele>
        <time>2022-04-17T15:38:08Z</time>
      </trkpt>
      <trkpt lat="45.44569" lon="4.13072">
        <ele>626.44</ele>
        <time>2022-04-17T15:38:34Z</time>
      </trkpt>
      <trkpt lat="45.44569" lon="4.13075">
        <ele>626.92</ele>
        <time>2022-04-17T15:39:04Z</time>
      </trkpt>
      <trkpt lat="45.4457" lon="4.13073">
        <ele>628.36</ele>
        <time>2022-04-17T15:39:33Z</time>
      </trkpt>
      <trkpt lat="45.44571" lon="4.13073">
        <ele>626.44</ele>
        <time>2022-04-17T15:40:03Z</time>
      </trkpt>
      <trkpt lat="45.44572" lon="4.1307">
        <ele>628.36</ele>
        <time>2022-04-17T15:40:29Z</time>
      </trkpt>
      <trkpt lat="45.44571" lon="4.13071">
        <ele>628.36</ele>
        <time>2022-04-17T15:40:58Z</time>
      </trkpt>
      <trkpt lat="45.44568" lon="4.1307">
        <ele>626.92</ele>
        <time>2022-04-17T15:41:11Z</time>
      </trkpt>
      <trkpt lat="45.4457" lon="4.13068">
        <ele>625.47</ele>
        <time>2022-04-17T15:41:26Z</time>
      </trkpt>
      <trkpt lat="45.44571" lon="4.1307">
        <ele>624.51</ele>
        <time>2022-04-17T15:41:51Z</time>
      </trkpt>
      <trkpt lat="45.44571" lon="4.13076">
        <ele>624.99</ele>
        <time>2022-04-17T15:42:31Z</time>
      </trkpt>
      <trkpt lat="45.44573" lon="4.13074">
        <ele>626.44</ele>
        <time>2022-04-17T15:43:21Z</time>
      </trkpt>
      <trkpt lat="45.44573" lon="4.13072">
        <ele>625.96</ele>
        <time>2022-04-17T15:44:14Z</time>
      </trkpt>
      <trkpt lat="45.44573" lon="4.13073">
        <ele>622.59</ele>
        <time>2022-04-17T15:44:56Z</time>
      </trkpt>
      <trkpt lat="45.44573" lon="4.13073">
        <ele>620.67</ele>
        <time>2022-04-17T15:45:34Z</time>
      </trkpt>
      <trkpt lat="45.44571" lon="4.13074">
        <ele>624.51</ele>
        <time>2022-04-17T15:46:13Z</time>
      </trkpt>
      <trkpt lat="45.44571" lon="4.1307">
        <ele>624.03</ele>
        <time>2022-04-17T15:46:49Z</time>
      </trkpt>
      <trkpt lat="45.44572" lon="4.13071">
        <ele>625.47</ele>
        <time>2022-04-17T15:47:29Z</time>
      </trkpt>
      <trkpt lat="45.44572" lon="4.1307">
        <ele>622.59</ele>
        <time>2022-04-17T15:48:04Z</time>
      </trkpt>
      <trkpt lat="45.44572" lon="4.13071">
        <ele>620.19</ele>
        <time>2022-04-17T15:48:34Z</time>
      </trkpt>
      <trkpt lat="45.4457" lon="4.13071">
        <ele>626.44</ele>
        <time>2022-04-17T15:48:55Z</time>
      </trkpt>
    </trkseg>
  </trk>
</gpx>